<?xml version="1.0" encoding="UTF-8" standalone="no" ?>
<gpx xmlns="http://www.topografix.com/GPX/1/1" xmlns:xsi="http://www.w3.org/2001/XMLSchema-instance" xsi:schemaLocation="http://www.topografix.com/GPX/1/1 http://www.topografix.com/GPX/1/1/gpx.xsd" version="1.1" creator="VisuGPX - https://www.visugpx.com">
  <metadata>
    <name>43-Séjour Hte Loire-St Pierre du Champ</name>
    <desc><![CDATA[43-Séjour Hte Loire-St Pierre du Champ-07-06-2018]]></desc>
  </metadata>
  <trk>
    <name><![CDATA[2018-06-07-S-St Pierre du Champ]]></name>
    <trkseg>
      <trkpt lat="45.24744" lon="3.89933">
        <ele>959.6</ele>
        <time>2018-06-07T06:47:00Z</time>
      </trkpt>
      <trkpt lat="45.24744" lon="3.89933">
        <ele>959</ele>
        <time>2018-06-07T06:47:00Z</time>
      </trkpt>
      <trkpt lat="45.24742" lon="3.89932">
        <ele>959.6</ele>
        <time>2018-06-07T06:49:19Z</time>
      </trkpt>
      <trkpt lat="45.24742" lon="3.89918">
        <ele>959.6</ele>
        <time>2018-06-07T06:49:28Z</time>
      </trkpt>
      <trkpt lat="45.24745" lon="3.89905">
        <ele>959.6</ele>
        <time>2018-06-07T06:49:37Z</time>
      </trkpt>
      <trkpt lat="45.24747" lon="3.89891">
        <ele>959.5</ele>
        <time>2018-06-07T06:49:47Z</time>
      </trkpt>
      <trkpt lat="45.24749" lon="3.89878">
        <ele>959.3</ele>
        <time>2018-06-07T06:49:56Z</time>
      </trkpt>
      <trkpt lat="45.24751" lon="3.89864">
        <ele>959</ele>
        <time>2018-06-07T06:50:06Z</time>
      </trkpt>
      <trkpt lat="45.24753" lon="3.89851">
        <ele>958.5</ele>
        <time>2018-06-07T06:50:15Z</time>
      </trkpt>
      <trkpt lat="45.24753" lon="3.89838">
        <ele>958.2</ele>
        <time>2018-06-07T06:50:24Z</time>
      </trkpt>
      <trkpt lat="45.2475" lon="3.89825">
        <ele>957.8</ele>
        <time>2018-06-07T06:50:33Z</time>
      </trkpt>
      <trkpt lat="45.24746" lon="3.89812">
        <ele>957.1</ele>
        <time>2018-06-07T06:50:43Z</time>
      </trkpt>
      <trkpt lat="45.24741" lon="3.89801">
        <ele>956.4</ele>
        <time>2018-06-07T06:50:51Z</time>
      </trkpt>
      <trkpt lat="45.24735" lon="3.89789">
        <ele>955.8</ele>
        <time>2018-06-07T06:50:59Z</time>
      </trkpt>
      <trkpt lat="45.24728" lon="3.89782">
        <ele>955</ele>
        <time>2018-06-07T06:51:08Z</time>
      </trkpt>
      <trkpt lat="45.24719" lon="3.89776">
        <ele>954</ele>
        <time>2018-06-07T06:51:17Z</time>
      </trkpt>
      <trkpt lat="45.24714" lon="3.89765">
        <ele>952.9</ele>
        <time>2018-06-07T06:51:27Z</time>
      </trkpt>
      <trkpt lat="45.24708" lon="3.89754">
        <ele>952</ele>
        <time>2018-06-07T06:51:35Z</time>
      </trkpt>
      <trkpt lat="45.24704" lon="3.89742">
        <ele>950.9</ele>
        <time>2018-06-07T06:51:45Z</time>
      </trkpt>
      <trkpt lat="45.24702" lon="3.89729">
        <ele>950.2</ele>
        <time>2018-06-07T06:51:53Z</time>
      </trkpt>
      <trkpt lat="45.247" lon="3.89715">
        <ele>949.8</ele>
        <time>2018-06-07T06:52:01Z</time>
      </trkpt>
      <trkpt lat="45.24698" lon="3.89701">
        <ele>949.2</ele>
        <time>2018-06-07T06:52:10Z</time>
      </trkpt>
      <trkpt lat="45.24697" lon="3.89687">
        <ele>948.7</ele>
        <time>2018-06-07T06:52:18Z</time>
      </trkpt>
      <trkpt lat="45.24694" lon="3.89675">
        <ele>948.2</ele>
        <time>2018-06-07T06:52:26Z</time>
      </trkpt>
      <trkpt lat="45.24691" lon="3.89661">
        <ele>947.6</ele>
        <time>2018-06-07T06:52:34Z</time>
      </trkpt>
      <trkpt lat="45.24689" lon="3.89648">
        <ele>947</ele>
        <time>2018-06-07T06:52:42Z</time>
      </trkpt>
      <trkpt lat="45.24686" lon="3.89635">
        <ele>946.4</ele>
        <time>2018-06-07T06:52:50Z</time>
      </trkpt>
      <trkpt lat="45.24684" lon="3.89621">
        <ele>945.8</ele>
        <time>2018-06-07T06:52:58Z</time>
      </trkpt>
      <trkpt lat="45.24682" lon="3.89608">
        <ele>945.4</ele>
        <time>2018-06-07T06:53:06Z</time>
      </trkpt>
      <trkpt lat="45.2468" lon="3.89595">
        <ele>944.9</ele>
        <time>2018-06-07T06:53:13Z</time>
      </trkpt>
      <trkpt lat="45.2468" lon="3.89581">
        <ele>944.4</ele>
        <time>2018-06-07T06:53:21Z</time>
      </trkpt>
      <trkpt lat="45.24681" lon="3.89568">
        <ele>943.8</ele>
        <time>2018-06-07T06:53:30Z</time>
      </trkpt>
      <trkpt lat="45.2468" lon="3.89554">
        <ele>943.1</ele>
        <time>2018-06-07T06:53:38Z</time>
      </trkpt>
      <trkpt lat="45.24678" lon="3.89541">
        <ele>942.7</ele>
        <time>2018-06-07T06:53:45Z</time>
      </trkpt>
      <trkpt lat="45.24675" lon="3.89528">
        <ele>942</ele>
        <time>2018-06-07T06:53:53Z</time>
      </trkpt>
      <trkpt lat="45.24671" lon="3.89516">
        <ele>941.3</ele>
        <time>2018-06-07T06:54:00Z</time>
      </trkpt>
      <trkpt lat="45.24667" lon="3.89504">
        <ele>940.6</ele>
        <time>2018-06-07T06:54:08Z</time>
      </trkpt>
      <trkpt lat="45.24663" lon="3.89491">
        <ele>939.7</ele>
        <time>2018-06-07T06:54:17Z</time>
      </trkpt>
      <trkpt lat="45.24671" lon="3.89483">
        <ele>939</ele>
        <time>2018-06-07T06:54:26Z</time>
      </trkpt>
      <trkpt lat="45.24681" lon="3.89483">
        <ele>938.7</ele>
        <time>2018-06-07T06:54:32Z</time>
      </trkpt>
      <trkpt lat="45.24691" lon="3.8948">
        <ele>938.5</ele>
        <time>2018-06-07T06:54:39Z</time>
      </trkpt>
      <trkpt lat="45.247" lon="3.89477">
        <ele>938.3</ele>
        <time>2018-06-07T06:54:45Z</time>
      </trkpt>
      <trkpt lat="45.24709" lon="3.89472">
        <ele>938.3</ele>
        <time>2018-06-07T06:54:51Z</time>
      </trkpt>
      <trkpt lat="45.24718" lon="3.89467">
        <ele>938.2</ele>
        <time>2018-06-07T06:54:59Z</time>
      </trkpt>
      <trkpt lat="45.24726" lon="3.89459">
        <ele>937.8</ele>
        <time>2018-06-07T06:55:09Z</time>
      </trkpt>
      <trkpt lat="45.24736" lon="3.89454">
        <ele>937.6</ele>
        <time>2018-06-07T06:55:18Z</time>
      </trkpt>
      <trkpt lat="45.24744" lon="3.89446">
        <ele>937.4</ele>
        <time>2018-06-07T06:55:28Z</time>
      </trkpt>
      <trkpt lat="45.24752" lon="3.89439">
        <ele>937.4</ele>
        <time>2018-06-07T06:55:35Z</time>
      </trkpt>
      <trkpt lat="45.24757" lon="3.89429">
        <ele>937.3</ele>
        <time>2018-06-07T06:55:42Z</time>
      </trkpt>
      <trkpt lat="45.24759" lon="3.89416">
        <ele>937.3</ele>
        <time>2018-06-07T06:55:50Z</time>
      </trkpt>
      <trkpt lat="45.24761" lon="3.89402">
        <ele>937.3</ele>
        <time>2018-06-07T06:55:59Z</time>
      </trkpt>
      <trkpt lat="45.24764" lon="3.8939">
        <ele>937.4</ele>
        <time>2018-06-07T06:56:08Z</time>
      </trkpt>
      <trkpt lat="45.24767" lon="3.89377">
        <ele>937.6</ele>
        <time>2018-06-07T06:56:16Z</time>
      </trkpt>
      <trkpt lat="45.2477" lon="3.89364">
        <ele>937.7</ele>
        <time>2018-06-07T06:56:22Z</time>
      </trkpt>
      <trkpt lat="45.24772" lon="3.89351">
        <ele>937.8</ele>
        <time>2018-06-07T06:56:30Z</time>
      </trkpt>
      <trkpt lat="45.24775" lon="3.89337">
        <ele>937.8</ele>
        <time>2018-06-07T06:56:39Z</time>
      </trkpt>
      <trkpt lat="45.24779" lon="3.89324">
        <ele>937.9</ele>
        <time>2018-06-07T06:56:47Z</time>
      </trkpt>
      <trkpt lat="45.24783" lon="3.89312">
        <ele>937.9</ele>
        <time>2018-06-07T06:56:55Z</time>
      </trkpt>
      <trkpt lat="45.24789" lon="3.89302">
        <ele>937.9</ele>
        <time>2018-06-07T06:57:04Z</time>
      </trkpt>
      <trkpt lat="45.24793" lon="3.8929">
        <ele>937.9</ele>
        <time>2018-06-07T06:57:12Z</time>
      </trkpt>
      <trkpt lat="45.24797" lon="3.89278">
        <ele>937.8</ele>
        <time>2018-06-07T06:57:22Z</time>
      </trkpt>
      <trkpt lat="45.24801" lon="3.89265">
        <ele>937.6</ele>
        <time>2018-06-07T06:57:31Z</time>
      </trkpt>
      <trkpt lat="45.24807" lon="3.89255">
        <ele>937.2</ele>
        <time>2018-06-07T06:57:40Z</time>
      </trkpt>
      <trkpt lat="45.24814" lon="3.89245">
        <ele>936.6</ele>
        <time>2018-06-07T06:57:49Z</time>
      </trkpt>
      <trkpt lat="45.24821" lon="3.89235">
        <ele>935.9</ele>
        <time>2018-06-07T06:57:57Z</time>
      </trkpt>
      <trkpt lat="45.24827" lon="3.89226">
        <ele>935.2</ele>
        <time>2018-06-07T06:58:05Z</time>
      </trkpt>
      <trkpt lat="45.24833" lon="3.89215">
        <ele>934.3</ele>
        <time>2018-06-07T06:58:13Z</time>
      </trkpt>
      <trkpt lat="45.24838" lon="3.89203">
        <ele>933</ele>
        <time>2018-06-07T06:58:22Z</time>
      </trkpt>
      <trkpt lat="45.24843" lon="3.89191">
        <ele>931.6</ele>
        <time>2018-06-07T06:58:31Z</time>
      </trkpt>
      <trkpt lat="45.24849" lon="3.89181">
        <ele>930.1</ele>
        <time>2018-06-07T06:58:39Z</time>
      </trkpt>
      <trkpt lat="45.24854" lon="3.89171">
        <ele>928.8</ele>
        <time>2018-06-07T06:58:46Z</time>
      </trkpt>
      <trkpt lat="45.24861" lon="3.89161">
        <ele>927.5</ele>
        <time>2018-06-07T06:58:55Z</time>
      </trkpt>
      <trkpt lat="45.24868" lon="3.89152">
        <ele>926.3</ele>
        <time>2018-06-07T06:59:03Z</time>
      </trkpt>
      <trkpt lat="45.24876" lon="3.89146">
        <ele>925.2</ele>
        <time>2018-06-07T06:59:12Z</time>
      </trkpt>
      <trkpt lat="45.24886" lon="3.89142">
        <ele>924.3</ele>
        <time>2018-06-07T06:59:20Z</time>
      </trkpt>
      <trkpt lat="45.24895" lon="3.89137">
        <ele>923.3</ele>
        <time>2018-06-07T06:59:29Z</time>
      </trkpt>
      <trkpt lat="45.24905" lon="3.89135">
        <ele>922.3</ele>
        <time>2018-06-07T06:59:37Z</time>
      </trkpt>
      <trkpt lat="45.24915" lon="3.8913">
        <ele>921.2</ele>
        <time>2018-06-07T06:59:46Z</time>
      </trkpt>
      <trkpt lat="45.24924" lon="3.89127">
        <ele>920.2</ele>
        <time>2018-06-07T06:59:55Z</time>
      </trkpt>
      <trkpt lat="45.24932" lon="3.89121">
        <ele>919</ele>
        <time>2018-06-07T07:00:05Z</time>
      </trkpt>
      <trkpt lat="45.24942" lon="3.89118">
        <ele>917.8</ele>
        <time>2018-06-07T07:00:16Z</time>
      </trkpt>
      <trkpt lat="45.24951" lon="3.89116">
        <ele>917</ele>
        <time>2018-06-07T07:00:25Z</time>
      </trkpt>
      <trkpt lat="45.24961" lon="3.89116">
        <ele>916</ele>
        <time>2018-06-07T07:00:37Z</time>
      </trkpt>
      <trkpt lat="45.24969" lon="3.89122">
        <ele>915.6</ele>
        <time>2018-06-07T07:00:46Z</time>
      </trkpt>
      <trkpt lat="45.24979" lon="3.89125">
        <ele>915</ele>
        <time>2018-06-07T07:00:59Z</time>
      </trkpt>
      <trkpt lat="45.24989" lon="3.89124">
        <ele>914.8</ele>
        <time>2018-06-07T07:01:08Z</time>
      </trkpt>
      <trkpt lat="45.24993" lon="3.89111">
        <ele>914.7</ele>
        <time>2018-06-07T07:01:18Z</time>
      </trkpt>
      <trkpt lat="45.24998" lon="3.89099">
        <ele>914.8</ele>
        <time>2018-06-07T07:01:29Z</time>
      </trkpt>
      <trkpt lat="45.25003" lon="3.89088">
        <ele>914.8</ele>
        <time>2018-06-07T07:01:44Z</time>
      </trkpt>
      <trkpt lat="45.25008" lon="3.89076">
        <ele>915.1</ele>
        <time>2018-06-07T07:02:08Z</time>
      </trkpt>
      <trkpt lat="45.25013" lon="3.89066">
        <ele>915.4</ele>
        <time>2018-06-07T07:02:20Z</time>
      </trkpt>
      <trkpt lat="45.25018" lon="3.89055">
        <ele>915.8</ele>
        <time>2018-06-07T07:02:31Z</time>
      </trkpt>
      <trkpt lat="45.25025" lon="3.89044">
        <ele>916.2</ele>
        <time>2018-06-07T07:02:43Z</time>
      </trkpt>
      <trkpt lat="45.25031" lon="3.89034">
        <ele>917</ele>
        <time>2018-06-07T07:03:04Z</time>
      </trkpt>
      <trkpt lat="45.25038" lon="3.89026">
        <ele>917.8</ele>
        <time>2018-06-07T07:03:25Z</time>
      </trkpt>
      <trkpt lat="45.25044" lon="3.89015">
        <ele>918.1</ele>
        <time>2018-06-07T07:03:35Z</time>
      </trkpt>
      <trkpt lat="45.25049" lon="3.89005">
        <ele>918.5</ele>
        <time>2018-06-07T07:03:45Z</time>
      </trkpt>
      <trkpt lat="45.25054" lon="3.88994">
        <ele>919</ele>
        <time>2018-06-07T07:03:54Z</time>
      </trkpt>
      <trkpt lat="45.25061" lon="3.88984">
        <ele>919.7</ele>
        <time>2018-06-07T07:04:03Z</time>
      </trkpt>
      <trkpt lat="45.25066" lon="3.88972">
        <ele>920.9</ele>
        <time>2018-06-07T07:04:19Z</time>
      </trkpt>
      <trkpt lat="45.25074" lon="3.88965">
        <ele>921.5</ele>
        <time>2018-06-07T07:04:27Z</time>
      </trkpt>
      <trkpt lat="45.25074" lon="3.8895">
        <ele>922.5</ele>
        <time>2018-06-07T07:04:38Z</time>
      </trkpt>
      <trkpt lat="45.25067" lon="3.88943">
        <ele>923.4</ele>
        <time>2018-06-07T07:04:47Z</time>
      </trkpt>
      <trkpt lat="45.25063" lon="3.88931">
        <ele>925.3</ele>
        <time>2018-06-07T07:05:01Z</time>
      </trkpt>
      <trkpt lat="45.25058" lon="3.88918">
        <ele>926.2</ele>
        <time>2018-06-07T07:05:08Z</time>
      </trkpt>
      <trkpt lat="45.25057" lon="3.88905">
        <ele>927.2</ele>
        <time>2018-06-07T07:05:17Z</time>
      </trkpt>
      <trkpt lat="45.2506" lon="3.88892">
        <ele>928</ele>
        <time>2018-06-07T07:05:26Z</time>
      </trkpt>
      <trkpt lat="45.25064" lon="3.88872">
        <ele>928.3</ele>
        <time>2018-06-07T07:12:54Z</time>
      </trkpt>
      <trkpt lat="45.25064" lon="3.88858">
        <ele>929.3</ele>
        <time>2018-06-07T07:13:02Z</time>
      </trkpt>
      <trkpt lat="45.25069" lon="3.88845">
        <ele>929.9</ele>
        <time>2018-06-07T07:13:10Z</time>
      </trkpt>
      <trkpt lat="45.25071" lon="3.88831">
        <ele>930.5</ele>
        <time>2018-06-07T07:13:19Z</time>
      </trkpt>
      <trkpt lat="45.25077" lon="3.8882">
        <ele>930.8</ele>
        <time>2018-06-07T07:13:26Z</time>
      </trkpt>
      <trkpt lat="45.2508" lon="3.88808">
        <ele>931.2</ele>
        <time>2018-06-07T07:13:36Z</time>
      </trkpt>
      <trkpt lat="45.25084" lon="3.88796">
        <ele>931.7</ele>
        <time>2018-06-07T07:13:50Z</time>
      </trkpt>
      <trkpt lat="45.25087" lon="3.88784">
        <ele>931.8</ele>
        <time>2018-06-07T07:14:00Z</time>
      </trkpt>
      <trkpt lat="45.25091" lon="3.88772">
        <ele>931.9</ele>
        <time>2018-06-07T07:14:07Z</time>
      </trkpt>
      <trkpt lat="45.25096" lon="3.88761">
        <ele>932</ele>
        <time>2018-06-07T07:14:15Z</time>
      </trkpt>
      <trkpt lat="45.25101" lon="3.8875">
        <ele>932</ele>
        <time>2018-06-07T07:14:24Z</time>
      </trkpt>
      <trkpt lat="45.25106" lon="3.88739">
        <ele>932.1</ele>
        <time>2018-06-07T07:14:32Z</time>
      </trkpt>
      <trkpt lat="45.25112" lon="3.88728">
        <ele>932.1</ele>
        <time>2018-06-07T07:14:41Z</time>
      </trkpt>
      <trkpt lat="45.25118" lon="3.88719">
        <ele>932</ele>
        <time>2018-06-07T07:14:51Z</time>
      </trkpt>
      <trkpt lat="45.25122" lon="3.88707">
        <ele>931.9</ele>
        <time>2018-06-07T07:15:02Z</time>
      </trkpt>
      <trkpt lat="45.25128" lon="3.88697">
        <ele>931.6</ele>
        <time>2018-06-07T07:15:13Z</time>
      </trkpt>
      <trkpt lat="45.25133" lon="3.88686">
        <ele>931.2</ele>
        <time>2018-06-07T07:15:25Z</time>
      </trkpt>
      <trkpt lat="45.25138" lon="3.88674">
        <ele>930.9</ele>
        <time>2018-06-07T07:15:34Z</time>
      </trkpt>
      <trkpt lat="45.25142" lon="3.88663">
        <ele>930.8</ele>
        <time>2018-06-07T07:15:41Z</time>
      </trkpt>
      <trkpt lat="45.25148" lon="3.88652">
        <ele>930.7</ele>
        <time>2018-06-07T07:15:49Z</time>
      </trkpt>
      <trkpt lat="45.2515" lon="3.88638">
        <ele>930.4</ele>
        <time>2018-06-07T07:16:15Z</time>
      </trkpt>
      <trkpt lat="45.25159" lon="3.88632">
        <ele>930.2</ele>
        <time>2018-06-07T07:16:25Z</time>
      </trkpt>
      <trkpt lat="45.25168" lon="3.88624">
        <ele>930</ele>
        <time>2018-06-07T07:16:35Z</time>
      </trkpt>
      <trkpt lat="45.25175" lon="3.88616">
        <ele>929.5</ele>
        <time>2018-06-07T07:16:44Z</time>
      </trkpt>
      <trkpt lat="45.25182" lon="3.88607">
        <ele>929.2</ele>
        <time>2018-06-07T07:16:52Z</time>
      </trkpt>
      <trkpt lat="45.25188" lon="3.88597">
        <ele>928.9</ele>
        <time>2018-06-07T07:17:00Z</time>
      </trkpt>
      <trkpt lat="45.25195" lon="3.88588">
        <ele>928.6</ele>
        <time>2018-06-07T07:17:09Z</time>
      </trkpt>
      <trkpt lat="45.25204" lon="3.8858">
        <ele>928.3</ele>
        <time>2018-06-07T07:17:17Z</time>
      </trkpt>
      <trkpt lat="45.25211" lon="3.88571">
        <ele>928</ele>
        <time>2018-06-07T07:17:26Z</time>
      </trkpt>
      <trkpt lat="45.25217" lon="3.88561">
        <ele>927.7</ele>
        <time>2018-06-07T07:17:33Z</time>
      </trkpt>
      <trkpt lat="45.25221" lon="3.88548">
        <ele>927.5</ele>
        <time>2018-06-07T07:17:41Z</time>
      </trkpt>
      <trkpt lat="45.25227" lon="3.88538">
        <ele>927.4</ele>
        <time>2018-06-07T07:17:48Z</time>
      </trkpt>
      <trkpt lat="45.25233" lon="3.88528">
        <ele>927.2</ele>
        <time>2018-06-07T07:17:55Z</time>
      </trkpt>
      <trkpt lat="45.25237" lon="3.88515">
        <ele>926.9</ele>
        <time>2018-06-07T07:18:04Z</time>
      </trkpt>
      <trkpt lat="45.25239" lon="3.88502">
        <ele>926.6</ele>
        <time>2018-06-07T07:18:12Z</time>
      </trkpt>
      <trkpt lat="45.25243" lon="3.8849">
        <ele>926.1</ele>
        <time>2018-06-07T07:18:21Z</time>
      </trkpt>
      <trkpt lat="45.25246" lon="3.88477">
        <ele>925.8</ele>
        <time>2018-06-07T07:18:30Z</time>
      </trkpt>
      <trkpt lat="45.25251" lon="3.88466">
        <ele>925.6</ele>
        <time>2018-06-07T07:18:42Z</time>
      </trkpt>
      <trkpt lat="45.25253" lon="3.88453">
        <ele>925.4</ele>
        <time>2018-06-07T07:18:50Z</time>
      </trkpt>
      <trkpt lat="45.25259" lon="3.88442">
        <ele>925.2</ele>
        <time>2018-06-07T07:18:58Z</time>
      </trkpt>
      <trkpt lat="45.25261" lon="3.88429">
        <ele>925</ele>
        <time>2018-06-07T07:19:06Z</time>
      </trkpt>
      <trkpt lat="45.25266" lon="3.88417">
        <ele>924.8</ele>
        <time>2018-06-07T07:19:14Z</time>
      </trkpt>
      <trkpt lat="45.2527" lon="3.88406">
        <ele>924.7</ele>
        <time>2018-06-07T07:19:20Z</time>
      </trkpt>
      <trkpt lat="45.25273" lon="3.88394">
        <ele>924.1</ele>
        <time>2018-06-07T07:19:28Z</time>
      </trkpt>
      <trkpt lat="45.25279" lon="3.88382">
        <ele>923.7</ele>
        <time>2018-06-07T07:19:38Z</time>
      </trkpt>
      <trkpt lat="45.25282" lon="3.88369">
        <ele>923.5</ele>
        <time>2018-06-07T07:19:46Z</time>
      </trkpt>
      <trkpt lat="45.25285" lon="3.88356">
        <ele>923.1</ele>
        <time>2018-06-07T07:19:54Z</time>
      </trkpt>
      <trkpt lat="45.25288" lon="3.88344">
        <ele>922.7</ele>
        <time>2018-06-07T07:20:02Z</time>
      </trkpt>
      <trkpt lat="45.25294" lon="3.88332">
        <ele>922.4</ele>
        <time>2018-06-07T07:20:10Z</time>
      </trkpt>
      <trkpt lat="45.25297" lon="3.88319">
        <ele>921.9</ele>
        <time>2018-06-07T07:20:19Z</time>
      </trkpt>
      <trkpt lat="45.25302" lon="3.88305">
        <ele>921.7</ele>
        <time>2018-06-07T07:20:25Z</time>
      </trkpt>
      <trkpt lat="45.25306" lon="3.88292">
        <ele>921.2</ele>
        <time>2018-06-07T07:20:36Z</time>
      </trkpt>
      <trkpt lat="45.2531" lon="3.8828">
        <ele>920.7</ele>
        <time>2018-06-07T07:20:44Z</time>
      </trkpt>
      <trkpt lat="45.25315" lon="3.88267">
        <ele>920.1</ele>
        <time>2018-06-07T07:20:53Z</time>
      </trkpt>
      <trkpt lat="45.25316" lon="3.88253">
        <ele>919.8</ele>
        <time>2018-06-07T07:20:59Z</time>
      </trkpt>
      <trkpt lat="45.25319" lon="3.8824">
        <ele>919.4</ele>
        <time>2018-06-07T07:21:08Z</time>
      </trkpt>
      <trkpt lat="45.25325" lon="3.8823">
        <ele>919.1</ele>
        <time>2018-06-07T07:21:15Z</time>
      </trkpt>
      <trkpt lat="45.25329" lon="3.88218">
        <ele>918.7</ele>
        <time>2018-06-07T07:21:21Z</time>
      </trkpt>
      <trkpt lat="45.25328" lon="3.88204">
        <ele>918.4</ele>
        <time>2018-06-07T07:21:27Z</time>
      </trkpt>
      <trkpt lat="45.25331" lon="3.88191">
        <ele>918.1</ele>
        <time>2018-06-07T07:21:34Z</time>
      </trkpt>
      <trkpt lat="45.25337" lon="3.88179">
        <ele>917.7</ele>
        <time>2018-06-07T07:21:42Z</time>
      </trkpt>
      <trkpt lat="45.2534" lon="3.88167">
        <ele>917.3</ele>
        <time>2018-06-07T07:21:52Z</time>
      </trkpt>
      <trkpt lat="45.25343" lon="3.88153">
        <ele>916.6</ele>
        <time>2018-06-07T07:22:04Z</time>
      </trkpt>
      <trkpt lat="45.25349" lon="3.88143">
        <ele>916.2</ele>
        <time>2018-06-07T07:22:15Z</time>
      </trkpt>
      <trkpt lat="45.25355" lon="3.88133">
        <ele>915.9</ele>
        <time>2018-06-07T07:22:23Z</time>
      </trkpt>
      <trkpt lat="45.25364" lon="3.88122">
        <ele>915.7</ele>
        <time>2018-06-07T07:22:29Z</time>
      </trkpt>
      <trkpt lat="45.25371" lon="3.88115">
        <ele>915.5</ele>
        <time>2018-06-07T07:22:34Z</time>
      </trkpt>
      <trkpt lat="45.25379" lon="3.88106">
        <ele>915.4</ele>
        <time>2018-06-07T07:22:41Z</time>
      </trkpt>
      <trkpt lat="45.25386" lon="3.88096">
        <ele>915.1</ele>
        <time>2018-06-07T07:22:49Z</time>
      </trkpt>
      <trkpt lat="45.25392" lon="3.88087">
        <ele>914.9</ele>
        <time>2018-06-07T07:22:56Z</time>
      </trkpt>
      <trkpt lat="45.25396" lon="3.88073">
        <ele>914.8</ele>
        <time>2018-06-07T07:23:03Z</time>
      </trkpt>
      <trkpt lat="45.25399" lon="3.88061">
        <ele>914.7</ele>
        <time>2018-06-07T07:23:11Z</time>
      </trkpt>
      <trkpt lat="45.25404" lon="3.88049">
        <ele>914.6</ele>
        <time>2018-06-07T07:23:20Z</time>
      </trkpt>
      <trkpt lat="45.2541" lon="3.88039">
        <ele>914.4</ele>
        <time>2018-06-07T07:23:29Z</time>
      </trkpt>
      <trkpt lat="45.25418" lon="3.88031">
        <ele>914.2</ele>
        <time>2018-06-07T07:23:36Z</time>
      </trkpt>
      <trkpt lat="45.25426" lon="3.88023">
        <ele>913.7</ele>
        <time>2018-06-07T07:23:44Z</time>
      </trkpt>
      <trkpt lat="45.25433" lon="3.88016">
        <ele>913</ele>
        <time>2018-06-07T07:23:52Z</time>
      </trkpt>
      <trkpt lat="45.25442" lon="3.8801">
        <ele>912</ele>
        <time>2018-06-07T07:24:01Z</time>
      </trkpt>
      <trkpt lat="45.25451" lon="3.88004">
        <ele>910.8</ele>
        <time>2018-06-07T07:24:10Z</time>
      </trkpt>
      <trkpt lat="45.2546" lon="3.87999">
        <ele>909.6</ele>
        <time>2018-06-07T07:24:18Z</time>
      </trkpt>
      <trkpt lat="45.25468" lon="3.87993">
        <ele>908.2</ele>
        <time>2018-06-07T07:24:27Z</time>
      </trkpt>
      <trkpt lat="45.25477" lon="3.87987">
        <ele>907</ele>
        <time>2018-06-07T07:24:35Z</time>
      </trkpt>
      <trkpt lat="45.25484" lon="3.87979">
        <ele>905.8</ele>
        <time>2018-06-07T07:24:44Z</time>
      </trkpt>
      <trkpt lat="45.25497" lon="3.87973">
        <ele>904.4</ele>
        <time>2018-06-07T07:24:56Z</time>
      </trkpt>
      <trkpt lat="45.25506" lon="3.87969">
        <ele>903.7</ele>
        <time>2018-06-07T07:25:04Z</time>
      </trkpt>
      <trkpt lat="45.25514" lon="3.87966">
        <ele>903</ele>
        <time>2018-06-07T07:25:20Z</time>
      </trkpt>
      <trkpt lat="45.25524" lon="3.87962">
        <ele>902.7</ele>
        <time>2018-06-07T07:25:27Z</time>
      </trkpt>
      <trkpt lat="45.25531" lon="3.87953">
        <ele>902.4</ele>
        <time>2018-06-07T07:25:35Z</time>
      </trkpt>
      <trkpt lat="45.25538" lon="3.87942">
        <ele>902.1</ele>
        <time>2018-06-07T07:25:43Z</time>
      </trkpt>
      <trkpt lat="45.25541" lon="3.87928">
        <ele>901.9</ele>
        <time>2018-06-07T07:25:51Z</time>
      </trkpt>
      <trkpt lat="45.25543" lon="3.87915">
        <ele>901.6</ele>
        <time>2018-06-07T07:25:58Z</time>
      </trkpt>
      <trkpt lat="45.25546" lon="3.87903">
        <ele>901.4</ele>
        <time>2018-06-07T07:26:06Z</time>
      </trkpt>
      <trkpt lat="45.25547" lon="3.87889">
        <ele>901.2</ele>
        <time>2018-06-07T07:26:15Z</time>
      </trkpt>
      <trkpt lat="45.25548" lon="3.87876">
        <ele>901.1</ele>
        <time>2018-06-07T07:26:23Z</time>
      </trkpt>
      <trkpt lat="45.25549" lon="3.87863">
        <ele>901</ele>
        <time>2018-06-07T07:26:32Z</time>
      </trkpt>
      <trkpt lat="45.25554" lon="3.87852">
        <ele>901.1</ele>
        <time>2018-06-07T07:26:40Z</time>
      </trkpt>
      <trkpt lat="45.2556" lon="3.87841">
        <ele>901.3</ele>
        <time>2018-06-07T07:26:48Z</time>
      </trkpt>
      <trkpt lat="45.25567" lon="3.87832">
        <ele>901.7</ele>
        <time>2018-06-07T07:26:57Z</time>
      </trkpt>
      <trkpt lat="45.25575" lon="3.87823">
        <ele>902.4</ele>
        <time>2018-06-07T07:27:07Z</time>
      </trkpt>
      <trkpt lat="45.25582" lon="3.87813">
        <ele>903</ele>
        <time>2018-06-07T07:27:15Z</time>
      </trkpt>
      <trkpt lat="45.25589" lon="3.87806">
        <ele>903.7</ele>
        <time>2018-06-07T07:27:24Z</time>
      </trkpt>
      <trkpt lat="45.25597" lon="3.87797">
        <ele>904.5</ele>
        <time>2018-06-07T07:27:33Z</time>
      </trkpt>
      <trkpt lat="45.25604" lon="3.87789">
        <ele>905.2</ele>
        <time>2018-06-07T07:27:41Z</time>
      </trkpt>
      <trkpt lat="45.25612" lon="3.87781">
        <ele>905.9</ele>
        <time>2018-06-07T07:27:50Z</time>
      </trkpt>
      <trkpt lat="45.25617" lon="3.8777">
        <ele>906.6</ele>
        <time>2018-06-07T07:27:59Z</time>
      </trkpt>
      <trkpt lat="45.2562" lon="3.87756">
        <ele>907.4</ele>
        <time>2018-06-07T07:28:09Z</time>
      </trkpt>
      <trkpt lat="45.25625" lon="3.87745">
        <ele>908</ele>
        <time>2018-06-07T07:28:17Z</time>
      </trkpt>
      <trkpt lat="45.25628" lon="3.87733">
        <ele>908.6</ele>
        <time>2018-06-07T07:28:27Z</time>
      </trkpt>
      <trkpt lat="45.25632" lon="3.8772">
        <ele>908.9</ele>
        <time>2018-06-07T07:28:35Z</time>
      </trkpt>
      <trkpt lat="45.25636" lon="3.87708">
        <ele>909.5</ele>
        <time>2018-06-07T07:28:43Z</time>
      </trkpt>
      <trkpt lat="45.25638" lon="3.87695">
        <ele>910.1</ele>
        <time>2018-06-07T07:28:52Z</time>
      </trkpt>
      <trkpt lat="45.25639" lon="3.87683">
        <ele>910.8</ele>
        <time>2018-06-07T07:29:02Z</time>
      </trkpt>
      <trkpt lat="45.2564" lon="3.87669">
        <ele>911.4</ele>
        <time>2018-06-07T07:29:11Z</time>
      </trkpt>
      <trkpt lat="45.25639" lon="3.87655">
        <ele>912.3</ele>
        <time>2018-06-07T07:29:23Z</time>
      </trkpt>
      <trkpt lat="45.2564" lon="3.87642">
        <ele>913</ele>
        <time>2018-06-07T07:29:32Z</time>
      </trkpt>
      <trkpt lat="45.25639" lon="3.87629">
        <ele>914</ele>
        <time>2018-06-07T07:29:42Z</time>
      </trkpt>
      <trkpt lat="45.25638" lon="3.87615">
        <ele>915</ele>
        <time>2018-06-07T07:29:53Z</time>
      </trkpt>
      <trkpt lat="45.25638" lon="3.87602">
        <ele>915.7</ele>
        <time>2018-06-07T07:30:00Z</time>
      </trkpt>
      <trkpt lat="45.25639" lon="3.87588">
        <ele>916.8</ele>
        <time>2018-06-07T07:30:08Z</time>
      </trkpt>
      <trkpt lat="45.25636" lon="3.87575">
        <ele>918.2</ele>
        <time>2018-06-07T07:30:19Z</time>
      </trkpt>
      <trkpt lat="45.2563" lon="3.87565">
        <ele>919.2</ele>
        <time>2018-06-07T07:30:28Z</time>
      </trkpt>
      <trkpt lat="45.25624" lon="3.87555">
        <ele>920.2</ele>
        <time>2018-06-07T07:30:39Z</time>
      </trkpt>
      <trkpt lat="45.25615" lon="3.87551">
        <ele>921.1</ele>
        <time>2018-06-07T07:30:48Z</time>
      </trkpt>
      <trkpt lat="45.25606" lon="3.87553">
        <ele>921.7</ele>
        <time>2018-06-07T07:30:55Z</time>
      </trkpt>
      <trkpt lat="45.256" lon="3.87564">
        <ele>922.5</ele>
        <time>2018-06-07T07:31:04Z</time>
      </trkpt>
      <trkpt lat="45.25594" lon="3.87575">
        <ele>923.5</ele>
        <time>2018-06-07T07:31:14Z</time>
      </trkpt>
      <trkpt lat="45.25585" lon="3.87581">
        <ele>924.7</ele>
        <time>2018-06-07T07:31:26Z</time>
      </trkpt>
      <trkpt lat="45.25576" lon="3.87578">
        <ele>925.5</ele>
        <time>2018-06-07T07:31:34Z</time>
      </trkpt>
      <trkpt lat="45.25568" lon="3.87572">
        <ele>926.7</ele>
        <time>2018-06-07T07:31:45Z</time>
      </trkpt>
      <trkpt lat="45.25558" lon="3.87569">
        <ele>928.2</ele>
        <time>2018-06-07T07:31:59Z</time>
      </trkpt>
      <trkpt lat="45.2555" lon="3.87563">
        <ele>929.3</ele>
        <time>2018-06-07T07:32:11Z</time>
      </trkpt>
      <trkpt lat="45.25546" lon="3.87551">
        <ele>930.6</ele>
        <time>2018-06-07T07:32:26Z</time>
      </trkpt>
      <trkpt lat="45.25543" lon="3.87539">
        <ele>934.3</ele>
        <time>2018-06-07T07:35:53Z</time>
      </trkpt>
      <trkpt lat="45.2555" lon="3.87533">
        <ele>933.8</ele>
        <time>2018-06-07T07:36:23Z</time>
      </trkpt>
      <trkpt lat="45.25548" lon="3.87545">
        <ele>934</ele>
        <time>2018-06-07T07:37:10Z</time>
      </trkpt>
      <trkpt lat="45.25557" lon="3.87539">
        <ele>932.6</ele>
        <time>2018-06-07T07:38:45Z</time>
      </trkpt>
      <trkpt lat="45.25564" lon="3.87532">
        <ele>933</ele>
        <time>2018-06-07T07:38:52Z</time>
      </trkpt>
      <trkpt lat="45.25572" lon="3.87525">
        <ele>933.3</ele>
        <time>2018-06-07T07:39:01Z</time>
      </trkpt>
      <trkpt lat="45.25581" lon="3.87519">
        <ele>933.5</ele>
        <time>2018-06-07T07:39:09Z</time>
      </trkpt>
      <trkpt lat="45.25589" lon="3.87512">
        <ele>933.4</ele>
        <time>2018-06-07T07:39:17Z</time>
      </trkpt>
      <trkpt lat="45.25599" lon="3.87508">
        <ele>933.1</ele>
        <time>2018-06-07T07:39:25Z</time>
      </trkpt>
      <trkpt lat="45.25608" lon="3.87505">
        <ele>932.9</ele>
        <time>2018-06-07T07:39:33Z</time>
      </trkpt>
      <trkpt lat="45.25617" lon="3.87505">
        <ele>932.8</ele>
        <time>2018-06-07T07:39:41Z</time>
      </trkpt>
      <trkpt lat="45.25626" lon="3.87506">
        <ele>932.7</ele>
        <time>2018-06-07T07:39:49Z</time>
      </trkpt>
      <trkpt lat="45.25636" lon="3.87506">
        <ele>932.7</ele>
        <time>2018-06-07T07:39:59Z</time>
      </trkpt>
      <trkpt lat="45.2564" lon="3.87494">
        <ele>932.7</ele>
        <time>2018-06-07T07:40:30Z</time>
      </trkpt>
      <trkpt lat="45.25644" lon="3.87481">
        <ele>933.1</ele>
        <time>2018-06-07T07:40:40Z</time>
      </trkpt>
      <trkpt lat="45.25647" lon="3.87468">
        <ele>934.1</ele>
        <time>2018-06-07T07:41:02Z</time>
      </trkpt>
      <trkpt lat="45.25651" lon="3.87456">
        <ele>934.6</ele>
        <time>2018-06-07T07:41:13Z</time>
      </trkpt>
      <trkpt lat="45.25655" lon="3.87443">
        <ele>935.1</ele>
        <time>2018-06-07T07:41:23Z</time>
      </trkpt>
      <trkpt lat="45.25657" lon="3.87431">
        <ele>935.6</ele>
        <time>2018-06-07T07:41:36Z</time>
      </trkpt>
      <trkpt lat="45.25659" lon="3.87417">
        <ele>937</ele>
        <time>2018-06-07T07:41:59Z</time>
      </trkpt>
      <trkpt lat="45.25662" lon="3.87404">
        <ele>937.3</ele>
        <time>2018-06-07T07:42:05Z</time>
      </trkpt>
      <trkpt lat="45.25664" lon="3.87391">
        <ele>937.5</ele>
        <time>2018-06-07T07:42:12Z</time>
      </trkpt>
      <trkpt lat="45.25666" lon="3.87377">
        <ele>937.7</ele>
        <time>2018-06-07T07:42:19Z</time>
      </trkpt>
      <trkpt lat="45.25668" lon="3.87363">
        <ele>937.8</ele>
        <time>2018-06-07T07:42:26Z</time>
      </trkpt>
      <trkpt lat="45.25668" lon="3.87349">
        <ele>937.9</ele>
        <time>2018-06-07T07:42:34Z</time>
      </trkpt>
      <trkpt lat="45.2567" lon="3.87335">
        <ele>938</ele>
        <time>2018-06-07T07:42:43Z</time>
      </trkpt>
      <trkpt lat="45.25671" lon="3.87322">
        <ele>938.2</ele>
        <time>2018-06-07T07:43:03Z</time>
      </trkpt>
      <trkpt lat="45.25674" lon="3.87308">
        <ele>938.2</ele>
        <time>2018-06-07T07:43:14Z</time>
      </trkpt>
      <trkpt lat="45.25675" lon="3.87294">
        <ele>938.2</ele>
        <time>2018-06-07T07:43:23Z</time>
      </trkpt>
      <trkpt lat="45.25677" lon="3.87281">
        <ele>938.2</ele>
        <time>2018-06-07T07:43:35Z</time>
      </trkpt>
      <trkpt lat="45.25679" lon="3.87268">
        <ele>938.2</ele>
        <time>2018-06-07T07:43:43Z</time>
      </trkpt>
      <trkpt lat="45.2568" lon="3.87255">
        <ele>938.2</ele>
        <time>2018-06-07T07:43:54Z</time>
      </trkpt>
      <trkpt lat="45.25682" lon="3.87242">
        <ele>938.2</ele>
        <time>2018-06-07T07:44:02Z</time>
      </trkpt>
      <trkpt lat="45.25684" lon="3.8723">
        <ele>938.2</ele>
        <time>2018-06-07T07:44:10Z</time>
      </trkpt>
      <trkpt lat="45.25687" lon="3.87217">
        <ele>938.2</ele>
        <time>2018-06-07T07:44:19Z</time>
      </trkpt>
      <trkpt lat="45.25688" lon="3.87202">
        <ele>938.2</ele>
        <time>2018-06-07T07:44:28Z</time>
      </trkpt>
      <trkpt lat="45.25691" lon="3.8719">
        <ele>938.2</ele>
        <time>2018-06-07T07:44:35Z</time>
      </trkpt>
      <trkpt lat="45.25697" lon="3.87179">
        <ele>938.2</ele>
        <time>2018-06-07T07:44:44Z</time>
      </trkpt>
      <trkpt lat="45.25705" lon="3.87171">
        <ele>938.2</ele>
        <time>2018-06-07T07:44:52Z</time>
      </trkpt>
      <trkpt lat="45.25712" lon="3.87163">
        <ele>938.1</ele>
        <time>2018-06-07T07:44:59Z</time>
      </trkpt>
      <trkpt lat="45.25719" lon="3.87153">
        <ele>938</ele>
        <time>2018-06-07T07:45:06Z</time>
      </trkpt>
      <trkpt lat="45.25725" lon="3.87144">
        <ele>937.7</ele>
        <time>2018-06-07T07:45:16Z</time>
      </trkpt>
      <trkpt lat="45.2573" lon="3.87131">
        <ele>937.5</ele>
        <time>2018-06-07T07:45:25Z</time>
      </trkpt>
      <trkpt lat="45.25733" lon="3.87118">
        <ele>937.4</ele>
        <time>2018-06-07T07:45:33Z</time>
      </trkpt>
      <trkpt lat="45.25736" lon="3.87105">
        <ele>937.3</ele>
        <time>2018-06-07T07:45:41Z</time>
      </trkpt>
      <trkpt lat="45.25737" lon="3.87092">
        <ele>937.1</ele>
        <time>2018-06-07T07:45:52Z</time>
      </trkpt>
      <trkpt lat="45.25737" lon="3.87078">
        <ele>936.8</ele>
        <time>2018-06-07T07:46:01Z</time>
      </trkpt>
      <trkpt lat="45.25743" lon="3.87067">
        <ele>936.4</ele>
        <time>2018-06-07T07:46:08Z</time>
      </trkpt>
      <trkpt lat="45.25747" lon="3.87056">
        <ele>935.8</ele>
        <time>2018-06-07T07:46:17Z</time>
      </trkpt>
      <trkpt lat="45.25749" lon="3.87043">
        <ele>935.5</ele>
        <time>2018-06-07T07:46:24Z</time>
      </trkpt>
      <trkpt lat="45.25754" lon="3.87031">
        <ele>935.1</ele>
        <time>2018-06-07T07:46:33Z</time>
      </trkpt>
      <trkpt lat="45.25759" lon="3.8702">
        <ele>934.7</ele>
        <time>2018-06-07T07:46:41Z</time>
      </trkpt>
      <trkpt lat="45.25764" lon="3.87009">
        <ele>934.3</ele>
        <time>2018-06-07T07:46:48Z</time>
      </trkpt>
      <trkpt lat="45.25769" lon="3.86996">
        <ele>934</ele>
        <time>2018-06-07T07:46:56Z</time>
      </trkpt>
      <trkpt lat="45.25773" lon="3.86984">
        <ele>933.5</ele>
        <time>2018-06-07T07:47:03Z</time>
      </trkpt>
      <trkpt lat="45.25778" lon="3.86972">
        <ele>932.9</ele>
        <time>2018-06-07T07:47:11Z</time>
      </trkpt>
      <trkpt lat="45.25781" lon="3.86959">
        <ele>932.5</ele>
        <time>2018-06-07T07:47:19Z</time>
      </trkpt>
      <trkpt lat="45.25787" lon="3.86948">
        <ele>932</ele>
        <time>2018-06-07T07:47:27Z</time>
      </trkpt>
      <trkpt lat="45.25793" lon="3.86937">
        <ele>931.3</ele>
        <time>2018-06-07T07:47:35Z</time>
      </trkpt>
      <trkpt lat="45.25798" lon="3.86925">
        <ele>930.7</ele>
        <time>2018-06-07T07:47:42Z</time>
      </trkpt>
      <trkpt lat="45.25803" lon="3.86914">
        <ele>930.1</ele>
        <time>2018-06-07T07:47:49Z</time>
      </trkpt>
      <trkpt lat="45.25808" lon="3.86903">
        <ele>929.3</ele>
        <time>2018-06-07T07:47:57Z</time>
      </trkpt>
      <trkpt lat="45.25812" lon="3.86889">
        <ele>928.6</ele>
        <time>2018-06-07T07:48:04Z</time>
      </trkpt>
      <trkpt lat="45.25817" lon="3.86878">
        <ele>928</ele>
        <time>2018-06-07T07:48:11Z</time>
      </trkpt>
      <trkpt lat="45.25821" lon="3.86866">
        <ele>927.4</ele>
        <time>2018-06-07T07:48:18Z</time>
      </trkpt>
      <trkpt lat="45.25826" lon="3.86855">
        <ele>926.9</ele>
        <time>2018-06-07T07:48:26Z</time>
      </trkpt>
      <trkpt lat="45.25831" lon="3.86844">
        <ele>926.3</ele>
        <time>2018-06-07T07:48:35Z</time>
      </trkpt>
      <trkpt lat="45.25837" lon="3.86833">
        <ele>925.3</ele>
        <time>2018-06-07T07:49:24Z</time>
      </trkpt>
      <trkpt lat="45.2584" lon="3.8682">
        <ele>925.2</ele>
        <time>2018-06-07T07:49:43Z</time>
      </trkpt>
      <trkpt lat="45.25845" lon="3.86807">
        <ele>925.1</ele>
        <time>2018-06-07T07:50:40Z</time>
      </trkpt>
      <trkpt lat="45.25852" lon="3.86797">
        <ele>925.1</ele>
        <time>2018-06-07T07:50:52Z</time>
      </trkpt>
      <trkpt lat="45.25857" lon="3.86787">
        <ele>925</ele>
        <time>2018-06-07T07:51:09Z</time>
      </trkpt>
      <trkpt lat="45.25865" lon="3.8678">
        <ele>925</ele>
        <time>2018-06-07T07:51:30Z</time>
      </trkpt>
      <trkpt lat="45.25869" lon="3.86768">
        <ele>924.9</ele>
        <time>2018-06-07T07:51:42Z</time>
      </trkpt>
      <trkpt lat="45.25875" lon="3.86757">
        <ele>924.9</ele>
        <time>2018-06-07T07:51:52Z</time>
      </trkpt>
      <trkpt lat="45.25881" lon="3.86747">
        <ele>924.9</ele>
        <time>2018-06-07T07:52:01Z</time>
      </trkpt>
      <trkpt lat="45.25886" lon="3.86735">
        <ele>924.9</ele>
        <time>2018-06-07T07:52:11Z</time>
      </trkpt>
      <trkpt lat="45.25891" lon="3.86724">
        <ele>924.9</ele>
        <time>2018-06-07T07:52:20Z</time>
      </trkpt>
      <trkpt lat="45.25897" lon="3.86714">
        <ele>924.7</ele>
        <time>2018-06-07T07:52:38Z</time>
      </trkpt>
      <trkpt lat="45.25905" lon="3.86704">
        <ele>924.6</ele>
        <time>2018-06-07T07:52:46Z</time>
      </trkpt>
      <trkpt lat="45.25912" lon="3.86694">
        <ele>924.5</ele>
        <time>2018-06-07T07:52:55Z</time>
      </trkpt>
      <trkpt lat="45.25917" lon="3.86683">
        <ele>924.1</ele>
        <time>2018-06-07T07:53:05Z</time>
      </trkpt>
      <trkpt lat="45.25923" lon="3.86672">
        <ele>923.5</ele>
        <time>2018-06-07T07:53:15Z</time>
      </trkpt>
      <trkpt lat="45.25927" lon="3.8666">
        <ele>923.1</ele>
        <time>2018-06-07T07:53:25Z</time>
      </trkpt>
      <trkpt lat="45.25933" lon="3.86651">
        <ele>922.9</ele>
        <time>2018-06-07T07:53:35Z</time>
      </trkpt>
      <trkpt lat="45.25942" lon="3.86644">
        <ele>922.7</ele>
        <time>2018-06-07T07:53:46Z</time>
      </trkpt>
      <trkpt lat="45.25951" lon="3.86639">
        <ele>922.5</ele>
        <time>2018-06-07T07:53:55Z</time>
      </trkpt>
      <trkpt lat="45.25961" lon="3.86635">
        <ele>922.4</ele>
        <time>2018-06-07T07:54:03Z</time>
      </trkpt>
      <trkpt lat="45.2597" lon="3.86635">
        <ele>922.3</ele>
        <time>2018-06-07T07:54:10Z</time>
      </trkpt>
      <trkpt lat="45.2598" lon="3.86634">
        <ele>922.3</ele>
        <time>2018-06-07T07:54:18Z</time>
      </trkpt>
      <trkpt lat="45.25989" lon="3.86634">
        <ele>922.4</ele>
        <time>2018-06-07T07:54:26Z</time>
      </trkpt>
      <trkpt lat="45.25999" lon="3.86635">
        <ele>922.6</ele>
        <time>2018-06-07T07:54:35Z</time>
      </trkpt>
      <trkpt lat="45.26008" lon="3.86635">
        <ele>922.8</ele>
        <time>2018-06-07T07:54:45Z</time>
      </trkpt>
      <trkpt lat="45.26018" lon="3.86634">
        <ele>923.1</ele>
        <time>2018-06-07T07:54:54Z</time>
      </trkpt>
      <trkpt lat="45.26027" lon="3.86628">
        <ele>923.2</ele>
        <time>2018-06-07T07:55:03Z</time>
      </trkpt>
      <trkpt lat="45.26034" lon="3.86619">
        <ele>923.3</ele>
        <time>2018-06-07T07:55:12Z</time>
      </trkpt>
      <trkpt lat="45.26041" lon="3.8661">
        <ele>923.4</ele>
        <time>2018-06-07T07:55:22Z</time>
      </trkpt>
      <trkpt lat="45.26048" lon="3.866">
        <ele>923.4</ele>
        <time>2018-06-07T07:55:30Z</time>
      </trkpt>
      <trkpt lat="45.26053" lon="3.86589">
        <ele>923.5</ele>
        <time>2018-06-07T07:55:40Z</time>
      </trkpt>
      <trkpt lat="45.26058" lon="3.86577">
        <ele>923.6</ele>
        <time>2018-06-07T07:55:50Z</time>
      </trkpt>
      <trkpt lat="45.26063" lon="3.86565">
        <ele>923.6</ele>
        <time>2018-06-07T07:55:59Z</time>
      </trkpt>
      <trkpt lat="45.26067" lon="3.86552">
        <ele>923.7</ele>
        <time>2018-06-07T07:56:08Z</time>
      </trkpt>
      <trkpt lat="45.26072" lon="3.8654">
        <ele>924</ele>
        <time>2018-06-07T07:56:17Z</time>
      </trkpt>
      <trkpt lat="45.26077" lon="3.86529">
        <ele>924.3</ele>
        <time>2018-06-07T07:56:26Z</time>
      </trkpt>
      <trkpt lat="45.26082" lon="3.86517">
        <ele>924.9</ele>
        <time>2018-06-07T07:56:35Z</time>
      </trkpt>
      <trkpt lat="45.26086" lon="3.86505">
        <ele>925.5</ele>
        <time>2018-06-07T07:56:44Z</time>
      </trkpt>
      <trkpt lat="45.2609" lon="3.86493">
        <ele>926.1</ele>
        <time>2018-06-07T07:56:53Z</time>
      </trkpt>
      <trkpt lat="45.26095" lon="3.86482">
        <ele>926.6</ele>
        <time>2018-06-07T07:57:03Z</time>
      </trkpt>
      <trkpt lat="45.261" lon="3.86471">
        <ele>927.2</ele>
        <time>2018-06-07T07:57:13Z</time>
      </trkpt>
      <trkpt lat="45.26105" lon="3.8646">
        <ele>927.7</ele>
        <time>2018-06-07T07:57:23Z</time>
      </trkpt>
      <trkpt lat="45.26109" lon="3.86449">
        <ele>928.5</ele>
        <time>2018-06-07T07:57:33Z</time>
      </trkpt>
      <trkpt lat="45.26114" lon="3.86437">
        <ele>929.5</ele>
        <time>2018-06-07T07:57:43Z</time>
      </trkpt>
      <trkpt lat="45.26117" lon="3.86424">
        <ele>930.5</ele>
        <time>2018-06-07T07:57:53Z</time>
      </trkpt>
      <trkpt lat="45.26122" lon="3.86413">
        <ele>931.3</ele>
        <time>2018-06-07T07:58:03Z</time>
      </trkpt>
      <trkpt lat="45.2613" lon="3.86406">
        <ele>932.7</ele>
        <time>2018-06-07T07:58:16Z</time>
      </trkpt>
      <trkpt lat="45.26139" lon="3.864">
        <ele>934.1</ele>
        <time>2018-06-07T07:58:31Z</time>
      </trkpt>
      <trkpt lat="45.26147" lon="3.86394">
        <ele>935.6</ele>
        <time>2018-06-07T08:00:42Z</time>
      </trkpt>
      <trkpt lat="45.26156" lon="3.86389">
        <ele>935.6</ele>
        <time>2018-06-07T08:00:52Z</time>
      </trkpt>
      <trkpt lat="45.26165" lon="3.86385">
        <ele>935.5</ele>
        <time>2018-06-07T08:01:02Z</time>
      </trkpt>
      <trkpt lat="45.26174" lon="3.86383">
        <ele>935.3</ele>
        <time>2018-06-07T08:01:12Z</time>
      </trkpt>
      <trkpt lat="45.26184" lon="3.86382">
        <ele>934.6</ele>
        <time>2018-06-07T08:01:22Z</time>
      </trkpt>
      <trkpt lat="45.26193" lon="3.86377">
        <ele>933.8</ele>
        <time>2018-06-07T08:01:31Z</time>
      </trkpt>
      <trkpt lat="45.26201" lon="3.8637">
        <ele>933.1</ele>
        <time>2018-06-07T08:01:40Z</time>
      </trkpt>
      <trkpt lat="45.26209" lon="3.8636">
        <ele>932.4</ele>
        <time>2018-06-07T08:01:49Z</time>
      </trkpt>
      <trkpt lat="45.26215" lon="3.86351">
        <ele>931.7</ele>
        <time>2018-06-07T08:01:58Z</time>
      </trkpt>
      <trkpt lat="45.26222" lon="3.86342">
        <ele>931.2</ele>
        <time>2018-06-07T08:02:07Z</time>
      </trkpt>
      <trkpt lat="45.2623" lon="3.86333">
        <ele>930.7</ele>
        <time>2018-06-07T08:02:16Z</time>
      </trkpt>
      <trkpt lat="45.26237" lon="3.86324">
        <ele>930.4</ele>
        <time>2018-06-07T08:02:24Z</time>
      </trkpt>
      <trkpt lat="45.26244" lon="3.86314">
        <ele>929.9</ele>
        <time>2018-06-07T08:02:32Z</time>
      </trkpt>
      <trkpt lat="45.26248" lon="3.86303">
        <ele>929.3</ele>
        <time>2018-06-07T08:02:40Z</time>
      </trkpt>
      <trkpt lat="45.26251" lon="3.8629">
        <ele>928.7</ele>
        <time>2018-06-07T08:02:47Z</time>
      </trkpt>
      <trkpt lat="45.26252" lon="3.86277">
        <ele>928</ele>
        <time>2018-06-07T08:02:55Z</time>
      </trkpt>
      <trkpt lat="45.2625" lon="3.86263">
        <ele>927.1</ele>
        <time>2018-06-07T08:03:04Z</time>
      </trkpt>
      <trkpt lat="45.26246" lon="3.8625">
        <ele>926.1</ele>
        <time>2018-06-07T08:03:13Z</time>
      </trkpt>
      <trkpt lat="45.26239" lon="3.8624">
        <ele>925</ele>
        <time>2018-06-07T08:03:21Z</time>
      </trkpt>
      <trkpt lat="45.26232" lon="3.8623">
        <ele>923.9</ele>
        <time>2018-06-07T08:03:29Z</time>
      </trkpt>
      <trkpt lat="45.26228" lon="3.86218">
        <ele>922.8</ele>
        <time>2018-06-07T08:03:37Z</time>
      </trkpt>
      <trkpt lat="45.26225" lon="3.86205">
        <ele>922</ele>
        <time>2018-06-07T08:03:45Z</time>
      </trkpt>
      <trkpt lat="45.26224" lon="3.86191">
        <ele>921.4</ele>
        <time>2018-06-07T08:03:52Z</time>
      </trkpt>
      <trkpt lat="45.26224" lon="3.86178">
        <ele>920.8</ele>
        <time>2018-06-07T08:04:00Z</time>
      </trkpt>
      <trkpt lat="45.26225" lon="3.86165">
        <ele>920.3</ele>
        <time>2018-06-07T08:04:10Z</time>
      </trkpt>
      <trkpt lat="45.26223" lon="3.86152">
        <ele>919.7</ele>
        <time>2018-06-07T08:04:24Z</time>
      </trkpt>
      <trkpt lat="45.26227" lon="3.86139">
        <ele>919.5</ele>
        <time>2018-06-07T08:04:33Z</time>
      </trkpt>
      <trkpt lat="45.26234" lon="3.86129">
        <ele>919.4</ele>
        <time>2018-06-07T08:04:44Z</time>
      </trkpt>
      <trkpt lat="45.26238" lon="3.86116">
        <ele>919.4</ele>
        <time>2018-06-07T08:04:53Z</time>
      </trkpt>
      <trkpt lat="45.26243" lon="3.86106">
        <ele>919.7</ele>
        <time>2018-06-07T08:05:01Z</time>
      </trkpt>
      <trkpt lat="45.26246" lon="3.86093">
        <ele>920.3</ele>
        <time>2018-06-07T08:05:08Z</time>
      </trkpt>
      <trkpt lat="45.26249" lon="3.8608">
        <ele>921.7</ele>
        <time>2018-06-07T08:05:20Z</time>
      </trkpt>
      <trkpt lat="45.26253" lon="3.86069">
        <ele>923</ele>
        <time>2018-06-07T08:05:31Z</time>
      </trkpt>
      <trkpt lat="45.26259" lon="3.86058">
        <ele>924</ele>
        <time>2018-06-07T08:05:41Z</time>
      </trkpt>
      <trkpt lat="45.26262" lon="3.86046">
        <ele>924.7</ele>
        <time>2018-06-07T08:05:50Z</time>
      </trkpt>
      <trkpt lat="45.26267" lon="3.86033">
        <ele>925.2</ele>
        <time>2018-06-07T08:05:59Z</time>
      </trkpt>
      <trkpt lat="45.2627" lon="3.86021">
        <ele>925.9</ele>
        <time>2018-06-07T08:06:07Z</time>
      </trkpt>
      <trkpt lat="45.26266" lon="3.86009">
        <ele>926.4</ele>
        <time>2018-06-07T08:06:16Z</time>
      </trkpt>
      <trkpt lat="45.26256" lon="3.86008">
        <ele>926.7</ele>
        <time>2018-06-07T08:06:25Z</time>
      </trkpt>
      <trkpt lat="45.26247" lon="3.86008">
        <ele>926.9</ele>
        <time>2018-06-07T08:06:34Z</time>
      </trkpt>
      <trkpt lat="45.26237" lon="3.8601">
        <ele>927</ele>
        <time>2018-06-07T08:06:43Z</time>
      </trkpt>
      <trkpt lat="45.2623" lon="3.86002">
        <ele>927</ele>
        <time>2018-06-07T08:06:52Z</time>
      </trkpt>
      <trkpt lat="45.2622" lon="3.85998">
        <ele>926.9</ele>
        <time>2018-06-07T08:07:00Z</time>
      </trkpt>
      <trkpt lat="45.26211" lon="3.85996">
        <ele>926.6</ele>
        <time>2018-06-07T08:07:09Z</time>
      </trkpt>
      <trkpt lat="45.26198" lon="3.85994">
        <ele>925.3</ele>
        <time>2018-06-07T08:11:23Z</time>
      </trkpt>
      <trkpt lat="45.2619" lon="3.85988">
        <ele>925.3</ele>
        <time>2018-06-07T08:11:34Z</time>
      </trkpt>
      <trkpt lat="45.26181" lon="3.85984">
        <ele>925.3</ele>
        <time>2018-06-07T08:11:44Z</time>
      </trkpt>
      <trkpt lat="45.26172" lon="3.85978">
        <ele>925.3</ele>
        <time>2018-06-07T08:11:53Z</time>
      </trkpt>
      <trkpt lat="45.26163" lon="3.85974">
        <ele>925.3</ele>
        <time>2018-06-07T08:12:01Z</time>
      </trkpt>
      <trkpt lat="45.26154" lon="3.85971">
        <ele>925.2</ele>
        <time>2018-06-07T08:12:12Z</time>
      </trkpt>
      <trkpt lat="45.26145" lon="3.85966">
        <ele>925</ele>
        <time>2018-06-07T08:12:21Z</time>
      </trkpt>
      <trkpt lat="45.26136" lon="3.85968">
        <ele>924.9</ele>
        <time>2018-06-07T08:12:32Z</time>
      </trkpt>
      <trkpt lat="45.26127" lon="3.85966">
        <ele>924.7</ele>
        <time>2018-06-07T08:12:43Z</time>
      </trkpt>
      <trkpt lat="45.26118" lon="3.85964">
        <ele>924.6</ele>
        <time>2018-06-07T08:12:51Z</time>
      </trkpt>
      <trkpt lat="45.26108" lon="3.85961">
        <ele>924.1</ele>
        <time>2018-06-07T08:13:00Z</time>
      </trkpt>
      <trkpt lat="45.26099" lon="3.85954">
        <ele>923.6</ele>
        <time>2018-06-07T08:13:07Z</time>
      </trkpt>
      <trkpt lat="45.2609" lon="3.8595">
        <ele>922.7</ele>
        <time>2018-06-07T08:13:16Z</time>
      </trkpt>
      <trkpt lat="45.26081" lon="3.85944">
        <ele>922</ele>
        <time>2018-06-07T08:13:27Z</time>
      </trkpt>
      <trkpt lat="45.26075" lon="3.85933">
        <ele>921.5</ele>
        <time>2018-06-07T08:13:36Z</time>
      </trkpt>
      <trkpt lat="45.26071" lon="3.85921">
        <ele>921.1</ele>
        <time>2018-06-07T08:13:43Z</time>
      </trkpt>
      <trkpt lat="45.26064" lon="3.85911">
        <ele>920.8</ele>
        <time>2018-06-07T08:13:49Z</time>
      </trkpt>
      <trkpt lat="45.26057" lon="3.85902">
        <ele>920.6</ele>
        <time>2018-06-07T08:13:56Z</time>
      </trkpt>
      <trkpt lat="45.26049" lon="3.85896">
        <ele>920.3</ele>
        <time>2018-06-07T08:14:05Z</time>
      </trkpt>
      <trkpt lat="45.26042" lon="3.85887">
        <ele>919.8</ele>
        <time>2018-06-07T08:14:14Z</time>
      </trkpt>
      <trkpt lat="45.26034" lon="3.8588">
        <ele>919.5</ele>
        <time>2018-06-07T08:14:22Z</time>
      </trkpt>
      <trkpt lat="45.26026" lon="3.85873">
        <ele>919</ele>
        <time>2018-06-07T08:14:30Z</time>
      </trkpt>
      <trkpt lat="45.26017" lon="3.8587">
        <ele>918.5</ele>
        <time>2018-06-07T08:14:38Z</time>
      </trkpt>
      <trkpt lat="45.26008" lon="3.85867">
        <ele>917.9</ele>
        <time>2018-06-07T08:14:46Z</time>
      </trkpt>
      <trkpt lat="45.25998" lon="3.85867">
        <ele>917.2</ele>
        <time>2018-06-07T08:14:56Z</time>
      </trkpt>
      <trkpt lat="45.25988" lon="3.85867">
        <ele>916.2</ele>
        <time>2018-06-07T08:15:06Z</time>
      </trkpt>
      <trkpt lat="45.25979" lon="3.85866">
        <ele>915.3</ele>
        <time>2018-06-07T08:15:14Z</time>
      </trkpt>
      <trkpt lat="45.2597" lon="3.85862">
        <ele>914.6</ele>
        <time>2018-06-07T08:15:21Z</time>
      </trkpt>
      <trkpt lat="45.2596" lon="3.85861">
        <ele>913.8</ele>
        <time>2018-06-07T08:15:29Z</time>
      </trkpt>
      <trkpt lat="45.25951" lon="3.85857">
        <ele>913.1</ele>
        <time>2018-06-07T08:15:36Z</time>
      </trkpt>
      <trkpt lat="45.25942" lon="3.85855">
        <ele>912</ele>
        <time>2018-06-07T08:15:44Z</time>
      </trkpt>
      <trkpt lat="45.25933" lon="3.85853">
        <ele>910.9</ele>
        <time>2018-06-07T08:15:53Z</time>
      </trkpt>
      <trkpt lat="45.25925" lon="3.85846">
        <ele>909.8</ele>
        <time>2018-06-07T08:16:02Z</time>
      </trkpt>
      <trkpt lat="45.25916" lon="3.85844">
        <ele>909</ele>
        <time>2018-06-07T08:16:10Z</time>
      </trkpt>
      <trkpt lat="45.25906" lon="3.85842">
        <ele>908.1</ele>
        <time>2018-06-07T08:16:17Z</time>
      </trkpt>
      <trkpt lat="45.25897" lon="3.8584">
        <ele>907.3</ele>
        <time>2018-06-07T08:16:24Z</time>
      </trkpt>
      <trkpt lat="45.25888" lon="3.8584">
        <ele>906.6</ele>
        <time>2018-06-07T08:16:32Z</time>
      </trkpt>
      <trkpt lat="45.25878" lon="3.85839">
        <ele>905.9</ele>
        <time>2018-06-07T08:16:40Z</time>
      </trkpt>
      <trkpt lat="45.25869" lon="3.85838">
        <ele>905.3</ele>
        <time>2018-06-07T08:16:48Z</time>
      </trkpt>
      <trkpt lat="45.2586" lon="3.85835">
        <ele>904.8</ele>
        <time>2018-06-07T08:16:56Z</time>
      </trkpt>
      <trkpt lat="45.25851" lon="3.85834">
        <ele>904.2</ele>
        <time>2018-06-07T08:17:04Z</time>
      </trkpt>
      <trkpt lat="45.2584" lon="3.85834">
        <ele>903.5</ele>
        <time>2018-06-07T08:17:12Z</time>
      </trkpt>
      <trkpt lat="45.25831" lon="3.85835">
        <ele>902.7</ele>
        <time>2018-06-07T08:17:19Z</time>
      </trkpt>
      <trkpt lat="45.25822" lon="3.85837">
        <ele>902.1</ele>
        <time>2018-06-07T08:17:26Z</time>
      </trkpt>
      <trkpt lat="45.25813" lon="3.85842">
        <ele>901.1</ele>
        <time>2018-06-07T08:17:36Z</time>
      </trkpt>
      <trkpt lat="45.25803" lon="3.8584">
        <ele>900.3</ele>
        <time>2018-06-07T08:17:48Z</time>
      </trkpt>
      <trkpt lat="45.25806" lon="3.85852">
        <ele>898.7</ele>
        <time>2018-06-07T08:18:42Z</time>
      </trkpt>
      <trkpt lat="45.25803" lon="3.85867">
        <ele>898.8</ele>
        <time>2018-06-07T08:18:50Z</time>
      </trkpt>
      <trkpt lat="45.25801" lon="3.8588">
        <ele>898.5</ele>
        <time>2018-06-07T08:18:56Z</time>
      </trkpt>
      <trkpt lat="45.25799" lon="3.85894">
        <ele>898</ele>
        <time>2018-06-07T08:19:03Z</time>
      </trkpt>
      <trkpt lat="45.25793" lon="3.85905">
        <ele>897.2</ele>
        <time>2018-06-07T08:19:11Z</time>
      </trkpt>
      <trkpt lat="45.25783" lon="3.8591">
        <ele>896.1</ele>
        <time>2018-06-07T08:19:19Z</time>
      </trkpt>
      <trkpt lat="45.25774" lon="3.85911">
        <ele>895.2</ele>
        <time>2018-06-07T08:19:27Z</time>
      </trkpt>
      <trkpt lat="45.25764" lon="3.85914">
        <ele>894.3</ele>
        <time>2018-06-07T08:19:37Z</time>
      </trkpt>
      <trkpt lat="45.25754" lon="3.85916">
        <ele>893.6</ele>
        <time>2018-06-07T08:19:47Z</time>
      </trkpt>
      <trkpt lat="45.25745" lon="3.85917">
        <ele>893</ele>
        <time>2018-06-07T08:19:57Z</time>
      </trkpt>
      <trkpt lat="45.25735" lon="3.85918">
        <ele>892.6</ele>
        <time>2018-06-07T08:20:06Z</time>
      </trkpt>
      <trkpt lat="45.25726" lon="3.85921">
        <ele>891.6</ele>
        <time>2018-06-07T08:21:44Z</time>
      </trkpt>
      <trkpt lat="45.25718" lon="3.85927">
        <ele>891.6</ele>
        <time>2018-06-07T08:21:55Z</time>
      </trkpt>
      <trkpt lat="45.2571" lon="3.85934">
        <ele>891.6</ele>
        <time>2018-06-07T08:22:03Z</time>
      </trkpt>
      <trkpt lat="45.25701" lon="3.8594">
        <ele>891.6</ele>
        <time>2018-06-07T08:22:13Z</time>
      </trkpt>
      <trkpt lat="45.25692" lon="3.85951">
        <ele>892.4</ele>
        <time>2018-06-07T08:22:52Z</time>
      </trkpt>
      <trkpt lat="45.25687" lon="3.85961">
        <ele>892.5</ele>
        <time>2018-06-07T08:23:03Z</time>
      </trkpt>
      <trkpt lat="45.25678" lon="3.85966">
        <ele>892.6</ele>
        <time>2018-06-07T08:23:11Z</time>
      </trkpt>
      <trkpt lat="45.2567" lon="3.85974">
        <ele>892.6</ele>
        <time>2018-06-07T08:23:19Z</time>
      </trkpt>
      <trkpt lat="45.2566" lon="3.85972">
        <ele>893</ele>
        <time>2018-06-07T08:23:30Z</time>
      </trkpt>
      <trkpt lat="45.25655" lon="3.85962">
        <ele>893.3</ele>
        <time>2018-06-07T08:23:41Z</time>
      </trkpt>
      <trkpt lat="45.25651" lon="3.8595">
        <ele>893.7</ele>
        <time>2018-06-07T08:23:51Z</time>
      </trkpt>
      <trkpt lat="45.25648" lon="3.85938">
        <ele>894.1</ele>
        <time>2018-06-07T08:24:01Z</time>
      </trkpt>
      <trkpt lat="45.25644" lon="3.85925">
        <ele>894.6</ele>
        <time>2018-06-07T08:24:12Z</time>
      </trkpt>
      <trkpt lat="45.25641" lon="3.85912">
        <ele>895.2</ele>
        <time>2018-06-07T08:24:21Z</time>
      </trkpt>
      <trkpt lat="45.25639" lon="3.85899">
        <ele>895.9</ele>
        <time>2018-06-07T08:24:30Z</time>
      </trkpt>
      <trkpt lat="45.25637" lon="3.85886">
        <ele>896.4</ele>
        <time>2018-06-07T08:24:39Z</time>
      </trkpt>
      <trkpt lat="45.25634" lon="3.85873">
        <ele>896.8</ele>
        <time>2018-06-07T08:24:50Z</time>
      </trkpt>
      <trkpt lat="45.25631" lon="3.85861">
        <ele>897</ele>
        <time>2018-06-07T08:24:59Z</time>
      </trkpt>
      <trkpt lat="45.25625" lon="3.85851">
        <ele>897.3</ele>
        <time>2018-06-07T08:25:11Z</time>
      </trkpt>
      <trkpt lat="45.25619" lon="3.8584">
        <ele>897.4</ele>
        <time>2018-06-07T08:25:19Z</time>
      </trkpt>
      <trkpt lat="45.25612" lon="3.85831">
        <ele>897.4</ele>
        <time>2018-06-07T08:25:28Z</time>
      </trkpt>
      <trkpt lat="45.25605" lon="3.85821">
        <ele>897.5</ele>
        <time>2018-06-07T08:25:38Z</time>
      </trkpt>
      <trkpt lat="45.25599" lon="3.85812">
        <ele>897.5</ele>
        <time>2018-06-07T08:25:46Z</time>
      </trkpt>
      <trkpt lat="45.25592" lon="3.85803">
        <ele>897.5</ele>
        <time>2018-06-07T08:25:54Z</time>
      </trkpt>
      <trkpt lat="45.25584" lon="3.85794">
        <ele>897.5</ele>
        <time>2018-06-07T08:26:03Z</time>
      </trkpt>
      <trkpt lat="45.25578" lon="3.85784">
        <ele>897.5</ele>
        <time>2018-06-07T08:26:11Z</time>
      </trkpt>
      <trkpt lat="45.2557" lon="3.85776">
        <ele>897.5</ele>
        <time>2018-06-07T08:26:20Z</time>
      </trkpt>
      <trkpt lat="45.25563" lon="3.85767">
        <ele>897.5</ele>
        <time>2018-06-07T08:26:28Z</time>
      </trkpt>
      <trkpt lat="45.25556" lon="3.85758">
        <ele>897.5</ele>
        <time>2018-06-07T08:26:37Z</time>
      </trkpt>
      <trkpt lat="45.25548" lon="3.8575">
        <ele>897.5</ele>
        <time>2018-06-07T08:26:46Z</time>
      </trkpt>
      <trkpt lat="45.2554" lon="3.85743">
        <ele>897.5</ele>
        <time>2018-06-07T08:26:54Z</time>
      </trkpt>
      <trkpt lat="45.25533" lon="3.85734">
        <ele>897.5</ele>
        <time>2018-06-07T08:27:02Z</time>
      </trkpt>
      <trkpt lat="45.25526" lon="3.85726">
        <ele>897.5</ele>
        <time>2018-06-07T08:27:10Z</time>
      </trkpt>
      <trkpt lat="45.25518" lon="3.85717">
        <ele>897.5</ele>
        <time>2018-06-07T08:27:18Z</time>
      </trkpt>
      <trkpt lat="45.2551" lon="3.85709">
        <ele>897.5</ele>
        <time>2018-06-07T08:27:26Z</time>
      </trkpt>
      <trkpt lat="45.25503" lon="3.857">
        <ele>897.5</ele>
        <time>2018-06-07T08:27:34Z</time>
      </trkpt>
      <trkpt lat="45.25495" lon="3.85692">
        <ele>897.5</ele>
        <time>2018-06-07T08:27:42Z</time>
      </trkpt>
      <trkpt lat="45.25488" lon="3.85684">
        <ele>897.5</ele>
        <time>2018-06-07T08:27:51Z</time>
      </trkpt>
      <trkpt lat="45.2548" lon="3.85677">
        <ele>897.5</ele>
        <time>2018-06-07T08:27:59Z</time>
      </trkpt>
      <trkpt lat="45.25471" lon="3.85671">
        <ele>897.4</ele>
        <time>2018-06-07T08:28:10Z</time>
      </trkpt>
      <trkpt lat="45.25461" lon="3.85666">
        <ele>897.1</ele>
        <time>2018-06-07T08:28:20Z</time>
      </trkpt>
      <trkpt lat="45.25453" lon="3.85661">
        <ele>897</ele>
        <time>2018-06-07T08:28:27Z</time>
      </trkpt>
      <trkpt lat="45.25444" lon="3.85656">
        <ele>896.9</ele>
        <time>2018-06-07T08:28:36Z</time>
      </trkpt>
      <trkpt lat="45.25435" lon="3.85655">
        <ele>896.8</ele>
        <time>2018-06-07T08:28:46Z</time>
      </trkpt>
      <trkpt lat="45.25429" lon="3.85665">
        <ele>896.7</ele>
        <time>2018-06-07T08:29:01Z</time>
      </trkpt>
      <trkpt lat="45.2543" lon="3.85679">
        <ele>896.7</ele>
        <time>2018-06-07T08:29:10Z</time>
      </trkpt>
      <trkpt lat="45.25427" lon="3.85692">
        <ele>896.6</ele>
        <time>2018-06-07T08:29:19Z</time>
      </trkpt>
      <trkpt lat="45.25426" lon="3.85706">
        <ele>896.7</ele>
        <time>2018-06-07T08:29:28Z</time>
      </trkpt>
      <trkpt lat="45.25425" lon="3.85719">
        <ele>896.9</ele>
        <time>2018-06-07T08:29:37Z</time>
      </trkpt>
      <trkpt lat="45.25424" lon="3.85733">
        <ele>897.2</ele>
        <time>2018-06-07T08:29:46Z</time>
      </trkpt>
      <trkpt lat="45.25423" lon="3.85746">
        <ele>897.8</ele>
        <time>2018-06-07T08:29:55Z</time>
      </trkpt>
      <trkpt lat="45.25422" lon="3.8576">
        <ele>898.4</ele>
        <time>2018-06-07T08:30:04Z</time>
      </trkpt>
      <trkpt lat="45.25421" lon="3.85773">
        <ele>899.1</ele>
        <time>2018-06-07T08:30:13Z</time>
      </trkpt>
      <trkpt lat="45.2542" lon="3.85787">
        <ele>899.8</ele>
        <time>2018-06-07T08:30:23Z</time>
      </trkpt>
      <trkpt lat="45.25419" lon="3.85801">
        <ele>900.5</ele>
        <time>2018-06-07T08:30:33Z</time>
      </trkpt>
      <trkpt lat="45.25418" lon="3.85814">
        <ele>901.1</ele>
        <time>2018-06-07T08:30:42Z</time>
      </trkpt>
      <trkpt lat="45.25417" lon="3.85828">
        <ele>901.6</ele>
        <time>2018-06-07T08:30:51Z</time>
      </trkpt>
      <trkpt lat="45.25416" lon="3.8584">
        <ele>902.1</ele>
        <time>2018-06-07T08:30:59Z</time>
      </trkpt>
      <trkpt lat="45.25415" lon="3.85854">
        <ele>902.6</ele>
        <time>2018-06-07T08:31:08Z</time>
      </trkpt>
      <trkpt lat="45.25413" lon="3.85868">
        <ele>903.2</ele>
        <time>2018-06-07T08:31:17Z</time>
      </trkpt>
      <trkpt lat="45.25411" lon="3.8588">
        <ele>903.6</ele>
        <time>2018-06-07T08:31:25Z</time>
      </trkpt>
      <trkpt lat="45.25409" lon="3.85893">
        <ele>904</ele>
        <time>2018-06-07T08:31:34Z</time>
      </trkpt>
      <trkpt lat="45.25407" lon="3.85907">
        <ele>904.5</ele>
        <time>2018-06-07T08:31:43Z</time>
      </trkpt>
      <trkpt lat="45.25405" lon="3.85919">
        <ele>904.9</ele>
        <time>2018-06-07T08:31:51Z</time>
      </trkpt>
      <trkpt lat="45.25403" lon="3.85932">
        <ele>905.4</ele>
        <time>2018-06-07T08:31:59Z</time>
      </trkpt>
      <trkpt lat="45.25402" lon="3.85947">
        <ele>905.8</ele>
        <time>2018-06-07T08:32:08Z</time>
      </trkpt>
      <trkpt lat="45.254" lon="3.8596">
        <ele>906.2</ele>
        <time>2018-06-07T08:32:16Z</time>
      </trkpt>
      <trkpt lat="45.254" lon="3.85974">
        <ele>906.7</ele>
        <time>2018-06-07T08:32:25Z</time>
      </trkpt>
      <trkpt lat="45.25398" lon="3.85987">
        <ele>907.3</ele>
        <time>2018-06-07T08:32:33Z</time>
      </trkpt>
      <trkpt lat="45.25398" lon="3.86">
        <ele>907.8</ele>
        <time>2018-06-07T08:32:41Z</time>
      </trkpt>
      <trkpt lat="45.25398" lon="3.86013">
        <ele>908.2</ele>
        <time>2018-06-07T08:32:49Z</time>
      </trkpt>
      <trkpt lat="45.25398" lon="3.86026">
        <ele>908.7</ele>
        <time>2018-06-07T08:32:57Z</time>
      </trkpt>
      <trkpt lat="45.25399" lon="3.8604">
        <ele>909</ele>
        <time>2018-06-07T08:33:06Z</time>
      </trkpt>
      <trkpt lat="45.254" lon="3.86055">
        <ele>909.3</ele>
        <time>2018-06-07T08:33:14Z</time>
      </trkpt>
      <trkpt lat="45.254" lon="3.86068">
        <ele>909.4</ele>
        <time>2018-06-07T08:33:22Z</time>
      </trkpt>
      <trkpt lat="45.25399" lon="3.86082">
        <ele>909.4</ele>
        <time>2018-06-07T08:33:30Z</time>
      </trkpt>
      <trkpt lat="45.25398" lon="3.86095">
        <ele>909.3</ele>
        <time>2018-06-07T08:33:38Z</time>
      </trkpt>
      <trkpt lat="45.25397" lon="3.86109">
        <ele>909.1</ele>
        <time>2018-06-07T08:33:47Z</time>
      </trkpt>
      <trkpt lat="45.25395" lon="3.86122">
        <ele>908.8</ele>
        <time>2018-06-07T08:33:55Z</time>
      </trkpt>
      <trkpt lat="45.25392" lon="3.86135">
        <ele>908.6</ele>
        <time>2018-06-07T08:34:02Z</time>
      </trkpt>
      <trkpt lat="45.2539" lon="3.86148">
        <ele>908.3</ele>
        <time>2018-06-07T08:34:09Z</time>
      </trkpt>
      <trkpt lat="45.25389" lon="3.86163">
        <ele>908</ele>
        <time>2018-06-07T08:34:16Z</time>
      </trkpt>
      <trkpt lat="45.25387" lon="3.86177">
        <ele>907.8</ele>
        <time>2018-06-07T08:34:24Z</time>
      </trkpt>
      <trkpt lat="45.25386" lon="3.86191">
        <ele>907.6</ele>
        <time>2018-06-07T08:34:32Z</time>
      </trkpt>
      <trkpt lat="45.25385" lon="3.86204">
        <ele>907.3</ele>
        <time>2018-06-07T08:34:40Z</time>
      </trkpt>
      <trkpt lat="45.25384" lon="3.86218">
        <ele>907</ele>
        <time>2018-06-07T08:34:49Z</time>
      </trkpt>
      <trkpt lat="45.25382" lon="3.86231">
        <ele>906.8</ele>
        <time>2018-06-07T08:34:58Z</time>
      </trkpt>
      <trkpt lat="45.2538" lon="3.86244">
        <ele>906.7</ele>
        <time>2018-06-07T08:35:07Z</time>
      </trkpt>
      <trkpt lat="45.25378" lon="3.86257">
        <ele>906.5</ele>
        <time>2018-06-07T08:35:15Z</time>
      </trkpt>
      <trkpt lat="45.25376" lon="3.8627">
        <ele>906.4</ele>
        <time>2018-06-07T08:35:23Z</time>
      </trkpt>
      <trkpt lat="45.25373" lon="3.86284">
        <ele>906.2</ele>
        <time>2018-06-07T08:35:32Z</time>
      </trkpt>
      <trkpt lat="45.25371" lon="3.86297">
        <ele>906.1</ele>
        <time>2018-06-07T08:35:40Z</time>
      </trkpt>
      <trkpt lat="45.25368" lon="3.86309">
        <ele>906</ele>
        <time>2018-06-07T08:35:47Z</time>
      </trkpt>
      <trkpt lat="45.25366" lon="3.86323">
        <ele>906</ele>
        <time>2018-06-07T08:35:56Z</time>
      </trkpt>
      <trkpt lat="45.25364" lon="3.86336">
        <ele>906</ele>
        <time>2018-06-07T08:36:04Z</time>
      </trkpt>
      <trkpt lat="45.25362" lon="3.8635">
        <ele>906</ele>
        <time>2018-06-07T08:36:13Z</time>
      </trkpt>
      <trkpt lat="45.2536" lon="3.86363">
        <ele>906.1</ele>
        <time>2018-06-07T08:36:22Z</time>
      </trkpt>
      <trkpt lat="45.25357" lon="3.86376">
        <ele>907</ele>
        <time>2018-06-07T08:36:33Z</time>
      </trkpt>
      <trkpt lat="45.25348" lon="3.86384">
        <ele>909.4</ele>
        <time>2018-06-07T08:37:24Z</time>
      </trkpt>
      <trkpt lat="45.25339" lon="3.86385">
        <ele>909.8</ele>
        <time>2018-06-07T08:38:37Z</time>
      </trkpt>
      <trkpt lat="45.2533" lon="3.86386">
        <ele>909.8</ele>
        <time>2018-06-07T08:38:46Z</time>
      </trkpt>
      <trkpt lat="45.25321" lon="3.86385">
        <ele>910.1</ele>
        <time>2018-06-07T08:38:55Z</time>
      </trkpt>
      <trkpt lat="45.25312" lon="3.86385">
        <ele>910.3</ele>
        <time>2018-06-07T08:39:04Z</time>
      </trkpt>
      <trkpt lat="45.25303" lon="3.86382">
        <ele>910.7</ele>
        <time>2018-06-07T08:39:12Z</time>
      </trkpt>
      <trkpt lat="45.25292" lon="3.86382">
        <ele>911.1</ele>
        <time>2018-06-07T08:39:21Z</time>
      </trkpt>
      <trkpt lat="45.25283" lon="3.86382">
        <ele>911.5</ele>
        <time>2018-06-07T08:39:30Z</time>
      </trkpt>
      <trkpt lat="45.25274" lon="3.86382">
        <ele>912</ele>
        <time>2018-06-07T08:39:39Z</time>
      </trkpt>
      <trkpt lat="45.25264" lon="3.86382">
        <ele>912.4</ele>
        <time>2018-06-07T08:39:48Z</time>
      </trkpt>
      <trkpt lat="45.25255" lon="3.86383">
        <ele>912.8</ele>
        <time>2018-06-07T08:39:57Z</time>
      </trkpt>
      <trkpt lat="45.25245" lon="3.86383">
        <ele>913.2</ele>
        <time>2018-06-07T08:40:06Z</time>
      </trkpt>
      <trkpt lat="45.25236" lon="3.86384">
        <ele>913.5</ele>
        <time>2018-06-07T08:40:17Z</time>
      </trkpt>
      <trkpt lat="45.25227" lon="3.86383">
        <ele>913.7</ele>
        <time>2018-06-07T08:40:25Z</time>
      </trkpt>
      <trkpt lat="45.25218" lon="3.86379">
        <ele>913.8</ele>
        <time>2018-06-07T08:40:33Z</time>
      </trkpt>
      <trkpt lat="45.25208" lon="3.86379">
        <ele>914</ele>
        <time>2018-06-07T08:40:44Z</time>
      </trkpt>
      <trkpt lat="45.25199" lon="3.86383">
        <ele>914.1</ele>
        <time>2018-06-07T08:40:55Z</time>
      </trkpt>
      <trkpt lat="45.25189" lon="3.86381">
        <ele>914.3</ele>
        <time>2018-06-07T08:41:03Z</time>
      </trkpt>
      <trkpt lat="45.25179" lon="3.86382">
        <ele>914.3</ele>
        <time>2018-06-07T08:41:11Z</time>
      </trkpt>
      <trkpt lat="45.2517" lon="3.86383">
        <ele>914.4</ele>
        <time>2018-06-07T08:41:21Z</time>
      </trkpt>
      <trkpt lat="45.25161" lon="3.86383">
        <ele>914.4</ele>
        <time>2018-06-07T08:41:28Z</time>
      </trkpt>
      <trkpt lat="45.25151" lon="3.86384">
        <ele>914.4</ele>
        <time>2018-06-07T08:41:35Z</time>
      </trkpt>
      <trkpt lat="45.25142" lon="3.86383">
        <ele>914.4</ele>
        <time>2018-06-07T08:41:41Z</time>
      </trkpt>
      <trkpt lat="45.25132" lon="3.86384">
        <ele>914.4</ele>
        <time>2018-06-07T08:41:48Z</time>
      </trkpt>
      <trkpt lat="45.25123" lon="3.86385">
        <ele>914.4</ele>
        <time>2018-06-07T08:41:56Z</time>
      </trkpt>
      <trkpt lat="45.25114" lon="3.86384">
        <ele>914.5</ele>
        <time>2018-06-07T08:42:03Z</time>
      </trkpt>
      <trkpt lat="45.25105" lon="3.86381">
        <ele>914.6</ele>
        <time>2018-06-07T08:42:08Z</time>
      </trkpt>
      <trkpt lat="45.25095" lon="3.86379">
        <ele>914.8</ele>
        <time>2018-06-07T08:42:14Z</time>
      </trkpt>
      <trkpt lat="45.25085" lon="3.8638">
        <ele>915</ele>
        <time>2018-06-07T08:42:20Z</time>
      </trkpt>
      <trkpt lat="45.25074" lon="3.86379">
        <ele>915.2</ele>
        <time>2018-06-07T08:42:26Z</time>
      </trkpt>
      <trkpt lat="45.25065" lon="3.86382">
        <ele>915.3</ele>
        <time>2018-06-07T08:42:32Z</time>
      </trkpt>
      <trkpt lat="45.25055" lon="3.86383">
        <ele>915.5</ele>
        <time>2018-06-07T08:42:40Z</time>
      </trkpt>
      <trkpt lat="45.25046" lon="3.86389">
        <ele>915.6</ele>
        <time>2018-06-07T08:42:48Z</time>
      </trkpt>
      <trkpt lat="45.25037" lon="3.86395">
        <ele>915.7</ele>
        <time>2018-06-07T08:42:56Z</time>
      </trkpt>
      <trkpt lat="45.25029" lon="3.86401">
        <ele>915.7</ele>
        <time>2018-06-07T08:43:05Z</time>
      </trkpt>
      <trkpt lat="45.25021" lon="3.86407">
        <ele>915.7</ele>
        <time>2018-06-07T08:43:14Z</time>
      </trkpt>
      <trkpt lat="45.25013" lon="3.86414">
        <ele>915.8</ele>
        <time>2018-06-07T08:43:23Z</time>
      </trkpt>
      <trkpt lat="45.25004" lon="3.86421">
        <ele>915.8</ele>
        <time>2018-06-07T08:43:31Z</time>
      </trkpt>
      <trkpt lat="45.24996" lon="3.86429">
        <ele>915.8</ele>
        <time>2018-06-07T08:43:40Z</time>
      </trkpt>
      <trkpt lat="45.24987" lon="3.86434">
        <ele>915.8</ele>
        <time>2018-06-07T08:43:48Z</time>
      </trkpt>
      <trkpt lat="45.24979" lon="3.86441">
        <ele>915.7</ele>
        <time>2018-06-07T08:43:58Z</time>
      </trkpt>
      <trkpt lat="45.24969" lon="3.86445">
        <ele>915.7</ele>
        <time>2018-06-07T08:44:07Z</time>
      </trkpt>
      <trkpt lat="45.24961" lon="3.8645">
        <ele>915.6</ele>
        <time>2018-06-07T08:44:15Z</time>
      </trkpt>
      <trkpt lat="45.24953" lon="3.86458">
        <ele>915.6</ele>
        <time>2018-06-07T08:44:26Z</time>
      </trkpt>
      <trkpt lat="45.24944" lon="3.86463">
        <ele>915.6</ele>
        <time>2018-06-07T08:44:34Z</time>
      </trkpt>
      <trkpt lat="45.24935" lon="3.86465">
        <ele>915.6</ele>
        <time>2018-06-07T08:44:41Z</time>
      </trkpt>
      <trkpt lat="45.24925" lon="3.86467">
        <ele>915.6</ele>
        <time>2018-06-07T08:44:49Z</time>
      </trkpt>
      <trkpt lat="45.24916" lon="3.8647">
        <ele>915.6</ele>
        <time>2018-06-07T08:44:56Z</time>
      </trkpt>
      <trkpt lat="45.24907" lon="3.86472">
        <ele>915.7</ele>
        <time>2018-06-07T08:45:03Z</time>
      </trkpt>
      <trkpt lat="45.24897" lon="3.86473">
        <ele>915.8</ele>
        <time>2018-06-07T08:45:11Z</time>
      </trkpt>
      <trkpt lat="45.24888" lon="3.86473">
        <ele>916.2</ele>
        <time>2018-06-07T08:45:19Z</time>
      </trkpt>
      <trkpt lat="45.24879" lon="3.86473">
        <ele>916.5</ele>
        <time>2018-06-07T08:45:28Z</time>
      </trkpt>
      <trkpt lat="45.24869" lon="3.86471">
        <ele>916.8</ele>
        <time>2018-06-07T08:45:38Z</time>
      </trkpt>
      <trkpt lat="45.24859" lon="3.8647">
        <ele>917.2</ele>
        <time>2018-06-07T08:45:48Z</time>
      </trkpt>
      <trkpt lat="45.2485" lon="3.86467">
        <ele>917.5</ele>
        <time>2018-06-07T08:45:57Z</time>
      </trkpt>
      <trkpt lat="45.24841" lon="3.86467">
        <ele>918</ele>
        <time>2018-06-07T08:46:06Z</time>
      </trkpt>
      <trkpt lat="45.24832" lon="3.86467">
        <ele>918.4</ele>
        <time>2018-06-07T08:46:14Z</time>
      </trkpt>
      <trkpt lat="45.24823" lon="3.86463">
        <ele>919</ele>
        <time>2018-06-07T08:46:22Z</time>
      </trkpt>
      <trkpt lat="45.24813" lon="3.86466">
        <ele>919.8</ele>
        <time>2018-06-07T08:46:32Z</time>
      </trkpt>
      <trkpt lat="45.24804" lon="3.86469">
        <ele>920.5</ele>
        <time>2018-06-07T08:46:40Z</time>
      </trkpt>
      <trkpt lat="45.24795" lon="3.86473">
        <ele>921</ele>
        <time>2018-06-07T08:46:48Z</time>
      </trkpt>
      <trkpt lat="45.24789" lon="3.86462">
        <ele>922.6</ele>
        <time>2018-06-07T08:50:48Z</time>
      </trkpt>
      <trkpt lat="45.2479" lon="3.86449">
        <ele>922.6</ele>
        <time>2018-06-07T08:50:55Z</time>
      </trkpt>
      <trkpt lat="45.24787" lon="3.86436">
        <ele>922.6</ele>
        <time>2018-06-07T08:51:03Z</time>
      </trkpt>
      <trkpt lat="45.24785" lon="3.86424">
        <ele>922.5</ele>
        <time>2018-06-07T08:51:10Z</time>
      </trkpt>
      <trkpt lat="45.24781" lon="3.86412">
        <ele>922.2</ele>
        <time>2018-06-07T08:51:18Z</time>
      </trkpt>
      <trkpt lat="45.24778" lon="3.864">
        <ele>921.8</ele>
        <time>2018-06-07T08:51:25Z</time>
      </trkpt>
      <trkpt lat="45.24775" lon="3.86387">
        <ele>921.5</ele>
        <time>2018-06-07T08:51:34Z</time>
      </trkpt>
      <trkpt lat="45.24771" lon="3.86374">
        <ele>921.4</ele>
        <time>2018-06-07T08:51:42Z</time>
      </trkpt>
      <trkpt lat="45.24762" lon="3.86366">
        <ele>921.4</ele>
        <time>2018-06-07T08:51:50Z</time>
      </trkpt>
      <trkpt lat="45.24753" lon="3.86363">
        <ele>921.5</ele>
        <time>2018-06-07T08:51:56Z</time>
      </trkpt>
      <trkpt lat="45.24743" lon="3.86361">
        <ele>921.8</ele>
        <time>2018-06-07T08:52:04Z</time>
      </trkpt>
      <trkpt lat="45.24733" lon="3.86358">
        <ele>922.2</ele>
        <time>2018-06-07T08:52:12Z</time>
      </trkpt>
      <trkpt lat="45.24723" lon="3.86354">
        <ele>922.5</ele>
        <time>2018-06-07T08:52:20Z</time>
      </trkpt>
      <trkpt lat="45.24716" lon="3.86347">
        <ele>922.8</ele>
        <time>2018-06-07T08:52:28Z</time>
      </trkpt>
      <trkpt lat="45.24708" lon="3.8634">
        <ele>923.1</ele>
        <time>2018-06-07T08:52:36Z</time>
      </trkpt>
      <trkpt lat="45.24699" lon="3.86335">
        <ele>923.3</ele>
        <time>2018-06-07T08:52:44Z</time>
      </trkpt>
      <trkpt lat="45.2469" lon="3.8633">
        <ele>923.5</ele>
        <time>2018-06-07T08:52:55Z</time>
      </trkpt>
      <trkpt lat="45.24681" lon="3.86329">
        <ele>923.6</ele>
        <time>2018-06-07T08:53:03Z</time>
      </trkpt>
      <trkpt lat="45.24672" lon="3.8633">
        <ele>923.6</ele>
        <time>2018-06-07T08:53:15Z</time>
      </trkpt>
      <trkpt lat="45.24662" lon="3.86328">
        <ele>923.2</ele>
        <time>2018-06-07T08:53:25Z</time>
      </trkpt>
      <trkpt lat="45.24653" lon="3.86328">
        <ele>922.6</ele>
        <time>2018-06-07T08:53:33Z</time>
      </trkpt>
      <trkpt lat="45.24645" lon="3.86323">
        <ele>921.2</ele>
        <time>2018-06-07T08:53:43Z</time>
      </trkpt>
      <trkpt lat="45.24638" lon="3.86313">
        <ele>919.7</ele>
        <time>2018-06-07T08:53:53Z</time>
      </trkpt>
      <trkpt lat="45.24634" lon="3.86301">
        <ele>918.2</ele>
        <time>2018-06-07T08:54:02Z</time>
      </trkpt>
      <trkpt lat="45.24628" lon="3.8629">
        <ele>916.8</ele>
        <time>2018-06-07T08:54:11Z</time>
      </trkpt>
      <trkpt lat="45.24623" lon="3.86278">
        <ele>915.5</ele>
        <time>2018-06-07T08:54:20Z</time>
      </trkpt>
      <trkpt lat="45.24618" lon="3.86266">
        <ele>914</ele>
        <time>2018-06-07T08:54:30Z</time>
      </trkpt>
      <trkpt lat="45.24613" lon="3.86255">
        <ele>912.5</ele>
        <time>2018-06-07T08:54:39Z</time>
      </trkpt>
      <trkpt lat="45.24608" lon="3.86244">
        <ele>911.1</ele>
        <time>2018-06-07T08:54:47Z</time>
      </trkpt>
      <trkpt lat="45.24602" lon="3.86232">
        <ele>909.4</ele>
        <time>2018-06-07T08:54:56Z</time>
      </trkpt>
      <trkpt lat="45.24598" lon="3.86221">
        <ele>908.1</ele>
        <time>2018-06-07T08:55:04Z</time>
      </trkpt>
      <trkpt lat="45.24593" lon="3.8621">
        <ele>906.6</ele>
        <time>2018-06-07T08:55:13Z</time>
      </trkpt>
      <trkpt lat="45.24589" lon="3.86198">
        <ele>905.5</ele>
        <time>2018-06-07T08:55:21Z</time>
      </trkpt>
      <trkpt lat="45.24584" lon="3.86187">
        <ele>904.5</ele>
        <time>2018-06-07T08:55:29Z</time>
      </trkpt>
      <trkpt lat="45.24579" lon="3.86175">
        <ele>903.5</ele>
        <time>2018-06-07T08:55:38Z</time>
      </trkpt>
      <trkpt lat="45.24571" lon="3.86167">
        <ele>901.8</ele>
        <time>2018-06-07T08:55:50Z</time>
      </trkpt>
      <trkpt lat="45.24562" lon="3.86161">
        <ele>900.1</ele>
        <time>2018-06-07T08:56:04Z</time>
      </trkpt>
      <trkpt lat="45.24554" lon="3.86153">
        <ele>899</ele>
        <time>2018-06-07T08:56:13Z</time>
      </trkpt>
      <trkpt lat="45.24546" lon="3.86145">
        <ele>897.8</ele>
        <time>2018-06-07T08:56:22Z</time>
      </trkpt>
      <trkpt lat="45.24539" lon="3.86137">
        <ele>896.7</ele>
        <time>2018-06-07T08:56:31Z</time>
      </trkpt>
      <trkpt lat="45.24533" lon="3.86127">
        <ele>895.7</ele>
        <time>2018-06-07T08:56:39Z</time>
      </trkpt>
      <trkpt lat="45.24525" lon="3.86118">
        <ele>894.7</ele>
        <time>2018-06-07T08:56:48Z</time>
      </trkpt>
      <trkpt lat="45.24519" lon="3.8611">
        <ele>893.9</ele>
        <time>2018-06-07T08:56:56Z</time>
      </trkpt>
      <trkpt lat="45.2451" lon="3.86103">
        <ele>892.6</ele>
        <time>2018-06-07T08:57:05Z</time>
      </trkpt>
      <trkpt lat="45.24501" lon="3.861">
        <ele>891.7</ele>
        <time>2018-06-07T08:57:13Z</time>
      </trkpt>
      <trkpt lat="45.24494" lon="3.86091">
        <ele>890.7</ele>
        <time>2018-06-07T08:57:21Z</time>
      </trkpt>
      <trkpt lat="45.24486" lon="3.86084">
        <ele>889.9</ele>
        <time>2018-06-07T08:57:29Z</time>
      </trkpt>
      <trkpt lat="45.24477" lon="3.86077">
        <ele>889.1</ele>
        <time>2018-06-07T08:57:37Z</time>
      </trkpt>
      <trkpt lat="45.24468" lon="3.86073">
        <ele>888</ele>
        <time>2018-06-07T08:57:47Z</time>
      </trkpt>
      <trkpt lat="45.24461" lon="3.86064">
        <ele>886.8</ele>
        <time>2018-06-07T08:57:57Z</time>
      </trkpt>
      <trkpt lat="45.24455" lon="3.86054">
        <ele>886.1</ele>
        <time>2018-06-07T08:58:05Z</time>
      </trkpt>
      <trkpt lat="45.24448" lon="3.86044">
        <ele>885.3</ele>
        <time>2018-06-07T08:58:14Z</time>
      </trkpt>
      <trkpt lat="45.24442" lon="3.86035">
        <ele>884.7</ele>
        <time>2018-06-07T08:58:21Z</time>
      </trkpt>
      <trkpt lat="45.24435" lon="3.86025">
        <ele>884.1</ele>
        <time>2018-06-07T08:58:29Z</time>
      </trkpt>
      <trkpt lat="45.2443" lon="3.86014">
        <ele>883.3</ele>
        <time>2018-06-07T08:58:37Z</time>
      </trkpt>
      <trkpt lat="45.24427" lon="3.86001">
        <ele>882.8</ele>
        <time>2018-06-07T08:58:45Z</time>
      </trkpt>
      <trkpt lat="45.24425" lon="3.85988">
        <ele>882.4</ele>
        <time>2018-06-07T08:58:52Z</time>
      </trkpt>
      <trkpt lat="45.24423" lon="3.85975">
        <ele>881.9</ele>
        <time>2018-06-07T08:59:00Z</time>
      </trkpt>
      <trkpt lat="45.24421" lon="3.85962">
        <ele>881.5</ele>
        <time>2018-06-07T08:59:09Z</time>
      </trkpt>
      <trkpt lat="45.24421" lon="3.85949">
        <ele>881.1</ele>
        <time>2018-06-07T08:59:33Z</time>
      </trkpt>
      <trkpt lat="45.2442" lon="3.85936">
        <ele>881</ele>
        <time>2018-06-07T08:59:43Z</time>
      </trkpt>
      <trkpt lat="45.24412" lon="3.85928">
        <ele>881.1</ele>
        <time>2018-06-07T08:59:49Z</time>
      </trkpt>
      <trkpt lat="45.24402" lon="3.85925">
        <ele>881.1</ele>
        <time>2018-06-07T08:59:56Z</time>
      </trkpt>
      <trkpt lat="45.24404" lon="3.85913">
        <ele>880.5</ele>
        <time>2018-06-07T09:00:10Z</time>
      </trkpt>
      <trkpt lat="45.24413" lon="3.85906">
        <ele>879.9</ele>
        <time>2018-06-07T09:00:17Z</time>
      </trkpt>
      <trkpt lat="45.24422" lon="3.85899">
        <ele>879.2</ele>
        <time>2018-06-07T09:00:24Z</time>
      </trkpt>
      <trkpt lat="45.24431" lon="3.85893">
        <ele>878.4</ele>
        <time>2018-06-07T09:00:31Z</time>
      </trkpt>
      <trkpt lat="45.2444" lon="3.85889">
        <ele>877.5</ele>
        <time>2018-06-07T09:00:38Z</time>
      </trkpt>
      <trkpt lat="45.24448" lon="3.85884">
        <ele>876.1</ele>
        <time>2018-06-07T09:00:48Z</time>
      </trkpt>
      <trkpt lat="45.24457" lon="3.85881">
        <ele>875</ele>
        <time>2018-06-07T09:00:56Z</time>
      </trkpt>
      <trkpt lat="45.24466" lon="3.85879">
        <ele>874.2</ele>
        <time>2018-06-07T09:01:03Z</time>
      </trkpt>
      <trkpt lat="45.2446" lon="3.85867">
        <ele>873.1</ele>
        <time>2018-06-07T09:01:12Z</time>
      </trkpt>
      <trkpt lat="45.24453" lon="3.85859">
        <ele>871.5</ele>
        <time>2018-06-07T09:01:22Z</time>
      </trkpt>
      <trkpt lat="45.24445" lon="3.8585">
        <ele>870</ele>
        <time>2018-06-07T09:01:31Z</time>
      </trkpt>
      <trkpt lat="45.24437" lon="3.85843">
        <ele>868.3</ele>
        <time>2018-06-07T09:01:40Z</time>
      </trkpt>
      <trkpt lat="45.24431" lon="3.85832">
        <ele>866.7</ele>
        <time>2018-06-07T09:01:49Z</time>
      </trkpt>
      <trkpt lat="45.24423" lon="3.85825">
        <ele>865.4</ele>
        <time>2018-06-07T09:01:56Z</time>
      </trkpt>
      <trkpt lat="45.24414" lon="3.85821">
        <ele>863.8</ele>
        <time>2018-06-07T09:02:06Z</time>
      </trkpt>
      <trkpt lat="45.24405" lon="3.85817">
        <ele>862</ele>
        <time>2018-06-07T09:02:16Z</time>
      </trkpt>
      <trkpt lat="45.24396" lon="3.85811">
        <ele>860.1</ele>
        <time>2018-06-07T09:02:27Z</time>
      </trkpt>
      <trkpt lat="45.24386" lon="3.8581">
        <ele>858.3</ele>
        <time>2018-06-07T09:02:38Z</time>
      </trkpt>
      <trkpt lat="45.24377" lon="3.85813">
        <ele>856.6</ele>
        <time>2018-06-07T09:02:52Z</time>
      </trkpt>
      <trkpt lat="45.24368" lon="3.85817">
        <ele>855.8</ele>
        <time>2018-06-07T09:03:01Z</time>
      </trkpt>
      <trkpt lat="45.2436" lon="3.85822">
        <ele>854.7</ele>
        <time>2018-06-07T09:03:10Z</time>
      </trkpt>
      <trkpt lat="45.24351" lon="3.85828">
        <ele>853.4</ele>
        <time>2018-06-07T09:03:19Z</time>
      </trkpt>
      <trkpt lat="45.24341" lon="3.8583">
        <ele>851.7</ele>
        <time>2018-06-07T09:03:30Z</time>
      </trkpt>
      <trkpt lat="45.24332" lon="3.85833">
        <ele>850</ele>
        <time>2018-06-07T09:03:40Z</time>
      </trkpt>
      <trkpt lat="45.24322" lon="3.85834">
        <ele>848.5</ele>
        <time>2018-06-07T09:03:49Z</time>
      </trkpt>
      <trkpt lat="45.24313" lon="3.85838">
        <ele>847.2</ele>
        <time>2018-06-07T09:03:58Z</time>
      </trkpt>
      <trkpt lat="45.24304" lon="3.85842">
        <ele>846.1</ele>
        <time>2018-06-07T09:04:05Z</time>
      </trkpt>
      <trkpt lat="45.24294" lon="3.85849">
        <ele>844.7</ele>
        <time>2018-06-07T09:04:14Z</time>
      </trkpt>
      <trkpt lat="45.24286" lon="3.85854">
        <ele>843.6</ele>
        <time>2018-06-07T09:04:21Z</time>
      </trkpt>
      <trkpt lat="45.24278" lon="3.85861">
        <ele>842.3</ele>
        <time>2018-06-07T09:04:30Z</time>
      </trkpt>
      <trkpt lat="45.2427" lon="3.8587">
        <ele>841.1</ele>
        <time>2018-06-07T09:04:39Z</time>
      </trkpt>
      <trkpt lat="45.24264" lon="3.8588">
        <ele>840.2</ele>
        <time>2018-06-07T09:04:48Z</time>
      </trkpt>
      <trkpt lat="45.24257" lon="3.85889">
        <ele>839.5</ele>
        <time>2018-06-07T09:04:55Z</time>
      </trkpt>
      <trkpt lat="45.24249" lon="3.85897">
        <ele>838.9</ele>
        <time>2018-06-07T09:05:03Z</time>
      </trkpt>
      <trkpt lat="45.24241" lon="3.85905">
        <ele>838.5</ele>
        <time>2018-06-07T09:05:11Z</time>
      </trkpt>
      <trkpt lat="45.24233" lon="3.85912">
        <ele>838.1</ele>
        <time>2018-06-07T09:05:17Z</time>
      </trkpt>
      <trkpt lat="45.24225" lon="3.85919">
        <ele>837.5</ele>
        <time>2018-06-07T09:05:25Z</time>
      </trkpt>
      <trkpt lat="45.24216" lon="3.85925">
        <ele>837.1</ele>
        <time>2018-06-07T09:05:32Z</time>
      </trkpt>
      <trkpt lat="45.24207" lon="3.85931">
        <ele>836.6</ele>
        <time>2018-06-07T09:05:38Z</time>
      </trkpt>
      <trkpt lat="45.24199" lon="3.85935">
        <ele>836</ele>
        <time>2018-06-07T09:05:45Z</time>
      </trkpt>
      <trkpt lat="45.24191" lon="3.85942">
        <ele>835.2</ele>
        <time>2018-06-07T09:05:52Z</time>
      </trkpt>
      <trkpt lat="45.24182" lon="3.85947">
        <ele>834</ele>
        <time>2018-06-07T09:06:03Z</time>
      </trkpt>
      <trkpt lat="45.24174" lon="3.85952">
        <ele>832.4</ele>
        <time>2018-06-07T09:06:13Z</time>
      </trkpt>
      <trkpt lat="45.24167" lon="3.8596">
        <ele>830.8</ele>
        <time>2018-06-07T09:06:23Z</time>
      </trkpt>
      <trkpt lat="45.24158" lon="3.85968">
        <ele>829.3</ele>
        <time>2018-06-07T09:06:33Z</time>
      </trkpt>
      <trkpt lat="45.2415" lon="3.85975">
        <ele>828</ele>
        <time>2018-06-07T09:06:43Z</time>
      </trkpt>
      <trkpt lat="45.24141" lon="3.85981">
        <ele>824.6</ele>
        <time>2018-06-07T09:07:42Z</time>
      </trkpt>
      <trkpt lat="45.24133" lon="3.85974">
        <ele>824.9</ele>
        <time>2018-06-07T09:07:54Z</time>
      </trkpt>
      <trkpt lat="45.24124" lon="3.85969">
        <ele>825.1</ele>
        <time>2018-06-07T09:08:05Z</time>
      </trkpt>
      <trkpt lat="45.24117" lon="3.85959">
        <ele>825.1</ele>
        <time>2018-06-07T09:08:16Z</time>
      </trkpt>
      <trkpt lat="45.24109" lon="3.85952">
        <ele>824.8</ele>
        <time>2018-06-07T09:08:24Z</time>
      </trkpt>
      <trkpt lat="45.24103" lon="3.85941">
        <ele>824.6</ele>
        <time>2018-06-07T09:08:32Z</time>
      </trkpt>
      <trkpt lat="45.24098" lon="3.8593">
        <ele>824.5</ele>
        <time>2018-06-07T09:08:41Z</time>
      </trkpt>
      <trkpt lat="45.2409" lon="3.85922">
        <ele>824.5</ele>
        <time>2018-06-07T09:08:46Z</time>
      </trkpt>
      <trkpt lat="45.24082" lon="3.85914">
        <ele>824.5</ele>
        <time>2018-06-07T09:08:52Z</time>
      </trkpt>
      <trkpt lat="45.24054" lon="3.85897">
        <ele>825.5</ele>
        <time>2018-06-07T09:10:24Z</time>
      </trkpt>
      <trkpt lat="45.2405" lon="3.85909">
        <ele>826.5</ele>
        <time>2018-06-07T09:24:22Z</time>
      </trkpt>
      <trkpt lat="45.24043" lon="3.85918">
        <ele>826.8</ele>
        <time>2018-06-07T09:24:32Z</time>
      </trkpt>
      <trkpt lat="45.24034" lon="3.85925">
        <ele>827.6</ele>
        <time>2018-06-07T09:24:42Z</time>
      </trkpt>
      <trkpt lat="45.24025" lon="3.85931">
        <ele>828.3</ele>
        <time>2018-06-07T09:24:51Z</time>
      </trkpt>
      <trkpt lat="45.24018" lon="3.85937">
        <ele>829.4</ele>
        <time>2018-06-07T09:25:02Z</time>
      </trkpt>
      <trkpt lat="45.2401" lon="3.85944">
        <ele>830.7</ele>
        <time>2018-06-07T09:25:13Z</time>
      </trkpt>
      <trkpt lat="45.24003" lon="3.85952">
        <ele>832</ele>
        <time>2018-06-07T09:25:25Z</time>
      </trkpt>
      <trkpt lat="45.23994" lon="3.85958">
        <ele>833</ele>
        <time>2018-06-07T09:25:36Z</time>
      </trkpt>
      <trkpt lat="45.23985" lon="3.85963">
        <ele>833.8</ele>
        <time>2018-06-07T09:25:47Z</time>
      </trkpt>
      <trkpt lat="45.23977" lon="3.85971">
        <ele>834.7</ele>
        <time>2018-06-07T09:25:58Z</time>
      </trkpt>
      <trkpt lat="45.23969" lon="3.85978">
        <ele>835.5</ele>
        <time>2018-06-07T09:26:07Z</time>
      </trkpt>
      <trkpt lat="45.23964" lon="3.85989">
        <ele>836.3</ele>
        <time>2018-06-07T09:26:17Z</time>
      </trkpt>
      <trkpt lat="45.23958" lon="3.85999">
        <ele>837.5</ele>
        <time>2018-06-07T09:26:27Z</time>
      </trkpt>
      <trkpt lat="45.23952" lon="3.8601">
        <ele>838.8</ele>
        <time>2018-06-07T09:26:37Z</time>
      </trkpt>
      <trkpt lat="45.23944" lon="3.86019">
        <ele>840.3</ele>
        <time>2018-06-07T09:26:48Z</time>
      </trkpt>
      <trkpt lat="45.23939" lon="3.8603">
        <ele>841.5</ele>
        <time>2018-06-07T09:27:01Z</time>
      </trkpt>
      <trkpt lat="45.23931" lon="3.86037">
        <ele>842.6</ele>
        <time>2018-06-07T09:27:27Z</time>
      </trkpt>
      <trkpt lat="45.23925" lon="3.86027">
        <ele>842.4</ele>
        <time>2018-06-07T09:27:41Z</time>
      </trkpt>
      <trkpt lat="45.23924" lon="3.86052">
        <ele>842</ele>
        <time>2018-06-07T09:32:06Z</time>
      </trkpt>
      <trkpt lat="45.23918" lon="3.86062">
        <ele>840.7</ele>
        <time>2018-06-07T09:32:34Z</time>
      </trkpt>
      <trkpt lat="45.23912" lon="3.86071">
        <ele>839.9</ele>
        <time>2018-06-07T09:32:48Z</time>
      </trkpt>
      <trkpt lat="45.23906" lon="3.86081">
        <ele>839.1</ele>
        <time>2018-06-07T09:33:00Z</time>
      </trkpt>
      <trkpt lat="45.23904" lon="3.86094">
        <ele>838</ele>
        <time>2018-06-07T09:33:13Z</time>
      </trkpt>
      <trkpt lat="45.23906" lon="3.86107">
        <ele>835.5</ele>
        <time>2018-06-07T09:36:40Z</time>
      </trkpt>
      <trkpt lat="45.23909" lon="3.8612">
        <ele>835.5</ele>
        <time>2018-06-07T09:36:48Z</time>
      </trkpt>
      <trkpt lat="45.2391" lon="3.86133">
        <ele>835.3</ele>
        <time>2018-06-07T09:36:52Z</time>
      </trkpt>
      <trkpt lat="45.23912" lon="3.86147">
        <ele>835.1</ele>
        <time>2018-06-07T09:36:58Z</time>
      </trkpt>
      <trkpt lat="45.23915" lon="3.8616">
        <ele>834.8</ele>
        <time>2018-06-07T09:37:04Z</time>
      </trkpt>
      <trkpt lat="45.23916" lon="3.86174">
        <ele>834.5</ele>
        <time>2018-06-07T09:37:12Z</time>
      </trkpt>
      <trkpt lat="45.23912" lon="3.86189">
        <ele>834.6</ele>
        <time>2018-06-07T09:37:20Z</time>
      </trkpt>
      <trkpt lat="45.23905" lon="3.86198">
        <ele>834.8</ele>
        <time>2018-06-07T09:37:27Z</time>
      </trkpt>
      <trkpt lat="45.23899" lon="3.86208">
        <ele>835</ele>
        <time>2018-06-07T09:37:34Z</time>
      </trkpt>
      <trkpt lat="45.23891" lon="3.86215">
        <ele>835.1</ele>
        <time>2018-06-07T09:37:42Z</time>
      </trkpt>
      <trkpt lat="45.23883" lon="3.86223">
        <ele>835.2</ele>
        <time>2018-06-07T09:37:50Z</time>
      </trkpt>
      <trkpt lat="45.23885" lon="3.86236">
        <ele>835.5</ele>
        <time>2018-06-07T09:38:36Z</time>
      </trkpt>
      <trkpt lat="45.23888" lon="3.86248">
        <ele>835.4</ele>
        <time>2018-06-07T09:38:47Z</time>
      </trkpt>
      <trkpt lat="45.23891" lon="3.86261">
        <ele>834.5</ele>
        <time>2018-06-07T09:38:57Z</time>
      </trkpt>
      <trkpt lat="45.23894" lon="3.86274">
        <ele>833.7</ele>
        <time>2018-06-07T09:39:06Z</time>
      </trkpt>
      <trkpt lat="45.23897" lon="3.86286">
        <ele>832.4</ele>
        <time>2018-06-07T09:39:15Z</time>
      </trkpt>
      <trkpt lat="45.23897" lon="3.863">
        <ele>831.1</ele>
        <time>2018-06-07T09:39:23Z</time>
      </trkpt>
      <trkpt lat="45.23898" lon="3.86314">
        <ele>830.1</ele>
        <time>2018-06-07T09:39:31Z</time>
      </trkpt>
      <trkpt lat="45.23896" lon="3.86327">
        <ele>829.2</ele>
        <time>2018-06-07T09:39:38Z</time>
      </trkpt>
      <trkpt lat="45.239" lon="3.86339">
        <ele>828.3</ele>
        <time>2018-06-07T09:39:47Z</time>
      </trkpt>
      <trkpt lat="45.23905" lon="3.8635">
        <ele>827.5</ele>
        <time>2018-06-07T09:39:55Z</time>
      </trkpt>
      <trkpt lat="45.2391" lon="3.86361">
        <ele>826.2</ele>
        <time>2018-06-07T09:40:04Z</time>
      </trkpt>
      <trkpt lat="45.23915" lon="3.86372">
        <ele>825.2</ele>
        <time>2018-06-07T09:40:13Z</time>
      </trkpt>
      <trkpt lat="45.23922" lon="3.86382">
        <ele>824</ele>
        <time>2018-06-07T09:40:23Z</time>
      </trkpt>
      <trkpt lat="45.23928" lon="3.86391">
        <ele>822.6</ele>
        <time>2018-06-07T09:40:36Z</time>
      </trkpt>
      <trkpt lat="45.23935" lon="3.864">
        <ele>821.9</ele>
        <time>2018-06-07T09:40:47Z</time>
      </trkpt>
      <trkpt lat="45.23941" lon="3.8641">
        <ele>821.1</ele>
        <time>2018-06-07T09:40:59Z</time>
      </trkpt>
      <trkpt lat="45.23946" lon="3.86421">
        <ele>820.2</ele>
        <time>2018-06-07T09:41:10Z</time>
      </trkpt>
      <trkpt lat="45.2395" lon="3.86433">
        <ele>818.8</ele>
        <time>2018-06-07T09:41:23Z</time>
      </trkpt>
      <trkpt lat="45.23955" lon="3.86444">
        <ele>817.8</ele>
        <time>2018-06-07T09:41:33Z</time>
      </trkpt>
      <trkpt lat="45.23963" lon="3.86452">
        <ele>816.5</ele>
        <time>2018-06-07T09:41:45Z</time>
      </trkpt>
      <trkpt lat="45.23971" lon="3.8646">
        <ele>815.4</ele>
        <time>2018-06-07T09:41:55Z</time>
      </trkpt>
      <trkpt lat="45.23979" lon="3.86468">
        <ele>814.8</ele>
        <time>2018-06-07T09:42:03Z</time>
      </trkpt>
      <trkpt lat="45.23987" lon="3.86474">
        <ele>814.3</ele>
        <time>2018-06-07T09:42:12Z</time>
      </trkpt>
      <trkpt lat="45.23996" lon="3.86477">
        <ele>814</ele>
        <time>2018-06-07T09:42:21Z</time>
      </trkpt>
      <trkpt lat="45.24006" lon="3.86478">
        <ele>813.8</ele>
        <time>2018-06-07T09:42:32Z</time>
      </trkpt>
      <trkpt lat="45.2401" lon="3.86491">
        <ele>813.8</ele>
        <time>2018-06-07T09:42:40Z</time>
      </trkpt>
      <trkpt lat="45.24013" lon="3.86504">
        <ele>813.5</ele>
        <time>2018-06-07T09:42:48Z</time>
      </trkpt>
      <trkpt lat="45.24016" lon="3.86516">
        <ele>813.2</ele>
        <time>2018-06-07T09:42:55Z</time>
      </trkpt>
      <trkpt lat="45.24017" lon="3.86529">
        <ele>812.6</ele>
        <time>2018-06-07T09:43:04Z</time>
      </trkpt>
      <trkpt lat="45.24021" lon="3.86541">
        <ele>812.1</ele>
        <time>2018-06-07T09:43:11Z</time>
      </trkpt>
      <trkpt lat="45.24028" lon="3.8655">
        <ele>811.9</ele>
        <time>2018-06-07T09:43:17Z</time>
      </trkpt>
      <trkpt lat="45.24033" lon="3.86561">
        <ele>811.4</ele>
        <time>2018-06-07T09:43:25Z</time>
      </trkpt>
      <trkpt lat="45.24041" lon="3.86568">
        <ele>811.1</ele>
        <time>2018-06-07T09:43:33Z</time>
      </trkpt>
      <trkpt lat="45.24049" lon="3.86576">
        <ele>810.6</ele>
        <time>2018-06-07T09:43:42Z</time>
      </trkpt>
      <trkpt lat="45.24056" lon="3.86585">
        <ele>810.1</ele>
        <time>2018-06-07T09:43:51Z</time>
      </trkpt>
      <trkpt lat="45.24063" lon="3.86594">
        <ele>809.7</ele>
        <time>2018-06-07T09:44:01Z</time>
      </trkpt>
      <trkpt lat="45.24072" lon="3.86599">
        <ele>809.4</ele>
        <time>2018-06-07T09:44:07Z</time>
      </trkpt>
      <trkpt lat="45.24077" lon="3.86609">
        <ele>809</ele>
        <time>2018-06-07T09:44:14Z</time>
      </trkpt>
      <trkpt lat="45.2408" lon="3.86621">
        <ele>808.3</ele>
        <time>2018-06-07T09:44:22Z</time>
      </trkpt>
      <trkpt lat="45.24075" lon="3.86634">
        <ele>807.1</ele>
        <time>2018-06-07T09:44:31Z</time>
      </trkpt>
      <trkpt lat="45.24073" lon="3.86647">
        <ele>806</ele>
        <time>2018-06-07T09:44:40Z</time>
      </trkpt>
      <trkpt lat="45.2407" lon="3.86659">
        <ele>805.1</ele>
        <time>2018-06-07T09:44:50Z</time>
      </trkpt>
      <trkpt lat="45.24068" lon="3.86673">
        <ele>804.3</ele>
        <time>2018-06-07T09:45:00Z</time>
      </trkpt>
      <trkpt lat="45.24067" lon="3.86687">
        <ele>803.5</ele>
        <time>2018-06-07T09:45:09Z</time>
      </trkpt>
      <trkpt lat="45.24068" lon="3.867">
        <ele>802.6</ele>
        <time>2018-06-07T09:45:16Z</time>
      </trkpt>
      <trkpt lat="45.24071" lon="3.86714">
        <ele>801.6</ele>
        <time>2018-06-07T09:45:25Z</time>
      </trkpt>
      <trkpt lat="45.24068" lon="3.86726">
        <ele>800.1</ele>
        <time>2018-06-07T09:45:36Z</time>
      </trkpt>
      <trkpt lat="45.24062" lon="3.86737">
        <ele>798.7</ele>
        <time>2018-06-07T09:45:45Z</time>
      </trkpt>
      <trkpt lat="45.24052" lon="3.86743">
        <ele>797</ele>
        <time>2018-06-07T09:45:55Z</time>
      </trkpt>
      <trkpt lat="45.24043" lon="3.86744">
        <ele>794.9</ele>
        <time>2018-06-07T09:46:07Z</time>
      </trkpt>
      <trkpt lat="45.24034" lon="3.86749">
        <ele>792.6</ele>
        <time>2018-06-07T09:46:21Z</time>
      </trkpt>
      <trkpt lat="45.24028" lon="3.86758">
        <ele>790.7</ele>
        <time>2018-06-07T09:46:32Z</time>
      </trkpt>
      <trkpt lat="45.2402" lon="3.86764">
        <ele>788.8</ele>
        <time>2018-06-07T09:46:43Z</time>
      </trkpt>
      <trkpt lat="45.24015" lon="3.86776">
        <ele>787.5</ele>
        <time>2018-06-07T09:46:49Z</time>
      </trkpt>
      <trkpt lat="45.24014" lon="3.86789">
        <ele>786</ele>
        <time>2018-06-07T09:46:57Z</time>
      </trkpt>
      <trkpt lat="45.24006" lon="3.86797">
        <ele>784</ele>
        <time>2018-06-07T09:47:08Z</time>
      </trkpt>
      <trkpt lat="45.23997" lon="3.86796">
        <ele>782.6</ele>
        <time>2018-06-07T09:47:16Z</time>
      </trkpt>
      <trkpt lat="45.23991" lon="3.86786">
        <ele>781.2</ele>
        <time>2018-06-07T09:47:24Z</time>
      </trkpt>
      <trkpt lat="45.23984" lon="3.86795">
        <ele>778.5</ele>
        <time>2018-06-07T09:47:39Z</time>
      </trkpt>
      <trkpt lat="45.23983" lon="3.86808">
        <ele>776.8</ele>
        <time>2018-06-07T09:47:48Z</time>
      </trkpt>
      <trkpt lat="45.23975" lon="3.86815">
        <ele>774.9</ele>
        <time>2018-06-07T09:47:56Z</time>
      </trkpt>
      <trkpt lat="45.23968" lon="3.86807">
        <ele>773.4</ele>
        <time>2018-06-07T09:48:03Z</time>
      </trkpt>
      <trkpt lat="45.2396" lon="3.86799">
        <ele>772</ele>
        <time>2018-06-07T09:48:11Z</time>
      </trkpt>
      <trkpt lat="45.23954" lon="3.86789">
        <ele>770.3</ele>
        <time>2018-06-07T09:48:20Z</time>
      </trkpt>
      <trkpt lat="45.23946" lon="3.86781">
        <ele>768.3</ele>
        <time>2018-06-07T09:48:31Z</time>
      </trkpt>
      <trkpt lat="45.23941" lon="3.86769">
        <ele>766.9</ele>
        <time>2018-06-07T09:48:39Z</time>
      </trkpt>
      <trkpt lat="45.23934" lon="3.86778">
        <ele>765</ele>
        <time>2018-06-07T09:48:50Z</time>
      </trkpt>
      <trkpt lat="45.2393" lon="3.86791">
        <ele>763.5</ele>
        <time>2018-06-07T09:48:58Z</time>
      </trkpt>
      <trkpt lat="45.23933" lon="3.86805">
        <ele>762</ele>
        <time>2018-06-07T09:49:05Z</time>
      </trkpt>
      <trkpt lat="45.23936" lon="3.86817">
        <ele>760.7</ele>
        <time>2018-06-07T09:49:12Z</time>
      </trkpt>
      <trkpt lat="45.23941" lon="3.86829">
        <ele>758.9</ele>
        <time>2018-06-07T09:49:21Z</time>
      </trkpt>
      <trkpt lat="45.23943" lon="3.86842">
        <ele>756.8</ele>
        <time>2018-06-07T09:49:31Z</time>
      </trkpt>
      <trkpt lat="45.23944" lon="3.86856">
        <ele>755</ele>
        <time>2018-06-07T09:49:40Z</time>
      </trkpt>
      <trkpt lat="45.23945" lon="3.86884">
        <ele>749</ele>
        <time>2018-06-07T09:50:07Z</time>
      </trkpt>
      <trkpt lat="45.23936" lon="3.86889">
        <ele>746.3</ele>
        <time>2018-06-07T09:50:22Z</time>
      </trkpt>
      <trkpt lat="45.23927" lon="3.86885">
        <ele>745.3</ele>
        <time>2018-06-07T09:50:28Z</time>
      </trkpt>
      <trkpt lat="45.23921" lon="3.86875">
        <ele>744.2</ele>
        <time>2018-06-07T09:50:36Z</time>
      </trkpt>
      <trkpt lat="45.23915" lon="3.86864">
        <ele>743.3</ele>
        <time>2018-06-07T09:50:43Z</time>
      </trkpt>
      <trkpt lat="45.2391" lon="3.86854">
        <ele>742.4</ele>
        <time>2018-06-07T09:50:50Z</time>
      </trkpt>
      <trkpt lat="45.23904" lon="3.86842">
        <ele>741.3</ele>
        <time>2018-06-07T09:50:58Z</time>
      </trkpt>
      <trkpt lat="45.23897" lon="3.86833">
        <ele>740.4</ele>
        <time>2018-06-07T09:51:05Z</time>
      </trkpt>
      <trkpt lat="45.23891" lon="3.86821">
        <ele>739.5</ele>
        <time>2018-06-07T09:51:12Z</time>
      </trkpt>
      <trkpt lat="45.23885" lon="3.86809">
        <ele>738.6</ele>
        <time>2018-06-07T09:51:20Z</time>
      </trkpt>
      <trkpt lat="45.23881" lon="3.86796">
        <ele>738</ele>
        <time>2018-06-07T09:51:28Z</time>
      </trkpt>
      <trkpt lat="45.23877" lon="3.86784">
        <ele>737</ele>
        <time>2018-06-07T09:51:36Z</time>
      </trkpt>
      <trkpt lat="45.23873" lon="3.86773">
        <ele>735.7</ele>
        <time>2018-06-07T09:51:46Z</time>
      </trkpt>
      <trkpt lat="45.23868" lon="3.86762">
        <ele>734.1</ele>
        <time>2018-06-07T09:51:55Z</time>
      </trkpt>
      <trkpt lat="45.2386" lon="3.86754">
        <ele>732.2</ele>
        <time>2018-06-07T09:52:06Z</time>
      </trkpt>
      <trkpt lat="45.23851" lon="3.86753">
        <ele>729.8</ele>
        <time>2018-06-07T09:52:22Z</time>
      </trkpt>
      <trkpt lat="45.23841" lon="3.86752">
        <ele>728.8</ele>
        <time>2018-06-07T09:52:29Z</time>
      </trkpt>
      <trkpt lat="45.23832" lon="3.86748">
        <ele>726.7</ele>
        <time>2018-06-07T09:52:41Z</time>
      </trkpt>
      <trkpt lat="45.23822" lon="3.86744">
        <ele>723.2</ele>
        <time>2018-06-07T09:53:45Z</time>
      </trkpt>
      <trkpt lat="45.23822" lon="3.8673">
        <ele>722.7</ele>
        <time>2018-06-07T09:53:55Z</time>
      </trkpt>
      <trkpt lat="45.2382" lon="3.86717">
        <ele>722.4</ele>
        <time>2018-06-07T09:54:08Z</time>
      </trkpt>
      <trkpt lat="45.23818" lon="3.86704">
        <ele>721.8</ele>
        <time>2018-06-07T09:54:27Z</time>
      </trkpt>
      <trkpt lat="45.23816" lon="3.86691">
        <ele>721.6</ele>
        <time>2018-06-07T09:54:34Z</time>
      </trkpt>
      <trkpt lat="45.23812" lon="3.86677">
        <ele>720.6</ele>
        <time>2018-06-07T09:54:51Z</time>
      </trkpt>
      <trkpt lat="45.23802" lon="3.86666">
        <ele>717.9</ele>
        <time>2018-06-07T09:56:50Z</time>
      </trkpt>
      <trkpt lat="45.23793" lon="3.86661">
        <ele>719.5</ele>
        <time>2018-06-07T09:57:29Z</time>
      </trkpt>
      <trkpt lat="45.23806" lon="3.86642">
        <ele>718</ele>
        <time>2018-06-07T09:58:21Z</time>
      </trkpt>
      <trkpt lat="45.23808" lon="3.86629">
        <ele>717.3</ele>
        <time>2018-06-07T09:59:19Z</time>
      </trkpt>
      <trkpt lat="45.23811" lon="3.86617">
        <ele>716.9</ele>
        <time>2018-06-07T09:59:43Z</time>
      </trkpt>
      <trkpt lat="45.23805" lon="3.86607">
        <ele>715.9</ele>
        <time>2018-06-07T10:02:00Z</time>
      </trkpt>
      <trkpt lat="45.23801" lon="3.86594">
        <ele>715.9</ele>
        <time>2018-06-07T10:02:14Z</time>
      </trkpt>
      <trkpt lat="45.23799" lon="3.8658">
        <ele>715.6</ele>
        <time>2018-06-07T10:02:27Z</time>
      </trkpt>
      <trkpt lat="45.23796" lon="3.86568">
        <ele>715.1</ele>
        <time>2018-06-07T10:02:37Z</time>
      </trkpt>
      <trkpt lat="45.23791" lon="3.86557">
        <ele>714</ele>
        <time>2018-06-07T10:02:53Z</time>
      </trkpt>
      <trkpt lat="45.23785" lon="3.86546">
        <ele>713.3</ele>
        <time>2018-06-07T10:03:11Z</time>
      </trkpt>
      <trkpt lat="45.23782" lon="3.86532">
        <ele>712.9</ele>
        <time>2018-06-07T10:03:35Z</time>
      </trkpt>
      <trkpt lat="45.23785" lon="3.8652">
        <ele>712.7</ele>
        <time>2018-06-07T10:03:49Z</time>
      </trkpt>
      <trkpt lat="45.23779" lon="3.86509">
        <ele>712.6</ele>
        <time>2018-06-07T10:03:59Z</time>
      </trkpt>
      <trkpt lat="45.23774" lon="3.86498">
        <ele>712.6</ele>
        <time>2018-06-07T10:04:12Z</time>
      </trkpt>
      <trkpt lat="45.23766" lon="3.8649">
        <ele>712.6</ele>
        <time>2018-06-07T10:04:28Z</time>
      </trkpt>
      <trkpt lat="45.23761" lon="3.86479">
        <ele>712.5</ele>
        <time>2018-06-07T10:04:40Z</time>
      </trkpt>
      <trkpt lat="45.23757" lon="3.86467">
        <ele>712.2</ele>
        <time>2018-06-07T10:04:46Z</time>
      </trkpt>
      <trkpt lat="45.23748" lon="3.8646">
        <ele>711.6</ele>
        <time>2018-06-07T10:04:57Z</time>
      </trkpt>
      <trkpt lat="45.23741" lon="3.86449">
        <ele>711</ele>
        <time>2018-06-07T10:05:04Z</time>
      </trkpt>
      <trkpt lat="45.23733" lon="3.86443">
        <ele>710.5</ele>
        <time>2018-06-07T10:05:12Z</time>
      </trkpt>
      <trkpt lat="45.23724" lon="3.86437">
        <ele>709.5</ele>
        <time>2018-06-07T10:05:24Z</time>
      </trkpt>
      <trkpt lat="45.23718" lon="3.86427">
        <ele>708.8</ele>
        <time>2018-06-07T10:05:33Z</time>
      </trkpt>
      <trkpt lat="45.2371" lon="3.86417">
        <ele>708.2</ele>
        <time>2018-06-07T10:05:39Z</time>
      </trkpt>
      <trkpt lat="45.23704" lon="3.86405">
        <ele>707.5</ele>
        <time>2018-06-07T10:05:47Z</time>
      </trkpt>
      <trkpt lat="45.23703" lon="3.86391">
        <ele>705.5</ele>
        <time>2018-06-07T10:06:12Z</time>
      </trkpt>
      <trkpt lat="45.23698" lon="3.8638">
        <ele>705.1</ele>
        <time>2018-06-07T10:06:24Z</time>
      </trkpt>
      <trkpt lat="45.23693" lon="3.86369">
        <ele>704.9</ele>
        <time>2018-06-07T10:06:35Z</time>
      </trkpt>
      <trkpt lat="45.23691" lon="3.86355">
        <ele>704.7</ele>
        <time>2018-06-07T10:06:46Z</time>
      </trkpt>
      <trkpt lat="45.23687" lon="3.86342">
        <ele>704.7</ele>
        <time>2018-06-07T10:06:55Z</time>
      </trkpt>
      <trkpt lat="45.23681" lon="3.86333">
        <ele>704.1</ele>
        <time>2018-06-07T10:07:05Z</time>
      </trkpt>
      <trkpt lat="45.23672" lon="3.86326">
        <ele>703</ele>
        <time>2018-06-07T10:07:14Z</time>
      </trkpt>
      <trkpt lat="45.23663" lon="3.86321">
        <ele>701.9</ele>
        <time>2018-06-07T10:07:21Z</time>
      </trkpt>
      <trkpt lat="45.23654" lon="3.86318">
        <ele>699.9</ele>
        <time>2018-06-07T10:07:35Z</time>
      </trkpt>
      <trkpt lat="45.23645" lon="3.86315">
        <ele>698.5</ele>
        <time>2018-06-07T10:07:44Z</time>
      </trkpt>
      <trkpt lat="45.23637" lon="3.8631">
        <ele>696.9</ele>
        <time>2018-06-07T10:07:54Z</time>
      </trkpt>
      <trkpt lat="45.23635" lon="3.86298">
        <ele>695.3</ele>
        <time>2018-06-07T10:08:10Z</time>
      </trkpt>
      <trkpt lat="45.23628" lon="3.86288">
        <ele>694.7</ele>
        <time>2018-06-07T10:08:25Z</time>
      </trkpt>
      <trkpt lat="45.23624" lon="3.86276">
        <ele>694.2</ele>
        <time>2018-06-07T10:08:36Z</time>
      </trkpt>
      <trkpt lat="45.23622" lon="3.86262">
        <ele>693.4</ele>
        <time>2018-06-07T10:08:48Z</time>
      </trkpt>
      <trkpt lat="45.23623" lon="3.86248">
        <ele>693</ele>
        <time>2018-06-07T10:09:01Z</time>
      </trkpt>
      <trkpt lat="45.23624" lon="3.86236">
        <ele>692.9</ele>
        <time>2018-06-07T10:09:10Z</time>
      </trkpt>
      <trkpt lat="45.23622" lon="3.86222">
        <ele>692.8</ele>
        <time>2018-06-07T10:09:19Z</time>
      </trkpt>
      <trkpt lat="45.23621" lon="3.86209">
        <ele>692.5</ele>
        <time>2018-06-07T10:09:29Z</time>
      </trkpt>
      <trkpt lat="45.23618" lon="3.86196">
        <ele>691.8</ele>
        <time>2018-06-07T10:09:42Z</time>
      </trkpt>
      <trkpt lat="45.23611" lon="3.86187">
        <ele>690.4</ele>
        <time>2018-06-07T10:09:55Z</time>
      </trkpt>
      <trkpt lat="45.23605" lon="3.86176">
        <ele>689.3</ele>
        <time>2018-06-07T10:10:04Z</time>
      </trkpt>
      <trkpt lat="45.23601" lon="3.86164">
        <ele>688.4</ele>
        <time>2018-06-07T10:10:11Z</time>
      </trkpt>
      <trkpt lat="45.236" lon="3.86152">
        <ele>687.1</ele>
        <time>2018-06-07T10:10:21Z</time>
      </trkpt>
      <trkpt lat="45.23595" lon="3.86141">
        <ele>686.2</ele>
        <time>2018-06-07T10:10:30Z</time>
      </trkpt>
      <trkpt lat="45.23589" lon="3.8613">
        <ele>685.7</ele>
        <time>2018-06-07T10:10:37Z</time>
      </trkpt>
      <trkpt lat="45.2359" lon="3.86116">
        <ele>685.1</ele>
        <time>2018-06-07T10:10:46Z</time>
      </trkpt>
      <trkpt lat="45.2359" lon="3.86103">
        <ele>683.5</ele>
        <time>2018-06-07T10:12:00Z</time>
      </trkpt>
      <trkpt lat="45.23586" lon="3.86085">
        <ele>682.8</ele>
        <time>2018-06-07T10:13:01Z</time>
      </trkpt>
      <trkpt lat="45.23589" lon="3.86072">
        <ele>682.8</ele>
        <time>2018-06-07T10:13:13Z</time>
      </trkpt>
      <trkpt lat="45.236" lon="3.86067">
        <ele>682.8</ele>
        <time>2018-06-07T10:13:51Z</time>
      </trkpt>
      <trkpt lat="45.23598" lon="3.86048">
        <ele>683.7</ele>
        <time>2018-06-07T10:15:02Z</time>
      </trkpt>
      <trkpt lat="45.23605" lon="3.86038">
        <ele>683.7</ele>
        <time>2018-06-07T10:15:13Z</time>
      </trkpt>
      <trkpt lat="45.23611" lon="3.86028">
        <ele>683.9</ele>
        <time>2018-06-07T10:15:23Z</time>
      </trkpt>
      <trkpt lat="45.2362" lon="3.86019">
        <ele>684.5</ele>
        <time>2018-06-07T10:15:35Z</time>
      </trkpt>
      <trkpt lat="45.23627" lon="3.8601">
        <ele>685.5</ele>
        <time>2018-06-07T10:15:48Z</time>
      </trkpt>
      <trkpt lat="45.23634" lon="3.86004">
        <ele>686.2</ele>
        <time>2018-06-07T10:16:00Z</time>
      </trkpt>
      <trkpt lat="45.23642" lon="3.85998">
        <ele>687</ele>
        <time>2018-06-07T10:16:10Z</time>
      </trkpt>
      <trkpt lat="45.23646" lon="3.85986">
        <ele>687.6</ele>
        <time>2018-06-07T10:16:18Z</time>
      </trkpt>
      <trkpt lat="45.23652" lon="3.85976">
        <ele>689.3</ele>
        <time>2018-06-07T10:16:33Z</time>
      </trkpt>
      <trkpt lat="45.23659" lon="3.85968">
        <ele>690.7</ele>
        <time>2018-06-07T10:16:45Z</time>
      </trkpt>
      <trkpt lat="45.23664" lon="3.85956">
        <ele>691.9</ele>
        <time>2018-06-07T10:16:57Z</time>
      </trkpt>
      <trkpt lat="45.23665" lon="3.85943">
        <ele>693.5</ele>
        <time>2018-06-07T10:17:10Z</time>
      </trkpt>
      <trkpt lat="45.23664" lon="3.8593">
        <ele>695.3</ele>
        <time>2018-06-07T10:17:22Z</time>
      </trkpt>
      <trkpt lat="45.23665" lon="3.85917">
        <ele>697.2</ele>
        <time>2018-06-07T10:17:35Z</time>
      </trkpt>
      <trkpt lat="45.23665" lon="3.85904">
        <ele>699.3</ele>
        <time>2018-06-07T10:17:50Z</time>
      </trkpt>
      <trkpt lat="45.23663" lon="3.8589">
        <ele>701.8</ele>
        <time>2018-06-07T10:18:06Z</time>
      </trkpt>
      <trkpt lat="45.23661" lon="3.85878">
        <ele>704.4</ele>
        <time>2018-06-07T10:18:23Z</time>
      </trkpt>
      <trkpt lat="45.23657" lon="3.85866">
        <ele>706</ele>
        <time>2018-06-07T10:18:34Z</time>
      </trkpt>
      <trkpt lat="45.23652" lon="3.85855">
        <ele>707.7</ele>
        <time>2018-06-07T10:18:47Z</time>
      </trkpt>
      <trkpt lat="45.23645" lon="3.85863">
        <ele>711.8</ele>
        <time>2018-06-07T10:19:17Z</time>
      </trkpt>
      <trkpt lat="45.23644" lon="3.85876">
        <ele>715.5</ele>
        <time>2018-06-07T10:20:59Z</time>
      </trkpt>
      <trkpt lat="45.23641" lon="3.85888">
        <ele>716.5</ele>
        <time>2018-06-07T10:21:11Z</time>
      </trkpt>
      <trkpt lat="45.23638" lon="3.85901">
        <ele>718.6</ele>
        <time>2018-06-07T10:21:29Z</time>
      </trkpt>
      <trkpt lat="45.23631" lon="3.85908">
        <ele>720.8</ele>
        <time>2018-06-07T10:21:46Z</time>
      </trkpt>
      <trkpt lat="45.23622" lon="3.85913">
        <ele>723.2</ele>
        <time>2018-06-07T10:22:01Z</time>
      </trkpt>
      <trkpt lat="45.23612" lon="3.85913">
        <ele>726.4</ele>
        <time>2018-06-07T10:22:21Z</time>
      </trkpt>
      <trkpt lat="45.23603" lon="3.85909">
        <ele>729.2</ele>
        <time>2018-06-07T10:22:36Z</time>
      </trkpt>
      <trkpt lat="45.23594" lon="3.85909">
        <ele>732.1</ele>
        <time>2018-06-07T10:22:52Z</time>
      </trkpt>
      <trkpt lat="45.23585" lon="3.85912">
        <ele>734.4</ele>
        <time>2018-06-07T10:23:06Z</time>
      </trkpt>
      <trkpt lat="45.23576" lon="3.8591">
        <ele>737</ele>
        <time>2018-06-07T10:23:21Z</time>
      </trkpt>
      <trkpt lat="45.2357" lon="3.85899">
        <ele>739.1</ele>
        <time>2018-06-07T10:23:34Z</time>
      </trkpt>
      <trkpt lat="45.23567" lon="3.85887">
        <ele>741.4</ele>
        <time>2018-06-07T10:23:49Z</time>
      </trkpt>
      <trkpt lat="45.23565" lon="3.85874">
        <ele>743.2</ele>
        <time>2018-06-07T10:24:03Z</time>
      </trkpt>
      <trkpt lat="45.23562" lon="3.85861">
        <ele>745</ele>
        <time>2018-06-07T10:24:17Z</time>
      </trkpt>
      <trkpt lat="45.23558" lon="3.8585">
        <ele>746.6</ele>
        <time>2018-06-07T10:24:30Z</time>
      </trkpt>
      <trkpt lat="45.23553" lon="3.85838">
        <ele>749.3</ele>
        <time>2018-06-07T10:24:48Z</time>
      </trkpt>
      <trkpt lat="45.23547" lon="3.85827">
        <ele>751</ele>
        <time>2018-06-07T10:24:59Z</time>
      </trkpt>
      <trkpt lat="45.2353" lon="3.8581">
        <ele>754</ele>
        <time>2018-06-07T10:25:40Z</time>
      </trkpt>
      <trkpt lat="45.23522" lon="3.85804">
        <ele>754.3</ele>
        <time>2018-06-07T10:25:49Z</time>
      </trkpt>
      <trkpt lat="45.23513" lon="3.85799">
        <ele>753.9</ele>
        <time>2018-06-07T10:25:58Z</time>
      </trkpt>
      <trkpt lat="45.23504" lon="3.85798">
        <ele>753</ele>
        <time>2018-06-07T10:26:12Z</time>
      </trkpt>
      <trkpt lat="45.23495" lon="3.85799">
        <ele>751.9</ele>
        <time>2018-06-07T10:26:22Z</time>
      </trkpt>
      <trkpt lat="45.23487" lon="3.85791">
        <ele>751.4</ele>
        <time>2018-06-07T10:26:29Z</time>
      </trkpt>
      <trkpt lat="45.23479" lon="3.85785">
        <ele>750.8</ele>
        <time>2018-06-07T10:26:40Z</time>
      </trkpt>
      <trkpt lat="45.23473" lon="3.85774">
        <ele>751.4</ele>
        <time>2018-06-07T10:27:02Z</time>
      </trkpt>
      <trkpt lat="45.23472" lon="3.8576">
        <ele>754.9</ele>
        <time>2018-06-07T11:05:13Z</time>
      </trkpt>
      <trkpt lat="45.23478" lon="3.8575">
        <ele>754.3</ele>
        <time>2018-06-07T11:05:34Z</time>
      </trkpt>
      <trkpt lat="45.23486" lon="3.85775">
        <ele>754</ele>
        <time>2018-06-07T11:10:45Z</time>
      </trkpt>
      <trkpt lat="45.23492" lon="3.85786">
        <ele>753.9</ele>
        <time>2018-06-07T11:10:57Z</time>
      </trkpt>
      <trkpt lat="45.235" lon="3.85792">
        <ele>753.5</ele>
        <time>2018-06-07T11:11:14Z</time>
      </trkpt>
      <trkpt lat="45.23509" lon="3.85796">
        <ele>754.4</ele>
        <time>2018-06-07T11:11:30Z</time>
      </trkpt>
      <trkpt lat="45.23518" lon="3.85802">
        <ele>755.5</ele>
        <time>2018-06-07T11:11:47Z</time>
      </trkpt>
      <trkpt lat="45.23526" lon="3.85806">
        <ele>756</ele>
        <time>2018-06-07T11:12:00Z</time>
      </trkpt>
      <trkpt lat="45.23535" lon="3.85806">
        <ele>756.2</ele>
        <time>2018-06-07T11:12:25Z</time>
      </trkpt>
      <trkpt lat="45.23545" lon="3.85811">
        <ele>756.8</ele>
        <time>2018-06-07T11:12:39Z</time>
      </trkpt>
      <trkpt lat="45.2355" lon="3.85821">
        <ele>757</ele>
        <time>2018-06-07T11:12:56Z</time>
      </trkpt>
      <trkpt lat="45.23555" lon="3.85832">
        <ele>756</ele>
        <time>2018-06-07T11:13:10Z</time>
      </trkpt>
      <trkpt lat="45.23559" lon="3.85844">
        <ele>754.6</ele>
        <time>2018-06-07T11:13:21Z</time>
      </trkpt>
      <trkpt lat="45.23562" lon="3.85857">
        <ele>753.1</ele>
        <time>2018-06-07T11:13:33Z</time>
      </trkpt>
      <trkpt lat="45.23564" lon="3.8587">
        <ele>751.8</ele>
        <time>2018-06-07T11:13:43Z</time>
      </trkpt>
      <trkpt lat="45.23566" lon="3.85883">
        <ele>749.9</ele>
        <time>2018-06-07T11:13:57Z</time>
      </trkpt>
      <trkpt lat="45.2357" lon="3.85896">
        <ele>748.4</ele>
        <time>2018-06-07T11:14:08Z</time>
      </trkpt>
      <trkpt lat="45.23574" lon="3.85907">
        <ele>746.3</ele>
        <time>2018-06-07T11:14:22Z</time>
      </trkpt>
      <trkpt lat="45.23582" lon="3.85913">
        <ele>744.3</ele>
        <time>2018-06-07T11:14:35Z</time>
      </trkpt>
      <trkpt lat="45.23592" lon="3.85912">
        <ele>742.5</ele>
        <time>2018-06-07T11:14:46Z</time>
      </trkpt>
      <trkpt lat="45.23601" lon="3.85911">
        <ele>740.2</ele>
        <time>2018-06-07T11:15:00Z</time>
      </trkpt>
      <trkpt lat="45.23609" lon="3.85915">
        <ele>738</ele>
        <time>2018-06-07T11:15:13Z</time>
      </trkpt>
      <trkpt lat="45.23619" lon="3.85917">
        <ele>733.7</ele>
        <time>2018-06-07T11:15:39Z</time>
      </trkpt>
      <trkpt lat="45.23628" lon="3.85916">
        <ele>731.1</ele>
        <time>2018-06-07T11:15:55Z</time>
      </trkpt>
      <trkpt lat="45.23636" lon="3.85908">
        <ele>729</ele>
        <time>2018-06-07T11:16:08Z</time>
      </trkpt>
      <trkpt lat="45.23641" lon="3.85898">
        <ele>726.7</ele>
        <time>2018-06-07T11:16:21Z</time>
      </trkpt>
      <trkpt lat="45.23648" lon="3.85888">
        <ele>725.4</ele>
        <time>2018-06-07T11:16:31Z</time>
      </trkpt>
      <trkpt lat="45.23649" lon="3.85874">
        <ele>723.9</ele>
        <time>2018-06-07T11:16:44Z</time>
      </trkpt>
      <trkpt lat="45.23649" lon="3.85861">
        <ele>721.8</ele>
        <time>2018-06-07T11:17:03Z</time>
      </trkpt>
      <trkpt lat="45.23649" lon="3.85847">
        <ele>720.4</ele>
        <time>2018-06-07T11:17:15Z</time>
      </trkpt>
      <trkpt lat="45.23656" lon="3.85859">
        <ele>717.7</ele>
        <time>2018-06-07T11:17:39Z</time>
      </trkpt>
      <trkpt lat="45.23659" lon="3.85873">
        <ele>716.7</ele>
        <time>2018-06-07T11:17:48Z</time>
      </trkpt>
      <trkpt lat="45.23662" lon="3.85885">
        <ele>715.1</ele>
        <time>2018-06-07T11:18:02Z</time>
      </trkpt>
      <trkpt lat="45.23666" lon="3.85897">
        <ele>712.4</ele>
        <time>2018-06-07T11:18:24Z</time>
      </trkpt>
      <trkpt lat="45.23667" lon="3.8591">
        <ele>710.4</ele>
        <time>2018-06-07T11:18:40Z</time>
      </trkpt>
      <trkpt lat="45.23664" lon="3.85923">
        <ele>708.4</ele>
        <time>2018-06-07T11:18:54Z</time>
      </trkpt>
      <trkpt lat="45.23667" lon="3.85936">
        <ele>706.4</ele>
        <time>2018-06-07T11:19:09Z</time>
      </trkpt>
      <trkpt lat="45.23668" lon="3.85949">
        <ele>703.3</ele>
        <time>2018-06-07T11:19:33Z</time>
      </trkpt>
      <trkpt lat="45.23665" lon="3.85962">
        <ele>700.8</ele>
        <time>2018-06-07T11:19:54Z</time>
      </trkpt>
      <trkpt lat="45.23657" lon="3.85969">
        <ele>699.5</ele>
        <time>2018-06-07T11:20:08Z</time>
      </trkpt>
      <trkpt lat="45.23648" lon="3.85979">
        <ele>696.5</ele>
        <time>2018-06-07T11:20:37Z</time>
      </trkpt>
      <trkpt lat="45.23644" lon="3.85992">
        <ele>695.2</ele>
        <time>2018-06-07T11:20:50Z</time>
      </trkpt>
      <trkpt lat="45.23636" lon="3.85997">
        <ele>694.5</ele>
        <time>2018-06-07T11:21:00Z</time>
      </trkpt>
      <trkpt lat="45.23626" lon="3.86005">
        <ele>693.7</ele>
        <time>2018-06-07T11:21:14Z</time>
      </trkpt>
      <trkpt lat="45.23621" lon="3.86016">
        <ele>693.4</ele>
        <time>2018-06-07T11:21:19Z</time>
      </trkpt>
      <trkpt lat="45.23615" lon="3.86027">
        <ele>692.9</ele>
        <time>2018-06-07T11:21:25Z</time>
      </trkpt>
      <trkpt lat="45.23609" lon="3.86038">
        <ele>692.1</ele>
        <time>2018-06-07T11:21:33Z</time>
      </trkpt>
      <trkpt lat="45.23604" lon="3.86049">
        <ele>691.5</ele>
        <time>2018-06-07T11:21:39Z</time>
      </trkpt>
      <trkpt lat="45.23598" lon="3.86059">
        <ele>690.8</ele>
        <time>2018-06-07T11:21:45Z</time>
      </trkpt>
      <trkpt lat="45.2359" lon="3.86069">
        <ele>690</ele>
        <time>2018-06-07T11:21:53Z</time>
      </trkpt>
      <trkpt lat="45.23587" lon="3.86088">
        <ele>688.4</ele>
        <time>2018-06-07T11:22:54Z</time>
      </trkpt>
      <trkpt lat="45.23596" lon="3.86097">
        <ele>688.4</ele>
        <time>2018-06-07T11:23:02Z</time>
      </trkpt>
      <trkpt lat="45.23602" lon="3.86108">
        <ele>688.4</ele>
        <time>2018-06-07T11:23:14Z</time>
      </trkpt>
      <trkpt lat="45.23612" lon="3.86115">
        <ele>688.6</ele>
        <time>2018-06-07T11:23:24Z</time>
      </trkpt>
      <trkpt lat="45.23621" lon="3.86119">
        <ele>688.7</ele>
        <time>2018-06-07T11:23:28Z</time>
      </trkpt>
      <trkpt lat="45.23631" lon="3.86124">
        <ele>689</ele>
        <time>2018-06-07T11:23:35Z</time>
      </trkpt>
      <trkpt lat="45.23629" lon="3.86138">
        <ele>689.5</ele>
        <time>2018-06-07T11:23:44Z</time>
      </trkpt>
      <trkpt lat="45.23636" lon="3.86147">
        <ele>690.1</ele>
        <time>2018-06-07T11:23:55Z</time>
      </trkpt>
      <trkpt lat="45.23645" lon="3.86152">
        <ele>690.6</ele>
        <time>2018-06-07T11:24:00Z</time>
      </trkpt>
      <trkpt lat="45.23635" lon="3.86163">
        <ele>692.1</ele>
        <time>2018-06-07T11:24:16Z</time>
      </trkpt>
      <trkpt lat="45.23628" lon="3.86172">
        <ele>693.1</ele>
        <time>2018-06-07T11:24:25Z</time>
      </trkpt>
      <trkpt lat="45.23625" lon="3.86184">
        <ele>694.6</ele>
        <time>2018-06-07T11:24:35Z</time>
      </trkpt>
      <trkpt lat="45.23625" lon="3.86198">
        <ele>695.8</ele>
        <time>2018-06-07T11:24:46Z</time>
      </trkpt>
      <trkpt lat="45.2363" lon="3.8621">
        <ele>696.6</ele>
        <time>2018-06-07T11:24:56Z</time>
      </trkpt>
      <trkpt lat="45.2364" lon="3.86215">
        <ele>697.2</ele>
        <time>2018-06-07T11:25:03Z</time>
      </trkpt>
      <trkpt lat="45.2365" lon="3.86218">
        <ele>697.5</ele>
        <time>2018-06-07T11:25:08Z</time>
      </trkpt>
      <trkpt lat="45.23649" lon="3.86232">
        <ele>698.2</ele>
        <time>2018-06-07T11:25:19Z</time>
      </trkpt>
      <trkpt lat="45.23659" lon="3.86243">
        <ele>698.6</ele>
        <time>2018-06-07T11:25:30Z</time>
      </trkpt>
      <trkpt lat="45.23661" lon="3.86256">
        <ele>698.9</ele>
        <time>2018-06-07T11:25:40Z</time>
      </trkpt>
      <trkpt lat="45.23666" lon="3.86267">
        <ele>699.3</ele>
        <time>2018-06-07T11:25:48Z</time>
      </trkpt>
      <trkpt lat="45.23677" lon="3.86279">
        <ele>700.1</ele>
        <time>2018-06-07T11:26:04Z</time>
      </trkpt>
      <trkpt lat="45.23669" lon="3.86288">
        <ele>700.2</ele>
        <time>2018-06-07T11:26:11Z</time>
      </trkpt>
      <trkpt lat="45.2366" lon="3.86294">
        <ele>700.7</ele>
        <time>2018-06-07T11:26:18Z</time>
      </trkpt>
      <trkpt lat="45.23668" lon="3.86304">
        <ele>703.3</ele>
        <time>2018-06-07T11:26:42Z</time>
      </trkpt>
      <trkpt lat="45.23674" lon="3.86313">
        <ele>706.4</ele>
        <time>2018-06-07T11:27:04Z</time>
      </trkpt>
      <trkpt lat="45.23684" lon="3.86315">
        <ele>706.6</ele>
        <time>2018-06-07T11:27:05Z</time>
      </trkpt>
      <trkpt lat="45.23693" lon="3.86316">
        <ele>706.7</ele>
        <time>2018-06-07T11:27:06Z</time>
      </trkpt>
      <trkpt lat="45.23704" lon="3.86318">
        <ele>707.2</ele>
        <time>2018-06-07T11:27:09Z</time>
      </trkpt>
      <trkpt lat="45.23717" lon="3.86319">
        <ele>707.6</ele>
        <time>2018-06-07T11:27:12Z</time>
      </trkpt>
      <trkpt lat="45.23717" lon="3.86333">
        <ele>709.9</ele>
        <time>2018-06-07T11:27:27Z</time>
      </trkpt>
      <trkpt lat="45.23712" lon="3.86345">
        <ele>710.8</ele>
        <time>2018-06-07T11:27:37Z</time>
      </trkpt>
      <trkpt lat="45.23703" lon="3.86351">
        <ele>711.1</ele>
        <time>2018-06-07T11:27:42Z</time>
      </trkpt>
      <trkpt lat="45.23714" lon="3.86362">
        <ele>711.7</ele>
        <time>2018-06-07T11:27:54Z</time>
      </trkpt>
      <trkpt lat="45.23722" lon="3.8637">
        <ele>711.8</ele>
        <time>2018-06-07T11:27:58Z</time>
      </trkpt>
      <trkpt lat="45.23719" lon="3.86382">
        <ele>712.3</ele>
        <time>2018-06-07T11:28:24Z</time>
      </trkpt>
      <trkpt lat="45.23713" lon="3.86392">
        <ele>712.6</ele>
        <time>2018-06-07T11:28:36Z</time>
      </trkpt>
      <trkpt lat="45.23725" lon="3.86395">
        <ele>712.8</ele>
        <time>2018-06-07T11:28:41Z</time>
      </trkpt>
      <trkpt lat="45.23732" lon="3.86403">
        <ele>713.8</ele>
        <time>2018-06-07T11:28:55Z</time>
      </trkpt>
      <trkpt lat="45.2374" lon="3.86408">
        <ele>714.5</ele>
        <time>2018-06-07T11:29:05Z</time>
      </trkpt>
      <trkpt lat="45.2375" lon="3.8641">
        <ele>715</ele>
        <time>2018-06-07T11:29:11Z</time>
      </trkpt>
      <trkpt lat="45.2376" lon="3.86412">
        <ele>715.5</ele>
        <time>2018-06-07T11:29:17Z</time>
      </trkpt>
      <trkpt lat="45.23769" lon="3.8642">
        <ele>716.1</ele>
        <time>2018-06-07T11:29:29Z</time>
      </trkpt>
      <trkpt lat="45.23772" lon="3.86433">
        <ele>716.7</ele>
        <time>2018-06-07T11:29:37Z</time>
      </trkpt>
      <trkpt lat="45.23779" lon="3.86442">
        <ele>717.3</ele>
        <time>2018-06-07T11:29:45Z</time>
      </trkpt>
      <trkpt lat="45.23786" lon="3.86451">
        <ele>718</ele>
        <time>2018-06-07T11:29:55Z</time>
      </trkpt>
      <trkpt lat="45.23794" lon="3.86458">
        <ele>718.6</ele>
        <time>2018-06-07T11:30:02Z</time>
      </trkpt>
      <trkpt lat="45.2379" lon="3.86471">
        <ele>719.2</ele>
        <time>2018-06-07T11:30:10Z</time>
      </trkpt>
      <trkpt lat="45.23779" lon="3.86478">
        <ele>719.8</ele>
        <time>2018-06-07T11:30:15Z</time>
      </trkpt>
      <trkpt lat="45.23771" lon="3.86486">
        <ele>720.1</ele>
        <time>2018-06-07T11:30:18Z</time>
      </trkpt>
      <trkpt lat="45.23763" lon="3.86496">
        <ele>720.6</ele>
        <time>2018-06-07T11:30:24Z</time>
      </trkpt>
      <trkpt lat="45.23758" lon="3.86507">
        <ele>721</ele>
        <time>2018-06-07T11:30:29Z</time>
      </trkpt>
      <trkpt lat="45.23752" lon="3.86517">
        <ele>721.6</ele>
        <time>2018-06-07T11:30:37Z</time>
      </trkpt>
      <trkpt lat="45.23745" lon="3.86525">
        <ele>722</ele>
        <time>2018-06-07T11:30:44Z</time>
      </trkpt>
      <trkpt lat="45.23738" lon="3.86535">
        <ele>722.2</ele>
        <time>2018-06-07T11:30:51Z</time>
      </trkpt>
      <trkpt lat="45.23735" lon="3.86547">
        <ele>722.5</ele>
        <time>2018-06-07T11:31:00Z</time>
      </trkpt>
      <trkpt lat="45.23742" lon="3.86555">
        <ele>722.6</ele>
        <time>2018-06-07T11:31:10Z</time>
      </trkpt>
      <trkpt lat="45.23751" lon="3.86562">
        <ele>722.6</ele>
        <time>2018-06-07T11:31:14Z</time>
      </trkpt>
      <trkpt lat="45.23759" lon="3.86568">
        <ele>722.6</ele>
        <time>2018-06-07T11:31:21Z</time>
      </trkpt>
      <trkpt lat="45.23771" lon="3.8657">
        <ele>722.7</ele>
        <time>2018-06-07T11:31:25Z</time>
      </trkpt>
      <trkpt lat="45.23781" lon="3.86571">
        <ele>722.7</ele>
        <time>2018-06-07T11:31:33Z</time>
      </trkpt>
      <trkpt lat="45.23782" lon="3.86584">
        <ele>723.3</ele>
        <time>2018-06-07T11:31:52Z</time>
      </trkpt>
      <trkpt lat="45.23777" lon="3.86595">
        <ele>724.1</ele>
        <time>2018-06-07T11:32:01Z</time>
      </trkpt>
      <trkpt lat="45.23772" lon="3.86607">
        <ele>724.6</ele>
        <time>2018-06-07T11:32:11Z</time>
      </trkpt>
      <trkpt lat="45.23768" lon="3.86619">
        <ele>725.1</ele>
        <time>2018-06-07T11:32:22Z</time>
      </trkpt>
      <trkpt lat="45.23781" lon="3.86625">
        <ele>725</ele>
        <time>2018-06-07T11:32:29Z</time>
      </trkpt>
      <trkpt lat="45.23788" lon="3.8664">
        <ele>725.6</ele>
        <time>2018-06-07T11:32:46Z</time>
      </trkpt>
      <trkpt lat="45.23805" lon="3.86646">
        <ele>724</ele>
        <time>2018-06-07T11:33:17Z</time>
      </trkpt>
      <trkpt lat="45.23804" lon="3.8666">
        <ele>726.8</ele>
        <time>2018-06-07T11:33:39Z</time>
      </trkpt>
      <trkpt lat="45.23801" lon="3.86673">
        <ele>728.1</ele>
        <time>2018-06-07T11:34:25Z</time>
      </trkpt>
      <trkpt lat="45.23811" lon="3.86677">
        <ele>729.8</ele>
        <time>2018-06-07T11:35:08Z</time>
      </trkpt>
      <trkpt lat="45.23817" lon="3.86689">
        <ele>730</ele>
        <time>2018-06-07T11:35:19Z</time>
      </trkpt>
      <trkpt lat="45.23818" lon="3.86702">
        <ele>730.4</ele>
        <time>2018-06-07T11:35:28Z</time>
      </trkpt>
      <trkpt lat="45.23819" lon="3.86715">
        <ele>731.4</ele>
        <time>2018-06-07T11:35:42Z</time>
      </trkpt>
      <trkpt lat="45.23824" lon="3.86726">
        <ele>732.2</ele>
        <time>2018-06-07T11:35:52Z</time>
      </trkpt>
      <trkpt lat="45.23829" lon="3.86739">
        <ele>732.8</ele>
        <time>2018-06-07T11:36:01Z</time>
      </trkpt>
      <trkpt lat="45.23831" lon="3.86752">
        <ele>733.8</ele>
        <time>2018-06-07T11:36:13Z</time>
      </trkpt>
      <trkpt lat="45.23835" lon="3.86764">
        <ele>734.7</ele>
        <time>2018-06-07T11:36:29Z</time>
      </trkpt>
      <trkpt lat="45.23843" lon="3.86771">
        <ele>735.3</ele>
        <time>2018-06-07T11:36:38Z</time>
      </trkpt>
      <trkpt lat="45.2385" lon="3.86779">
        <ele>735.9</ele>
        <time>2018-06-07T11:36:46Z</time>
      </trkpt>
      <trkpt lat="45.23857" lon="3.86788">
        <ele>736.5</ele>
        <time>2018-06-07T11:36:54Z</time>
      </trkpt>
      <trkpt lat="45.23865" lon="3.86796">
        <ele>737.2</ele>
        <time>2018-06-07T11:37:04Z</time>
      </trkpt>
      <trkpt lat="45.23871" lon="3.86806">
        <ele>737.9</ele>
        <time>2018-06-07T11:37:15Z</time>
      </trkpt>
      <trkpt lat="45.23878" lon="3.86814">
        <ele>738.5</ele>
        <time>2018-06-07T11:37:24Z</time>
      </trkpt>
      <trkpt lat="45.23883" lon="3.86825">
        <ele>739.1</ele>
        <time>2018-06-07T11:37:34Z</time>
      </trkpt>
      <trkpt lat="45.23887" lon="3.86837">
        <ele>739.9</ele>
        <time>2018-06-07T11:37:45Z</time>
      </trkpt>
      <trkpt lat="45.23892" lon="3.86848">
        <ele>740.8</ele>
        <time>2018-06-07T11:37:56Z</time>
      </trkpt>
      <trkpt lat="45.23899" lon="3.86858">
        <ele>742.3</ele>
        <time>2018-06-07T11:38:14Z</time>
      </trkpt>
      <trkpt lat="45.23907" lon="3.8688">
        <ele>745</ele>
        <time>2018-06-07T11:38:39Z</time>
      </trkpt>
      <trkpt lat="45.23916" lon="3.86886">
        <ele>746.4</ele>
        <time>2018-06-07T11:38:51Z</time>
      </trkpt>
      <trkpt lat="45.23921" lon="3.86897">
        <ele>747.3</ele>
        <time>2018-06-07T11:39:01Z</time>
      </trkpt>
      <trkpt lat="45.23927" lon="3.86908">
        <ele>747.7</ele>
        <time>2018-06-07T11:39:09Z</time>
      </trkpt>
      <trkpt lat="45.23933" lon="3.8692">
        <ele>747.9</ele>
        <time>2018-06-07T11:39:18Z</time>
      </trkpt>
      <trkpt lat="45.23936" lon="3.86933">
        <ele>748.1</ele>
        <time>2018-06-07T11:39:28Z</time>
      </trkpt>
      <trkpt lat="45.23931" lon="3.86946">
        <ele>748.3</ele>
        <time>2018-06-07T11:39:38Z</time>
      </trkpt>
      <trkpt lat="45.23927" lon="3.86958">
        <ele>748.4</ele>
        <time>2018-06-07T11:39:48Z</time>
      </trkpt>
      <trkpt lat="45.23934" lon="3.86969">
        <ele>748.5</ele>
        <time>2018-06-07T11:39:54Z</time>
      </trkpt>
      <trkpt lat="45.23943" lon="3.86976">
        <ele>748.6</ele>
        <time>2018-06-07T11:39:57Z</time>
      </trkpt>
      <trkpt lat="45.23951" lon="3.86985">
        <ele>748.7</ele>
        <time>2018-06-07T11:40:02Z</time>
      </trkpt>
      <trkpt lat="45.23941" lon="3.86992">
        <ele>749</ele>
        <time>2018-06-07T11:40:10Z</time>
      </trkpt>
      <trkpt lat="45.23933" lon="3.87003">
        <ele>749.5</ele>
        <time>2018-06-07T11:40:20Z</time>
      </trkpt>
      <trkpt lat="45.23925" lon="3.8701">
        <ele>749.8</ele>
        <time>2018-06-07T11:40:25Z</time>
      </trkpt>
      <trkpt lat="45.23922" lon="3.87023">
        <ele>750.2</ele>
        <time>2018-06-07T11:40:34Z</time>
      </trkpt>
      <trkpt lat="45.23914" lon="3.8703">
        <ele>750.5</ele>
        <time>2018-06-07T11:40:40Z</time>
      </trkpt>
      <trkpt lat="45.23913" lon="3.87044">
        <ele>751</ele>
        <time>2018-06-07T11:40:49Z</time>
      </trkpt>
      <trkpt lat="45.23918" lon="3.87057">
        <ele>751.7</ele>
        <time>2018-06-07T11:40:59Z</time>
      </trkpt>
      <trkpt lat="45.23925" lon="3.87068">
        <ele>752.3</ele>
        <time>2018-06-07T11:41:06Z</time>
      </trkpt>
      <trkpt lat="45.23921" lon="3.87083">
        <ele>753.4</ele>
        <time>2018-06-07T11:41:22Z</time>
      </trkpt>
      <trkpt lat="45.23922" lon="3.87096">
        <ele>754.3</ele>
        <time>2018-06-07T11:41:34Z</time>
      </trkpt>
      <trkpt lat="45.23931" lon="3.87102">
        <ele>755.2</ele>
        <time>2018-06-07T11:41:42Z</time>
      </trkpt>
      <trkpt lat="45.23938" lon="3.87112">
        <ele>756.9</ele>
        <time>2018-06-07T11:41:54Z</time>
      </trkpt>
      <trkpt lat="45.23946" lon="3.87118">
        <ele>757.4</ele>
        <time>2018-06-07T11:41:57Z</time>
      </trkpt>
      <trkpt lat="45.23926" lon="3.87212">
        <ele>772</ele>
        <time>2018-06-07T11:44:48Z</time>
      </trkpt>
      <trkpt lat="45.23916" lon="3.87216">
        <ele>772.5</ele>
        <time>2018-06-07T11:44:55Z</time>
      </trkpt>
      <trkpt lat="45.23918" lon="3.8723">
        <ele>773</ele>
        <time>2018-06-07T11:45:08Z</time>
      </trkpt>
      <trkpt lat="45.23906" lon="3.87236">
        <ele>773</ele>
        <time>2018-06-07T11:45:16Z</time>
      </trkpt>
      <trkpt lat="45.23897" lon="3.87244">
        <ele>774</ele>
        <time>2018-06-07T11:45:28Z</time>
      </trkpt>
      <trkpt lat="45.23889" lon="3.87249">
        <ele>774</ele>
        <time>2018-06-07T11:45:36Z</time>
      </trkpt>
      <trkpt lat="45.23869" lon="3.87252">
        <ele>775</ele>
        <time>2018-06-07T11:45:44Z</time>
      </trkpt>
      <trkpt lat="45.23861" lon="3.87266">
        <ele>777</ele>
        <time>2018-06-07T11:45:56Z</time>
      </trkpt>
      <trkpt lat="45.23868" lon="3.87274">
        <ele>778.4</ele>
        <time>2018-06-07T11:46:04Z</time>
      </trkpt>
      <trkpt lat="45.2386" lon="3.87287">
        <ele>780.3</ele>
        <time>2018-06-07T11:46:17Z</time>
      </trkpt>
      <trkpt lat="45.23849" lon="3.87289">
        <ele>780</ele>
        <time>2018-06-07T11:46:23Z</time>
      </trkpt>
      <trkpt lat="45.23838" lon="3.87292">
        <ele>781</ele>
        <time>2018-06-07T11:46:27Z</time>
      </trkpt>
      <trkpt lat="45.23829" lon="3.87297">
        <ele>782.3</ele>
        <time>2018-06-07T11:46:34Z</time>
      </trkpt>
      <trkpt lat="45.23824" lon="3.87309">
        <ele>783</ele>
        <time>2018-06-07T11:46:46Z</time>
      </trkpt>
      <trkpt lat="45.23816" lon="3.87318">
        <ele>784.6</ele>
        <time>2018-06-07T11:46:56Z</time>
      </trkpt>
      <trkpt lat="45.23815" lon="3.87334">
        <ele>785.7</ele>
        <time>2018-06-07T11:47:06Z</time>
      </trkpt>
      <trkpt lat="45.2381" lon="3.87345">
        <ele>786.7</ele>
        <time>2018-06-07T11:47:15Z</time>
      </trkpt>
      <trkpt lat="45.238" lon="3.87347">
        <ele>787.2</ele>
        <time>2018-06-07T11:47:21Z</time>
      </trkpt>
      <trkpt lat="45.23808" lon="3.87355">
        <ele>787</ele>
        <time>2018-06-07T11:47:27Z</time>
      </trkpt>
      <trkpt lat="45.23804" lon="3.87367">
        <ele>788.9</ele>
        <time>2018-06-07T11:47:42Z</time>
      </trkpt>
      <trkpt lat="45.23793" lon="3.87368">
        <ele>789.4</ele>
        <time>2018-06-07T11:47:47Z</time>
      </trkpt>
      <trkpt lat="45.238" lon="3.87377">
        <ele>791.9</ele>
        <time>2018-06-07T11:48:12Z</time>
      </trkpt>
      <trkpt lat="45.23808" lon="3.87386">
        <ele>793.1</ele>
        <time>2018-06-07T11:48:26Z</time>
      </trkpt>
      <trkpt lat="45.23814" lon="3.87399">
        <ele>793.5</ele>
        <time>2018-06-07T11:48:30Z</time>
      </trkpt>
      <trkpt lat="45.23824" lon="3.87405">
        <ele>793.8</ele>
        <time>2018-06-07T11:48:32Z</time>
      </trkpt>
      <trkpt lat="45.2381" lon="3.87407">
        <ele>794.2</ele>
        <time>2018-06-07T11:48:35Z</time>
      </trkpt>
      <trkpt lat="45.23798" lon="3.87407">
        <ele>794.6</ele>
        <time>2018-06-07T11:48:39Z</time>
      </trkpt>
      <trkpt lat="45.23789" lon="3.87411">
        <ele>795</ele>
        <time>2018-06-07T11:48:42Z</time>
      </trkpt>
      <trkpt lat="45.2378" lon="3.87415">
        <ele>795.6</ele>
        <time>2018-06-07T11:48:47Z</time>
      </trkpt>
      <trkpt lat="45.23771" lon="3.87417">
        <ele>796.2</ele>
        <time>2018-06-07T11:48:56Z</time>
      </trkpt>
      <trkpt lat="45.23762" lon="3.87427">
        <ele>797.2</ele>
        <time>2018-06-07T11:49:11Z</time>
      </trkpt>
      <trkpt lat="45.23751" lon="3.87431">
        <ele>797.4</ele>
        <time>2018-06-07T11:49:14Z</time>
      </trkpt>
      <trkpt lat="45.23753" lon="3.87446">
        <ele>797.7</ele>
        <time>2018-06-07T11:49:23Z</time>
      </trkpt>
      <trkpt lat="45.23763" lon="3.87455">
        <ele>797.8</ele>
        <time>2018-06-07T11:49:26Z</time>
      </trkpt>
      <trkpt lat="45.23775" lon="3.87462">
        <ele>797.8</ele>
        <time>2018-06-07T11:49:28Z</time>
      </trkpt>
      <trkpt lat="45.23785" lon="3.87464">
        <ele>797.9</ele>
        <time>2018-06-07T11:49:30Z</time>
      </trkpt>
      <trkpt lat="45.23797" lon="3.87465">
        <ele>798.1</ele>
        <time>2018-06-07T11:49:38Z</time>
      </trkpt>
      <trkpt lat="45.2381" lon="3.87464">
        <ele>798.1</ele>
        <time>2018-06-07T11:49:40Z</time>
      </trkpt>
      <trkpt lat="45.23824" lon="3.8746">
        <ele>798.1</ele>
        <time>2018-06-07T11:49:42Z</time>
      </trkpt>
      <trkpt lat="45.23818" lon="3.8745">
        <ele>798.2</ele>
        <time>2018-06-07T11:49:49Z</time>
      </trkpt>
      <trkpt lat="45.23808" lon="3.87447">
        <ele>798.3</ele>
        <time>2018-06-07T11:49:51Z</time>
      </trkpt>
      <trkpt lat="45.23799" lon="3.87471">
        <ele>813</ele>
        <time>2018-06-07T11:53:20Z</time>
      </trkpt>
      <trkpt lat="45.23794" lon="3.87483">
        <ele>816.9</ele>
        <time>2018-06-07T11:53:59Z</time>
      </trkpt>
      <trkpt lat="45.23793" lon="3.87496">
        <ele>817.4</ele>
        <time>2018-06-07T11:54:04Z</time>
      </trkpt>
      <trkpt lat="45.23787" lon="3.87508">
        <ele>817.8</ele>
        <time>2018-06-07T11:54:08Z</time>
      </trkpt>
      <trkpt lat="45.2378" lon="3.87518">
        <ele>818.1</ele>
        <time>2018-06-07T11:54:11Z</time>
      </trkpt>
      <trkpt lat="45.23774" lon="3.87529">
        <ele>818.6</ele>
        <time>2018-06-07T11:54:15Z</time>
      </trkpt>
      <trkpt lat="45.23767" lon="3.87539">
        <ele>819.2</ele>
        <time>2018-06-07T11:54:19Z</time>
      </trkpt>
      <trkpt lat="45.2376" lon="3.87551">
        <ele>819.7</ele>
        <time>2018-06-07T11:54:23Z</time>
      </trkpt>
      <trkpt lat="45.23756" lon="3.87564">
        <ele>820.5</ele>
        <time>2018-06-07T11:54:30Z</time>
      </trkpt>
      <trkpt lat="45.2375" lon="3.87575">
        <ele>821</ele>
        <time>2018-06-07T11:54:34Z</time>
      </trkpt>
      <trkpt lat="45.23748" lon="3.87588">
        <ele>821.4</ele>
        <time>2018-06-07T11:54:38Z</time>
      </trkpt>
      <trkpt lat="45.23745" lon="3.87601">
        <ele>822.4</ele>
        <time>2018-06-07T11:54:46Z</time>
      </trkpt>
      <trkpt lat="45.23741" lon="3.87613">
        <ele>823.5</ele>
        <time>2018-06-07T11:54:55Z</time>
      </trkpt>
      <trkpt lat="45.23739" lon="3.87626">
        <ele>824.6</ele>
        <time>2018-06-07T11:55:05Z</time>
      </trkpt>
      <trkpt lat="45.23736" lon="3.87639">
        <ele>825.6</ele>
        <time>2018-06-07T11:55:16Z</time>
      </trkpt>
      <trkpt lat="45.23734" lon="3.87651">
        <ele>826.3</ele>
        <time>2018-06-07T11:55:24Z</time>
      </trkpt>
      <trkpt lat="45.23729" lon="3.87663">
        <ele>827</ele>
        <time>2018-06-07T11:55:32Z</time>
      </trkpt>
      <trkpt lat="45.23723" lon="3.87673">
        <ele>827.7</ele>
        <time>2018-06-07T11:55:40Z</time>
      </trkpt>
      <trkpt lat="45.23715" lon="3.87677">
        <ele>828.4</ele>
        <time>2018-06-07T11:55:50Z</time>
      </trkpt>
      <trkpt lat="45.23705" lon="3.87676">
        <ele>828.9</ele>
        <time>2018-06-07T11:55:57Z</time>
      </trkpt>
      <trkpt lat="45.23695" lon="3.87674">
        <ele>829.6</ele>
        <time>2018-06-07T11:56:05Z</time>
      </trkpt>
      <trkpt lat="45.23685" lon="3.87671">
        <ele>830.3</ele>
        <time>2018-06-07T11:56:13Z</time>
      </trkpt>
      <trkpt lat="45.23675" lon="3.87667">
        <ele>830.9</ele>
        <time>2018-06-07T11:56:20Z</time>
      </trkpt>
      <trkpt lat="45.23665" lon="3.87668">
        <ele>831.7</ele>
        <time>2018-06-07T11:56:29Z</time>
      </trkpt>
      <trkpt lat="45.23655" lon="3.87669">
        <ele>832.4</ele>
        <time>2018-06-07T11:56:37Z</time>
      </trkpt>
      <trkpt lat="45.23646" lon="3.8767">
        <ele>833.1</ele>
        <time>2018-06-07T11:56:44Z</time>
      </trkpt>
      <trkpt lat="45.23636" lon="3.87671">
        <ele>833.5</ele>
        <time>2018-06-07T11:56:51Z</time>
      </trkpt>
      <trkpt lat="45.23629" lon="3.87678">
        <ele>834.3</ele>
        <time>2018-06-07T11:56:59Z</time>
      </trkpt>
      <trkpt lat="45.23622" lon="3.87688">
        <ele>835.2</ele>
        <time>2018-06-07T11:57:07Z</time>
      </trkpt>
      <trkpt lat="45.23616" lon="3.87698">
        <ele>836.3</ele>
        <time>2018-06-07T11:57:16Z</time>
      </trkpt>
      <trkpt lat="45.23611" lon="3.8771">
        <ele>837.3</ele>
        <time>2018-06-07T11:57:25Z</time>
      </trkpt>
      <trkpt lat="45.23605" lon="3.8772">
        <ele>838.4</ele>
        <time>2018-06-07T11:57:33Z</time>
      </trkpt>
      <trkpt lat="45.23601" lon="3.87733">
        <ele>839.5</ele>
        <time>2018-06-07T11:57:41Z</time>
      </trkpt>
      <trkpt lat="45.23596" lon="3.87745">
        <ele>840.5</ele>
        <time>2018-06-07T11:57:50Z</time>
      </trkpt>
      <trkpt lat="45.23591" lon="3.87755">
        <ele>841.6</ele>
        <time>2018-06-07T11:58:00Z</time>
      </trkpt>
      <trkpt lat="45.23583" lon="3.87763">
        <ele>842.8</ele>
        <time>2018-06-07T11:58:11Z</time>
      </trkpt>
      <trkpt lat="45.23578" lon="3.87774">
        <ele>844.5</ele>
        <time>2018-06-07T11:58:32Z</time>
      </trkpt>
      <trkpt lat="45.23586" lon="3.87784">
        <ele>846.5</ele>
        <time>2018-06-07T11:59:45Z</time>
      </trkpt>
      <trkpt lat="45.23589" lon="3.87797">
        <ele>847</ele>
        <time>2018-06-07T12:00:08Z</time>
      </trkpt>
      <trkpt lat="45.23584" lon="3.87808">
        <ele>847.4</ele>
        <time>2018-06-07T12:03:26Z</time>
      </trkpt>
      <trkpt lat="45.23583" lon="3.87821">
        <ele>849</ele>
        <time>2018-06-07T12:03:40Z</time>
      </trkpt>
      <trkpt lat="45.23579" lon="3.87834">
        <ele>850.3</ele>
        <time>2018-06-07T12:03:50Z</time>
      </trkpt>
      <trkpt lat="45.23578" lon="3.87847">
        <ele>852.3</ele>
        <time>2018-06-07T12:04:04Z</time>
      </trkpt>
      <trkpt lat="45.23578" lon="3.8786">
        <ele>854</ele>
        <time>2018-06-07T12:04:18Z</time>
      </trkpt>
      <trkpt lat="45.23575" lon="3.87872">
        <ele>855.5</ele>
        <time>2018-06-07T12:04:31Z</time>
      </trkpt>
      <trkpt lat="45.23575" lon="3.87886">
        <ele>857</ele>
        <time>2018-06-07T12:04:46Z</time>
      </trkpt>
      <trkpt lat="45.23569" lon="3.87895">
        <ele>858.5</ele>
        <time>2018-06-07T12:04:59Z</time>
      </trkpt>
      <trkpt lat="45.2356" lon="3.87902">
        <ele>859.6</ele>
        <time>2018-06-07T12:05:08Z</time>
      </trkpt>
      <trkpt lat="45.23552" lon="3.8791">
        <ele>861.4</ele>
        <time>2018-06-07T12:05:21Z</time>
      </trkpt>
      <trkpt lat="45.23543" lon="3.87911">
        <ele>862.9</ele>
        <time>2018-06-07T12:05:33Z</time>
      </trkpt>
      <trkpt lat="45.23536" lon="3.87919">
        <ele>864.2</ele>
        <time>2018-06-07T12:05:44Z</time>
      </trkpt>
      <trkpt lat="45.23529" lon="3.87929">
        <ele>865.9</ele>
        <time>2018-06-07T12:05:57Z</time>
      </trkpt>
      <trkpt lat="45.23521" lon="3.87935">
        <ele>867.8</ele>
        <time>2018-06-07T12:06:12Z</time>
      </trkpt>
      <trkpt lat="45.23514" lon="3.87945">
        <ele>869.1</ele>
        <time>2018-06-07T12:06:23Z</time>
      </trkpt>
      <trkpt lat="45.23505" lon="3.87951">
        <ele>870.1</ele>
        <time>2018-06-07T12:06:36Z</time>
      </trkpt>
      <trkpt lat="45.23506" lon="3.87938">
        <ele>871.3</ele>
        <time>2018-06-07T12:06:52Z</time>
      </trkpt>
      <trkpt lat="45.23507" lon="3.87924">
        <ele>872.1</ele>
        <time>2018-06-07T12:07:03Z</time>
      </trkpt>
      <trkpt lat="45.23506" lon="3.8791">
        <ele>873</ele>
        <time>2018-06-07T12:07:12Z</time>
      </trkpt>
      <trkpt lat="45.23501" lon="3.87898">
        <ele>873.8</ele>
        <time>2018-06-07T12:07:20Z</time>
      </trkpt>
      <trkpt lat="45.23495" lon="3.87887">
        <ele>874.6</ele>
        <time>2018-06-07T12:07:29Z</time>
      </trkpt>
      <trkpt lat="45.23486" lon="3.87881">
        <ele>874.9</ele>
        <time>2018-06-07T12:07:36Z</time>
      </trkpt>
      <trkpt lat="45.23477" lon="3.87874">
        <ele>875.2</ele>
        <time>2018-06-07T12:07:43Z</time>
      </trkpt>
      <trkpt lat="45.23468" lon="3.87872">
        <ele>875.3</ele>
        <time>2018-06-07T12:07:50Z</time>
      </trkpt>
      <trkpt lat="45.23458" lon="3.87871">
        <ele>875.4</ele>
        <time>2018-06-07T12:07:59Z</time>
      </trkpt>
      <trkpt lat="45.23449" lon="3.87867">
        <ele>875.5</ele>
        <time>2018-06-07T12:08:10Z</time>
      </trkpt>
      <trkpt lat="45.23441" lon="3.87859">
        <ele>875.5</ele>
        <time>2018-06-07T12:08:20Z</time>
      </trkpt>
      <trkpt lat="45.23435" lon="3.87848">
        <ele>876.2</ele>
        <time>2018-06-07T12:08:33Z</time>
      </trkpt>
      <trkpt lat="45.23429" lon="3.87838">
        <ele>877.4</ele>
        <time>2018-06-07T12:08:47Z</time>
      </trkpt>
      <trkpt lat="45.23425" lon="3.87826">
        <ele>879.2</ele>
        <time>2018-06-07T12:09:00Z</time>
      </trkpt>
      <trkpt lat="45.23417" lon="3.8782">
        <ele>879.9</ele>
        <time>2018-06-07T12:09:05Z</time>
      </trkpt>
      <trkpt lat="45.23417" lon="3.87806">
        <ele>882.3</ele>
        <time>2018-06-07T12:09:24Z</time>
      </trkpt>
      <trkpt lat="45.23409" lon="3.87797">
        <ele>883.2</ele>
        <time>2018-06-07T12:09:31Z</time>
      </trkpt>
      <trkpt lat="45.23403" lon="3.87787">
        <ele>884.8</ele>
        <time>2018-06-07T12:09:43Z</time>
      </trkpt>
      <trkpt lat="45.23401" lon="3.87774">
        <ele>886.2</ele>
        <time>2018-06-07T12:09:52Z</time>
      </trkpt>
      <trkpt lat="45.23395" lon="3.87763">
        <ele>887.8</ele>
        <time>2018-06-07T12:10:04Z</time>
      </trkpt>
      <trkpt lat="45.23387" lon="3.87753">
        <ele>888.7</ele>
        <time>2018-06-07T12:10:11Z</time>
      </trkpt>
      <trkpt lat="45.23382" lon="3.87741">
        <ele>889.6</ele>
        <time>2018-06-07T12:10:18Z</time>
      </trkpt>
      <trkpt lat="45.23376" lon="3.87731">
        <ele>890.6</ele>
        <time>2018-06-07T12:10:27Z</time>
      </trkpt>
      <trkpt lat="45.23371" lon="3.87716">
        <ele>892</ele>
        <time>2018-06-07T12:10:40Z</time>
      </trkpt>
      <trkpt lat="45.23364" lon="3.87708">
        <ele>892.7</ele>
        <time>2018-06-07T12:10:46Z</time>
      </trkpt>
      <trkpt lat="45.2336" lon="3.87696">
        <ele>893.9</ele>
        <time>2018-06-07T12:10:56Z</time>
      </trkpt>
      <trkpt lat="45.23352" lon="3.87688">
        <ele>895</ele>
        <time>2018-06-07T12:11:05Z</time>
      </trkpt>
      <trkpt lat="45.23347" lon="3.87677">
        <ele>896.9</ele>
        <time>2018-06-07T12:11:17Z</time>
      </trkpt>
      <trkpt lat="45.23341" lon="3.87667">
        <ele>899.5</ele>
        <time>2018-06-07T12:11:33Z</time>
      </trkpt>
      <trkpt lat="45.23331" lon="3.87662">
        <ele>900.8</ele>
        <time>2018-06-07T12:11:42Z</time>
      </trkpt>
      <trkpt lat="45.23324" lon="3.87654">
        <ele>902</ele>
        <time>2018-06-07T12:11:51Z</time>
      </trkpt>
      <trkpt lat="45.23317" lon="3.87645">
        <ele>902.9</ele>
        <time>2018-06-07T12:11:58Z</time>
      </trkpt>
      <trkpt lat="45.23308" lon="3.87638">
        <ele>903.8</ele>
        <time>2018-06-07T12:12:05Z</time>
      </trkpt>
      <trkpt lat="45.23299" lon="3.87635">
        <ele>904.6</ele>
        <time>2018-06-07T12:12:11Z</time>
      </trkpt>
      <trkpt lat="45.23292" lon="3.87644">
        <ele>905.5</ele>
        <time>2018-06-07T12:12:17Z</time>
      </trkpt>
      <trkpt lat="45.23289" lon="3.87656">
        <ele>906.7</ele>
        <time>2018-06-07T12:12:25Z</time>
      </trkpt>
      <trkpt lat="45.23288" lon="3.8767">
        <ele>908.5</ele>
        <time>2018-06-07T12:12:36Z</time>
      </trkpt>
      <trkpt lat="45.23289" lon="3.87684">
        <ele>910.1</ele>
        <time>2018-06-07T12:12:47Z</time>
      </trkpt>
      <trkpt lat="45.23294" lon="3.87695">
        <ele>914.9</ele>
        <time>2018-06-07T12:14:25Z</time>
      </trkpt>
      <trkpt lat="45.23297" lon="3.87708">
        <ele>920</ele>
        <time>2018-06-07T12:19:26Z</time>
      </trkpt>
      <trkpt lat="45.23299" lon="3.87721">
        <ele>920.3</ele>
        <time>2018-06-07T12:19:32Z</time>
      </trkpt>
      <trkpt lat="45.23299" lon="3.87736">
        <ele>920.7</ele>
        <time>2018-06-07T12:19:39Z</time>
      </trkpt>
      <trkpt lat="45.233" lon="3.87749">
        <ele>921.3</ele>
        <time>2018-06-07T12:19:48Z</time>
      </trkpt>
      <trkpt lat="45.23299" lon="3.87763">
        <ele>922.3</ele>
        <time>2018-06-07T12:20:00Z</time>
      </trkpt>
      <trkpt lat="45.23303" lon="3.87776">
        <ele>922.7</ele>
        <time>2018-06-07T12:20:06Z</time>
      </trkpt>
      <trkpt lat="45.2331" lon="3.87786">
        <ele>923.3</ele>
        <time>2018-06-07T12:20:14Z</time>
      </trkpt>
      <trkpt lat="45.23313" lon="3.87798">
        <ele>923.9</ele>
        <time>2018-06-07T12:20:23Z</time>
      </trkpt>
      <trkpt lat="45.23319" lon="3.87808">
        <ele>924.6</ele>
        <time>2018-06-07T12:20:37Z</time>
      </trkpt>
      <trkpt lat="45.23322" lon="3.87821">
        <ele>925.3</ele>
        <time>2018-06-07T12:20:49Z</time>
      </trkpt>
      <trkpt lat="45.23328" lon="3.87835">
        <ele>925.5</ele>
        <time>2018-06-07T12:20:54Z</time>
      </trkpt>
      <trkpt lat="45.23332" lon="3.87865">
        <ele>926</ele>
        <time>2018-06-07T12:21:15Z</time>
      </trkpt>
      <trkpt lat="45.23336" lon="3.87877">
        <ele>926.5</ele>
        <time>2018-06-07T12:21:22Z</time>
      </trkpt>
      <trkpt lat="45.23339" lon="3.87891">
        <ele>926.7</ele>
        <time>2018-06-07T12:21:28Z</time>
      </trkpt>
      <trkpt lat="45.23342" lon="3.87904">
        <ele>926.9</ele>
        <time>2018-06-07T12:21:35Z</time>
      </trkpt>
      <trkpt lat="45.23342" lon="3.87917">
        <ele>927.1</ele>
        <time>2018-06-07T12:21:44Z</time>
      </trkpt>
      <trkpt lat="45.23341" lon="3.8793">
        <ele>927.3</ele>
        <time>2018-06-07T12:21:52Z</time>
      </trkpt>
      <trkpt lat="45.23344" lon="3.87947">
        <ele>927.4</ele>
        <time>2018-06-07T12:21:57Z</time>
      </trkpt>
      <trkpt lat="45.23348" lon="3.87961">
        <ele>927.5</ele>
        <time>2018-06-07T12:22:03Z</time>
      </trkpt>
      <trkpt lat="45.23352" lon="3.87974">
        <ele>927.6</ele>
        <time>2018-06-07T12:22:10Z</time>
      </trkpt>
      <trkpt lat="45.23359" lon="3.87983">
        <ele>927.7</ele>
        <time>2018-06-07T12:22:18Z</time>
      </trkpt>
      <trkpt lat="45.23364" lon="3.87994">
        <ele>927.8</ele>
        <time>2018-06-07T12:22:27Z</time>
      </trkpt>
      <trkpt lat="45.2337" lon="3.88004">
        <ele>928</ele>
        <time>2018-06-07T12:22:37Z</time>
      </trkpt>
      <trkpt lat="45.23375" lon="3.88015">
        <ele>928.5</ele>
        <time>2018-06-07T12:22:46Z</time>
      </trkpt>
      <trkpt lat="45.2338" lon="3.88027">
        <ele>928.7</ele>
        <time>2018-06-07T12:22:54Z</time>
      </trkpt>
      <trkpt lat="45.23382" lon="3.8804">
        <ele>929</ele>
        <time>2018-06-07T12:23:03Z</time>
      </trkpt>
      <trkpt lat="45.23385" lon="3.88052">
        <ele>929.1</ele>
        <time>2018-06-07T12:23:10Z</time>
      </trkpt>
      <trkpt lat="45.23387" lon="3.88065">
        <ele>929.5</ele>
        <time>2018-06-07T12:23:23Z</time>
      </trkpt>
      <trkpt lat="45.23389" lon="3.88078">
        <ele>929.9</ele>
        <time>2018-06-07T12:23:37Z</time>
      </trkpt>
      <trkpt lat="45.23393" lon="3.8809">
        <ele>930.2</ele>
        <time>2018-06-07T12:23:46Z</time>
      </trkpt>
      <trkpt lat="45.23395" lon="3.88103">
        <ele>930.6</ele>
        <time>2018-06-07T12:23:57Z</time>
      </trkpt>
      <trkpt lat="45.23397" lon="3.88116">
        <ele>930.8</ele>
        <time>2018-06-07T12:24:06Z</time>
      </trkpt>
      <trkpt lat="45.23399" lon="3.88129">
        <ele>931</ele>
        <time>2018-06-07T12:24:15Z</time>
      </trkpt>
      <trkpt lat="45.23401" lon="3.88144">
        <ele>931.1</ele>
        <time>2018-06-07T12:24:23Z</time>
      </trkpt>
      <trkpt lat="45.23406" lon="3.88156">
        <ele>931.2</ele>
        <time>2018-06-07T12:24:33Z</time>
      </trkpt>
      <trkpt lat="45.23405" lon="3.88169">
        <ele>931.4</ele>
        <time>2018-06-07T12:24:44Z</time>
      </trkpt>
      <trkpt lat="45.234" lon="3.88181">
        <ele>931.7</ele>
        <time>2018-06-07T12:24:53Z</time>
      </trkpt>
      <trkpt lat="45.23394" lon="3.88194">
        <ele>932.7</ele>
        <time>2018-06-07T12:25:04Z</time>
      </trkpt>
      <trkpt lat="45.23388" lon="3.88206">
        <ele>933.6</ele>
        <time>2018-06-07T12:25:15Z</time>
      </trkpt>
      <trkpt lat="45.23385" lon="3.88219">
        <ele>934.2</ele>
        <time>2018-06-07T12:25:23Z</time>
      </trkpt>
      <trkpt lat="45.23381" lon="3.88232">
        <ele>935</ele>
        <time>2018-06-07T12:25:32Z</time>
      </trkpt>
      <trkpt lat="45.2338" lon="3.88245">
        <ele>935.7</ele>
        <time>2018-06-07T12:25:41Z</time>
      </trkpt>
      <trkpt lat="45.23377" lon="3.88258">
        <ele>936.4</ele>
        <time>2018-06-07T12:25:51Z</time>
      </trkpt>
      <trkpt lat="45.23378" lon="3.88272">
        <ele>937.1</ele>
        <time>2018-06-07T12:26:00Z</time>
      </trkpt>
      <trkpt lat="45.23384" lon="3.88284">
        <ele>937.9</ele>
        <time>2018-06-07T12:26:10Z</time>
      </trkpt>
      <trkpt lat="45.23385" lon="3.88297">
        <ele>938.5</ele>
        <time>2018-06-07T12:26:18Z</time>
      </trkpt>
      <trkpt lat="45.23385" lon="3.8831">
        <ele>939</ele>
        <time>2018-06-07T12:26:26Z</time>
      </trkpt>
      <trkpt lat="45.23389" lon="3.88322">
        <ele>939.5</ele>
        <time>2018-06-07T12:26:34Z</time>
      </trkpt>
      <trkpt lat="45.23392" lon="3.88337">
        <ele>940.1</ele>
        <time>2018-06-07T12:26:42Z</time>
      </trkpt>
      <trkpt lat="45.23393" lon="3.8835">
        <ele>940.5</ele>
        <time>2018-06-07T12:26:49Z</time>
      </trkpt>
      <trkpt lat="45.23396" lon="3.88364">
        <ele>941</ele>
        <time>2018-06-07T12:26:56Z</time>
      </trkpt>
      <trkpt lat="45.23398" lon="3.88377">
        <ele>941.4</ele>
        <time>2018-06-07T12:27:03Z</time>
      </trkpt>
      <trkpt lat="45.23399" lon="3.88393">
        <ele>941.9</ele>
        <time>2018-06-07T12:27:10Z</time>
      </trkpt>
      <trkpt lat="45.23401" lon="3.88406">
        <ele>942.3</ele>
        <time>2018-06-07T12:27:17Z</time>
      </trkpt>
      <trkpt lat="45.23405" lon="3.88419">
        <ele>942.7</ele>
        <time>2018-06-07T12:27:25Z</time>
      </trkpt>
      <trkpt lat="45.2341" lon="3.88431">
        <ele>943.1</ele>
        <time>2018-06-07T12:27:31Z</time>
      </trkpt>
      <trkpt lat="45.23414" lon="3.88443">
        <ele>943.4</ele>
        <time>2018-06-07T12:27:38Z</time>
      </trkpt>
      <trkpt lat="45.23419" lon="3.88454">
        <ele>943.6</ele>
        <time>2018-06-07T12:27:44Z</time>
      </trkpt>
      <trkpt lat="45.23424" lon="3.88466">
        <ele>943.7</ele>
        <time>2018-06-07T12:27:52Z</time>
      </trkpt>
      <trkpt lat="45.23428" lon="3.88478">
        <ele>943.5</ele>
        <time>2018-06-07T12:28:00Z</time>
      </trkpt>
      <trkpt lat="45.23433" lon="3.88488">
        <ele>943</ele>
        <time>2018-06-07T12:28:09Z</time>
      </trkpt>
      <trkpt lat="45.23439" lon="3.885">
        <ele>942.1</ele>
        <time>2018-06-07T12:28:18Z</time>
      </trkpt>
      <trkpt lat="45.23445" lon="3.8851">
        <ele>941.1</ele>
        <time>2018-06-07T12:28:27Z</time>
      </trkpt>
      <trkpt lat="45.23451" lon="3.88521">
        <ele>940.1</ele>
        <time>2018-06-07T12:28:35Z</time>
      </trkpt>
      <trkpt lat="45.23457" lon="3.88531">
        <ele>938.9</ele>
        <time>2018-06-07T12:28:45Z</time>
      </trkpt>
      <trkpt lat="45.23461" lon="3.88544">
        <ele>937.8</ele>
        <time>2018-06-07T12:28:55Z</time>
      </trkpt>
      <trkpt lat="45.23465" lon="3.88555">
        <ele>937.2</ele>
        <time>2018-06-07T12:29:03Z</time>
      </trkpt>
      <trkpt lat="45.2347" lon="3.88567">
        <ele>936.5</ele>
        <time>2018-06-07T12:29:10Z</time>
      </trkpt>
      <trkpt lat="45.23475" lon="3.8858">
        <ele>935.9</ele>
        <time>2018-06-07T12:29:18Z</time>
      </trkpt>
      <trkpt lat="45.2348" lon="3.88592">
        <ele>935.4</ele>
        <time>2018-06-07T12:29:25Z</time>
      </trkpt>
      <trkpt lat="45.23484" lon="3.88606">
        <ele>934.9</ele>
        <time>2018-06-07T12:29:33Z</time>
      </trkpt>
      <trkpt lat="45.23489" lon="3.88618">
        <ele>934.7</ele>
        <time>2018-06-07T12:29:38Z</time>
      </trkpt>
      <trkpt lat="45.23492" lon="3.88632">
        <ele>934.5</ele>
        <time>2018-06-07T12:29:45Z</time>
      </trkpt>
      <trkpt lat="45.23496" lon="3.88645">
        <ele>934.4</ele>
        <time>2018-06-07T12:29:56Z</time>
      </trkpt>
      <trkpt lat="45.23499" lon="3.88657">
        <ele>935.1</ele>
        <time>2018-06-07T12:30:06Z</time>
      </trkpt>
      <trkpt lat="45.23499" lon="3.8867">
        <ele>936.9</ele>
        <time>2018-06-07T12:30:20Z</time>
      </trkpt>
      <trkpt lat="45.23497" lon="3.88684">
        <ele>938.9</ele>
        <time>2018-06-07T12:30:33Z</time>
      </trkpt>
      <trkpt lat="45.23497" lon="3.88698">
        <ele>940.3</ele>
        <time>2018-06-07T12:30:41Z</time>
      </trkpt>
      <trkpt lat="45.23495" lon="3.88711">
        <ele>941.8</ele>
        <time>2018-06-07T12:30:50Z</time>
      </trkpt>
      <trkpt lat="45.23496" lon="3.88724">
        <ele>943.2</ele>
        <time>2018-06-07T12:31:00Z</time>
      </trkpt>
      <trkpt lat="45.23495" lon="3.88738">
        <ele>944.3</ele>
        <time>2018-06-07T12:31:09Z</time>
      </trkpt>
      <trkpt lat="45.23497" lon="3.8875">
        <ele>945.5</ele>
        <time>2018-06-07T12:31:20Z</time>
      </trkpt>
      <trkpt lat="45.23498" lon="3.88763">
        <ele>946.1</ele>
        <time>2018-06-07T12:31:28Z</time>
      </trkpt>
      <trkpt lat="45.235" lon="3.88777">
        <ele>946.6</ele>
        <time>2018-06-07T12:31:38Z</time>
      </trkpt>
      <trkpt lat="45.23502" lon="3.8879">
        <ele>946.9</ele>
        <time>2018-06-07T12:31:47Z</time>
      </trkpt>
      <trkpt lat="45.23504" lon="3.88803">
        <ele>946.7</ele>
        <time>2018-06-07T12:31:57Z</time>
      </trkpt>
      <trkpt lat="45.23505" lon="3.88816">
        <ele>946.5</ele>
        <time>2018-06-07T12:32:05Z</time>
      </trkpt>
      <trkpt lat="45.23507" lon="3.8883">
        <ele>946.2</ele>
        <time>2018-06-07T12:32:15Z</time>
      </trkpt>
      <trkpt lat="45.23506" lon="3.88843">
        <ele>946</ele>
        <time>2018-06-07T12:32:24Z</time>
      </trkpt>
      <trkpt lat="45.23507" lon="3.88856">
        <ele>945.9</ele>
        <time>2018-06-07T12:32:31Z</time>
      </trkpt>
      <trkpt lat="45.23509" lon="3.8887">
        <ele>945.7</ele>
        <time>2018-06-07T12:32:40Z</time>
      </trkpt>
      <trkpt lat="45.2351" lon="3.88883">
        <ele>945.7</ele>
        <time>2018-06-07T12:32:48Z</time>
      </trkpt>
      <trkpt lat="45.2351" lon="3.88896">
        <ele>945.7</ele>
        <time>2018-06-07T12:32:56Z</time>
      </trkpt>
      <trkpt lat="45.2351" lon="3.88909">
        <ele>945.7</ele>
        <time>2018-06-07T12:33:05Z</time>
      </trkpt>
      <trkpt lat="45.23508" lon="3.88923">
        <ele>945.8</ele>
        <time>2018-06-07T12:33:13Z</time>
      </trkpt>
      <trkpt lat="45.23505" lon="3.88936">
        <ele>946.1</ele>
        <time>2018-06-07T12:33:21Z</time>
      </trkpt>
      <trkpt lat="45.235" lon="3.88949">
        <ele>946.8</ele>
        <time>2018-06-07T12:33:30Z</time>
      </trkpt>
      <trkpt lat="45.23497" lon="3.88962">
        <ele>947.5</ele>
        <time>2018-06-07T12:33:39Z</time>
      </trkpt>
      <trkpt lat="45.23495" lon="3.88974">
        <ele>948.2</ele>
        <time>2018-06-07T12:33:48Z</time>
      </trkpt>
      <trkpt lat="45.23493" lon="3.88987">
        <ele>948.7</ele>
        <time>2018-06-07T12:33:56Z</time>
      </trkpt>
      <trkpt lat="45.23491" lon="3.89001">
        <ele>949.3</ele>
        <time>2018-06-07T12:34:05Z</time>
      </trkpt>
      <trkpt lat="45.23489" lon="3.89013">
        <ele>949.8</ele>
        <time>2018-06-07T12:34:14Z</time>
      </trkpt>
      <trkpt lat="45.23486" lon="3.89027">
        <ele>950.5</ele>
        <time>2018-06-07T12:34:24Z</time>
      </trkpt>
      <trkpt lat="45.23483" lon="3.8904">
        <ele>951</ele>
        <time>2018-06-07T12:34:31Z</time>
      </trkpt>
      <trkpt lat="45.23482" lon="3.89053">
        <ele>951.3</ele>
        <time>2018-06-07T12:34:38Z</time>
      </trkpt>
      <trkpt lat="45.23483" lon="3.89066">
        <ele>951.6</ele>
        <time>2018-06-07T12:34:45Z</time>
      </trkpt>
      <trkpt lat="45.23484" lon="3.8908">
        <ele>951.7</ele>
        <time>2018-06-07T12:34:52Z</time>
      </trkpt>
      <trkpt lat="45.23485" lon="3.89093">
        <ele>951.6</ele>
        <time>2018-06-07T12:34:59Z</time>
      </trkpt>
      <trkpt lat="45.23485" lon="3.89107">
        <ele>951.5</ele>
        <time>2018-06-07T12:35:08Z</time>
      </trkpt>
      <trkpt lat="45.23488" lon="3.8912">
        <ele>951.1</ele>
        <time>2018-06-07T12:35:17Z</time>
      </trkpt>
      <trkpt lat="45.23489" lon="3.89134">
        <ele>950.7</ele>
        <time>2018-06-07T12:35:26Z</time>
      </trkpt>
      <trkpt lat="45.23489" lon="3.89149">
        <ele>950.4</ele>
        <time>2018-06-07T12:35:35Z</time>
      </trkpt>
      <trkpt lat="45.23487" lon="3.89163">
        <ele>950.2</ele>
        <time>2018-06-07T12:35:42Z</time>
      </trkpt>
      <trkpt lat="45.23486" lon="3.89175">
        <ele>949.9</ele>
        <time>2018-06-07T12:35:49Z</time>
      </trkpt>
      <trkpt lat="45.23487" lon="3.89189">
        <ele>949.8</ele>
        <time>2018-06-07T12:35:58Z</time>
      </trkpt>
      <trkpt lat="45.2349" lon="3.89202">
        <ele>949.7</ele>
        <time>2018-06-07T12:36:07Z</time>
      </trkpt>
      <trkpt lat="45.23495" lon="3.89214">
        <ele>949.8</ele>
        <time>2018-06-07T12:36:15Z</time>
      </trkpt>
      <trkpt lat="45.235" lon="3.89225">
        <ele>949.8</ele>
        <time>2018-06-07T12:36:22Z</time>
      </trkpt>
      <trkpt lat="45.23503" lon="3.89238">
        <ele>949.9</ele>
        <time>2018-06-07T12:36:31Z</time>
      </trkpt>
      <trkpt lat="45.23504" lon="3.89251">
        <ele>950.2</ele>
        <time>2018-06-07T12:36:42Z</time>
      </trkpt>
      <trkpt lat="45.23503" lon="3.89263">
        <ele>951.4</ele>
        <time>2018-06-07T12:37:08Z</time>
      </trkpt>
      <trkpt lat="45.23504" lon="3.89278">
        <ele>951.8</ele>
        <time>2018-06-07T12:37:21Z</time>
      </trkpt>
      <trkpt lat="45.23502" lon="3.89291">
        <ele>952</ele>
        <time>2018-06-07T12:37:31Z</time>
      </trkpt>
      <trkpt lat="45.23496" lon="3.89302">
        <ele>952.1</ele>
        <time>2018-06-07T12:37:40Z</time>
      </trkpt>
      <trkpt lat="45.23489" lon="3.89311">
        <ele>952.4</ele>
        <time>2018-06-07T12:37:47Z</time>
      </trkpt>
      <trkpt lat="45.23482" lon="3.89321">
        <ele>952.8</ele>
        <time>2018-06-07T12:37:56Z</time>
      </trkpt>
      <trkpt lat="45.23477" lon="3.89332">
        <ele>953.3</ele>
        <time>2018-06-07T12:38:05Z</time>
      </trkpt>
      <trkpt lat="45.23469" lon="3.8934">
        <ele>954</ele>
        <time>2018-06-07T12:38:15Z</time>
      </trkpt>
      <trkpt lat="45.2346" lon="3.89346">
        <ele>954.8</ele>
        <time>2018-06-07T12:38:24Z</time>
      </trkpt>
      <trkpt lat="45.23452" lon="3.89354">
        <ele>956.6</ele>
        <time>2018-06-07T12:38:41Z</time>
      </trkpt>
      <trkpt lat="45.23443" lon="3.89356">
        <ele>957.6</ele>
        <time>2018-06-07T12:38:49Z</time>
      </trkpt>
      <trkpt lat="45.23434" lon="3.89356">
        <ele>958.8</ele>
        <time>2018-06-07T12:38:57Z</time>
      </trkpt>
      <trkpt lat="45.23425" lon="3.89357">
        <ele>960.2</ele>
        <time>2018-06-07T12:39:06Z</time>
      </trkpt>
      <trkpt lat="45.23416" lon="3.89359">
        <ele>962</ele>
        <time>2018-06-07T12:39:17Z</time>
      </trkpt>
      <trkpt lat="45.23407" lon="3.89359">
        <ele>963.6</ele>
        <time>2018-06-07T12:39:27Z</time>
      </trkpt>
      <trkpt lat="45.23398" lon="3.89362">
        <ele>964.8</ele>
        <time>2018-06-07T12:39:35Z</time>
      </trkpt>
      <trkpt lat="45.23389" lon="3.89366">
        <ele>966.1</ele>
        <time>2018-06-07T12:39:43Z</time>
      </trkpt>
      <trkpt lat="45.23379" lon="3.89369">
        <ele>967.4</ele>
        <time>2018-06-07T12:39:52Z</time>
      </trkpt>
      <trkpt lat="45.2337" lon="3.89373">
        <ele>968.5</ele>
        <time>2018-06-07T12:40:01Z</time>
      </trkpt>
      <trkpt lat="45.23361" lon="3.8938">
        <ele>969.6</ele>
        <time>2018-06-07T12:40:10Z</time>
      </trkpt>
      <trkpt lat="45.23354" lon="3.89389">
        <ele>970.5</ele>
        <time>2018-06-07T12:40:19Z</time>
      </trkpt>
      <trkpt lat="45.23347" lon="3.89398">
        <ele>971.1</ele>
        <time>2018-06-07T12:40:27Z</time>
      </trkpt>
      <trkpt lat="45.23341" lon="3.89409">
        <ele>971.9</ele>
        <time>2018-06-07T12:40:36Z</time>
      </trkpt>
      <trkpt lat="45.23335" lon="3.89419">
        <ele>972.5</ele>
        <time>2018-06-07T12:40:44Z</time>
      </trkpt>
      <trkpt lat="45.23331" lon="3.8943">
        <ele>973.2</ele>
        <time>2018-06-07T12:40:53Z</time>
      </trkpt>
      <trkpt lat="45.23325" lon="3.89442">
        <ele>973.9</ele>
        <time>2018-06-07T12:41:03Z</time>
      </trkpt>
      <trkpt lat="45.2332" lon="3.89453">
        <ele>974.5</ele>
        <time>2018-06-07T12:41:11Z</time>
      </trkpt>
      <trkpt lat="45.23315" lon="3.89464">
        <ele>975.1</ele>
        <time>2018-06-07T12:41:20Z</time>
      </trkpt>
      <trkpt lat="45.2331" lon="3.89474">
        <ele>975.8</ele>
        <time>2018-06-07T12:41:30Z</time>
      </trkpt>
      <trkpt lat="45.23304" lon="3.89485">
        <ele>976.2</ele>
        <time>2018-06-07T12:41:39Z</time>
      </trkpt>
      <trkpt lat="45.23298" lon="3.89495">
        <ele>976.7</ele>
        <time>2018-06-07T12:41:48Z</time>
      </trkpt>
      <trkpt lat="45.2329" lon="3.89504">
        <ele>977.1</ele>
        <time>2018-06-07T12:41:57Z</time>
      </trkpt>
      <trkpt lat="45.23284" lon="3.89513">
        <ele>977.5</ele>
        <time>2018-06-07T12:42:06Z</time>
      </trkpt>
      <trkpt lat="45.23278" lon="3.89523">
        <ele>977.9</ele>
        <time>2018-06-07T12:42:14Z</time>
      </trkpt>
      <trkpt lat="45.23273" lon="3.89534">
        <ele>978.3</ele>
        <time>2018-06-07T12:42:22Z</time>
      </trkpt>
      <trkpt lat="45.23267" lon="3.89544">
        <ele>979</ele>
        <time>2018-06-07T12:42:31Z</time>
      </trkpt>
      <trkpt lat="45.23261" lon="3.89554">
        <ele>979.5</ele>
        <time>2018-06-07T12:42:39Z</time>
      </trkpt>
      <trkpt lat="45.23255" lon="3.89565">
        <ele>980.3</ele>
        <time>2018-06-07T12:42:48Z</time>
      </trkpt>
      <trkpt lat="45.2325" lon="3.89576">
        <ele>980.8</ele>
        <time>2018-06-07T12:42:56Z</time>
      </trkpt>
      <trkpt lat="45.23243" lon="3.89586">
        <ele>981.3</ele>
        <time>2018-06-07T12:43:04Z</time>
      </trkpt>
      <trkpt lat="45.23237" lon="3.89596">
        <ele>981.9</ele>
        <time>2018-06-07T12:43:13Z</time>
      </trkpt>
      <trkpt lat="45.2323" lon="3.89606">
        <ele>982.4</ele>
        <time>2018-06-07T12:43:22Z</time>
      </trkpt>
      <trkpt lat="45.23235" lon="3.89618">
        <ele>984.3</ele>
        <time>2018-06-07T12:49:16Z</time>
      </trkpt>
      <trkpt lat="45.23244" lon="3.89621">
        <ele>984.3</ele>
        <time>2018-06-07T12:49:24Z</time>
      </trkpt>
      <trkpt lat="45.23253" lon="3.89624">
        <ele>984.3</ele>
        <time>2018-06-07T12:49:30Z</time>
      </trkpt>
      <trkpt lat="45.23263" lon="3.89626">
        <ele>984.3</ele>
        <time>2018-06-07T12:49:37Z</time>
      </trkpt>
      <trkpt lat="45.23272" lon="3.89629">
        <ele>984.2</ele>
        <time>2018-06-07T12:49:44Z</time>
      </trkpt>
      <trkpt lat="45.23282" lon="3.89633">
        <ele>984</ele>
        <time>2018-06-07T12:49:53Z</time>
      </trkpt>
      <trkpt lat="45.23291" lon="3.89638">
        <ele>983.7</ele>
        <time>2018-06-07T12:50:03Z</time>
      </trkpt>
      <trkpt lat="45.23299" lon="3.89643">
        <ele>983.5</ele>
        <time>2018-06-07T12:50:11Z</time>
      </trkpt>
      <trkpt lat="45.23309" lon="3.89644">
        <ele>983.4</ele>
        <time>2018-06-07T12:50:18Z</time>
      </trkpt>
      <trkpt lat="45.23318" lon="3.89648">
        <ele>983.3</ele>
        <time>2018-06-07T12:50:26Z</time>
      </trkpt>
      <trkpt lat="45.23326" lon="3.89653">
        <ele>983.3</ele>
        <time>2018-06-07T12:50:33Z</time>
      </trkpt>
      <trkpt lat="45.23334" lon="3.8966">
        <ele>983.3</ele>
        <time>2018-06-07T12:50:40Z</time>
      </trkpt>
      <trkpt lat="45.23343" lon="3.89667">
        <ele>983.3</ele>
        <time>2018-06-07T12:50:49Z</time>
      </trkpt>
      <trkpt lat="45.23351" lon="3.89673">
        <ele>983.3</ele>
        <time>2018-06-07T12:50:57Z</time>
      </trkpt>
      <trkpt lat="45.2336" lon="3.89678">
        <ele>983.2</ele>
        <time>2018-06-07T12:51:05Z</time>
      </trkpt>
      <trkpt lat="45.23368" lon="3.89686">
        <ele>983.2</ele>
        <time>2018-06-07T12:51:13Z</time>
      </trkpt>
      <trkpt lat="45.23377" lon="3.89692">
        <ele>983.2</ele>
        <time>2018-06-07T12:51:22Z</time>
      </trkpt>
      <trkpt lat="45.23385" lon="3.89701">
        <ele>983.2</ele>
        <time>2018-06-07T12:51:30Z</time>
      </trkpt>
      <trkpt lat="45.23394" lon="3.89707">
        <ele>983.2</ele>
        <time>2018-06-07T12:51:38Z</time>
      </trkpt>
      <trkpt lat="45.23402" lon="3.89715">
        <ele>983.2</ele>
        <time>2018-06-07T12:51:47Z</time>
      </trkpt>
      <trkpt lat="45.23412" lon="3.89719">
        <ele>983.2</ele>
        <time>2018-06-07T12:51:55Z</time>
      </trkpt>
      <trkpt lat="45.2342" lon="3.89727">
        <ele>983.2</ele>
        <time>2018-06-07T12:52:04Z</time>
      </trkpt>
      <trkpt lat="45.23428" lon="3.89737">
        <ele>983.2</ele>
        <time>2018-06-07T12:52:12Z</time>
      </trkpt>
      <trkpt lat="45.23435" lon="3.89746">
        <ele>983.3</ele>
        <time>2018-06-07T12:52:21Z</time>
      </trkpt>
      <trkpt lat="45.23443" lon="3.89753">
        <ele>984.1</ele>
        <time>2018-06-07T12:52:42Z</time>
      </trkpt>
      <trkpt lat="45.23452" lon="3.89759">
        <ele>984.4</ele>
        <time>2018-06-07T12:52:51Z</time>
      </trkpt>
      <trkpt lat="45.2346" lon="3.89766">
        <ele>985</ele>
        <time>2018-06-07T12:53:00Z</time>
      </trkpt>
      <trkpt lat="45.23468" lon="3.89774">
        <ele>985.5</ele>
        <time>2018-06-07T12:53:09Z</time>
      </trkpt>
      <trkpt lat="45.23476" lon="3.89783">
        <ele>985.9</ele>
        <time>2018-06-07T12:53:18Z</time>
      </trkpt>
      <trkpt lat="45.23482" lon="3.89793">
        <ele>986.5</ele>
        <time>2018-06-07T12:53:27Z</time>
      </trkpt>
      <trkpt lat="45.23489" lon="3.89801">
        <ele>987</ele>
        <time>2018-06-07T12:53:37Z</time>
      </trkpt>
      <trkpt lat="45.23498" lon="3.89806">
        <ele>987.6</ele>
        <time>2018-06-07T12:53:49Z</time>
      </trkpt>
      <trkpt lat="45.23506" lon="3.89812">
        <ele>988.1</ele>
        <time>2018-06-07T12:53:58Z</time>
      </trkpt>
      <trkpt lat="45.23514" lon="3.89821">
        <ele>988.8</ele>
        <time>2018-06-07T12:54:08Z</time>
      </trkpt>
      <trkpt lat="45.23519" lon="3.89832">
        <ele>989.6</ele>
        <time>2018-06-07T12:54:16Z</time>
      </trkpt>
      <trkpt lat="45.23524" lon="3.89845">
        <ele>990.4</ele>
        <time>2018-06-07T12:54:23Z</time>
      </trkpt>
      <trkpt lat="45.23531" lon="3.89853">
        <ele>991.2</ele>
        <time>2018-06-07T12:54:32Z</time>
      </trkpt>
      <trkpt lat="45.23538" lon="3.89863">
        <ele>991.8</ele>
        <time>2018-06-07T12:54:40Z</time>
      </trkpt>
      <trkpt lat="45.23545" lon="3.89872">
        <ele>992.5</ele>
        <time>2018-06-07T12:54:48Z</time>
      </trkpt>
      <trkpt lat="45.23553" lon="3.89882">
        <ele>993.3</ele>
        <time>2018-06-07T12:54:56Z</time>
      </trkpt>
      <trkpt lat="45.2356" lon="3.89891">
        <ele>994</ele>
        <time>2018-06-07T12:55:04Z</time>
      </trkpt>
      <trkpt lat="45.23568" lon="3.89899">
        <ele>994.6</ele>
        <time>2018-06-07T12:55:11Z</time>
      </trkpt>
      <trkpt lat="45.23576" lon="3.89907">
        <ele>995.2</ele>
        <time>2018-06-07T12:55:19Z</time>
      </trkpt>
      <trkpt lat="45.23585" lon="3.89915">
        <ele>995.8</ele>
        <time>2018-06-07T12:55:27Z</time>
      </trkpt>
      <trkpt lat="45.23593" lon="3.89921">
        <ele>996.2</ele>
        <time>2018-06-07T12:55:34Z</time>
      </trkpt>
      <trkpt lat="45.23601" lon="3.89926">
        <ele>996.6</ele>
        <time>2018-06-07T12:55:41Z</time>
      </trkpt>
      <trkpt lat="45.2361" lon="3.89932">
        <ele>997</ele>
        <time>2018-06-07T12:55:50Z</time>
      </trkpt>
      <trkpt lat="45.23619" lon="3.89935">
        <ele>997.5</ele>
        <time>2018-06-07T12:56:00Z</time>
      </trkpt>
      <trkpt lat="45.23626" lon="3.89945">
        <ele>997.7</ele>
        <time>2018-06-07T12:56:07Z</time>
      </trkpt>
      <trkpt lat="45.23634" lon="3.89953">
        <ele>997.9</ele>
        <time>2018-06-07T12:56:15Z</time>
      </trkpt>
      <trkpt lat="45.23643" lon="3.89956">
        <ele>998</ele>
        <time>2018-06-07T12:56:24Z</time>
      </trkpt>
      <trkpt lat="45.23652" lon="3.89952">
        <ele>998.1</ele>
        <time>2018-06-07T12:56:33Z</time>
      </trkpt>
      <trkpt lat="45.23661" lon="3.89951">
        <ele>998.2</ele>
        <time>2018-06-07T12:56:46Z</time>
      </trkpt>
      <trkpt lat="45.2367" lon="3.89954">
        <ele>998.2</ele>
        <time>2018-06-07T12:56:58Z</time>
      </trkpt>
      <trkpt lat="45.23673" lon="3.89968">
        <ele>998.9</ele>
        <time>2018-06-07T13:03:24Z</time>
      </trkpt>
      <trkpt lat="45.23681" lon="3.89973">
        <ele>998.7</ele>
        <time>2018-06-07T13:03:31Z</time>
      </trkpt>
      <trkpt lat="45.23691" lon="3.89974">
        <ele>998.5</ele>
        <time>2018-06-07T13:03:40Z</time>
      </trkpt>
      <trkpt lat="45.237" lon="3.89975">
        <ele>998.4</ele>
        <time>2018-06-07T13:03:47Z</time>
      </trkpt>
      <trkpt lat="45.23709" lon="3.89976">
        <ele>998.4</ele>
        <time>2018-06-07T13:03:55Z</time>
      </trkpt>
      <trkpt lat="45.23719" lon="3.89975">
        <ele>998.4</ele>
        <time>2018-06-07T13:04:03Z</time>
      </trkpt>
      <trkpt lat="45.23728" lon="3.89975">
        <ele>998.3</ele>
        <time>2018-06-07T13:04:10Z</time>
      </trkpt>
      <trkpt lat="45.23738" lon="3.89973">
        <ele>998.3</ele>
        <time>2018-06-07T13:04:19Z</time>
      </trkpt>
      <trkpt lat="45.23747" lon="3.89972">
        <ele>998.4</ele>
        <time>2018-06-07T13:04:27Z</time>
      </trkpt>
      <trkpt lat="45.23756" lon="3.89974">
        <ele>998.5</ele>
        <time>2018-06-07T13:04:37Z</time>
      </trkpt>
      <trkpt lat="45.23765" lon="3.89978">
        <ele>998.5</ele>
        <time>2018-06-07T13:04:46Z</time>
      </trkpt>
      <trkpt lat="45.23774" lon="3.89986">
        <ele>998.6</ele>
        <time>2018-06-07T13:04:54Z</time>
      </trkpt>
      <trkpt lat="45.23781" lon="3.89994">
        <ele>998.6</ele>
        <time>2018-06-07T13:05:01Z</time>
      </trkpt>
      <trkpt lat="45.23789" lon="3.90002">
        <ele>998.6</ele>
        <time>2018-06-07T13:05:09Z</time>
      </trkpt>
      <trkpt lat="45.23796" lon="3.9001">
        <ele>998.6</ele>
        <time>2018-06-07T13:05:16Z</time>
      </trkpt>
      <trkpt lat="45.23803" lon="3.90019">
        <ele>998.6</ele>
        <time>2018-06-07T13:05:23Z</time>
      </trkpt>
      <trkpt lat="45.23811" lon="3.90026">
        <ele>998.6</ele>
        <time>2018-06-07T13:05:30Z</time>
      </trkpt>
      <trkpt lat="45.23819" lon="3.90033">
        <ele>998.6</ele>
        <time>2018-06-07T13:05:38Z</time>
      </trkpt>
      <trkpt lat="45.23827" lon="3.90042">
        <ele>998.6</ele>
        <time>2018-06-07T13:05:46Z</time>
      </trkpt>
      <trkpt lat="45.23837" lon="3.90045">
        <ele>998.6</ele>
        <time>2018-06-07T13:05:53Z</time>
      </trkpt>
      <trkpt lat="45.23846" lon="3.90049">
        <ele>998.6</ele>
        <time>2018-06-07T13:06:00Z</time>
      </trkpt>
      <trkpt lat="45.23855" lon="3.90052">
        <ele>998.4</ele>
        <time>2018-06-07T13:06:06Z</time>
      </trkpt>
      <trkpt lat="45.23865" lon="3.90055">
        <ele>998</ele>
        <time>2018-06-07T13:06:13Z</time>
      </trkpt>
      <trkpt lat="45.23874" lon="3.90057">
        <ele>997.6</ele>
        <time>2018-06-07T13:06:20Z</time>
      </trkpt>
      <trkpt lat="45.23883" lon="3.90058">
        <ele>997.3</ele>
        <time>2018-06-07T13:06:26Z</time>
      </trkpt>
      <trkpt lat="45.23892" lon="3.90059">
        <ele>997</ele>
        <time>2018-06-07T13:06:33Z</time>
      </trkpt>
      <trkpt lat="45.23902" lon="3.90061">
        <ele>996.7</ele>
        <time>2018-06-07T13:06:41Z</time>
      </trkpt>
      <trkpt lat="45.23912" lon="3.90062">
        <ele>996.4</ele>
        <time>2018-06-07T13:06:48Z</time>
      </trkpt>
      <trkpt lat="45.23921" lon="3.90064">
        <ele>996.1</ele>
        <time>2018-06-07T13:06:56Z</time>
      </trkpt>
      <trkpt lat="45.23931" lon="3.90063">
        <ele>995.9</ele>
        <time>2018-06-07T13:07:04Z</time>
      </trkpt>
      <trkpt lat="45.23941" lon="3.90063">
        <ele>995.8</ele>
        <time>2018-06-07T13:07:11Z</time>
      </trkpt>
      <trkpt lat="45.23951" lon="3.90064">
        <ele>995.8</ele>
        <time>2018-06-07T13:07:19Z</time>
      </trkpt>
      <trkpt lat="45.2396" lon="3.90064">
        <ele>995.7</ele>
        <time>2018-06-07T13:07:25Z</time>
      </trkpt>
      <trkpt lat="45.2397" lon="3.90063">
        <ele>995.7</ele>
        <time>2018-06-07T13:07:33Z</time>
      </trkpt>
      <trkpt lat="45.23979" lon="3.90064">
        <ele>995.7</ele>
        <time>2018-06-07T13:07:40Z</time>
      </trkpt>
      <trkpt lat="45.23988" lon="3.90065">
        <ele>995.7</ele>
        <time>2018-06-07T13:07:48Z</time>
      </trkpt>
      <trkpt lat="45.23998" lon="3.90064">
        <ele>995.7</ele>
        <time>2018-06-07T13:07:55Z</time>
      </trkpt>
      <trkpt lat="45.24008" lon="3.90065">
        <ele>995.7</ele>
        <time>2018-06-07T13:08:03Z</time>
      </trkpt>
      <trkpt lat="45.24017" lon="3.90066">
        <ele>995.7</ele>
        <time>2018-06-07T13:08:10Z</time>
      </trkpt>
      <trkpt lat="45.24027" lon="3.90067">
        <ele>995.7</ele>
        <time>2018-06-07T13:08:16Z</time>
      </trkpt>
      <trkpt lat="45.24036" lon="3.90069">
        <ele>995.7</ele>
        <time>2018-06-07T13:08:21Z</time>
      </trkpt>
      <trkpt lat="45.24046" lon="3.90071">
        <ele>995.7</ele>
        <time>2018-06-07T13:08:27Z</time>
      </trkpt>
      <trkpt lat="45.24056" lon="3.90074">
        <ele>995.6</ele>
        <time>2018-06-07T13:08:34Z</time>
      </trkpt>
      <trkpt lat="45.24066" lon="3.90075">
        <ele>995.6</ele>
        <time>2018-06-07T13:08:42Z</time>
      </trkpt>
      <trkpt lat="45.24074" lon="3.90079">
        <ele>995.5</ele>
        <time>2018-06-07T13:08:48Z</time>
      </trkpt>
      <trkpt lat="45.24084" lon="3.90079">
        <ele>995.3</ele>
        <time>2018-06-07T13:08:54Z</time>
      </trkpt>
      <trkpt lat="45.24094" lon="3.90077">
        <ele>995.1</ele>
        <time>2018-06-07T13:09:02Z</time>
      </trkpt>
      <trkpt lat="45.24104" lon="3.90077">
        <ele>994.9</ele>
        <time>2018-06-07T13:09:09Z</time>
      </trkpt>
      <trkpt lat="45.24113" lon="3.90076">
        <ele>994.8</ele>
        <time>2018-06-07T13:09:16Z</time>
      </trkpt>
      <trkpt lat="45.24123" lon="3.90075">
        <ele>994.7</ele>
        <time>2018-06-07T13:09:23Z</time>
      </trkpt>
      <trkpt lat="45.24132" lon="3.90074">
        <ele>994.6</ele>
        <time>2018-06-07T13:09:30Z</time>
      </trkpt>
      <trkpt lat="45.24141" lon="3.90073">
        <ele>994.6</ele>
        <time>2018-06-07T13:09:38Z</time>
      </trkpt>
      <trkpt lat="45.24151" lon="3.90072">
        <ele>994.5</ele>
        <time>2018-06-07T13:09:46Z</time>
      </trkpt>
      <trkpt lat="45.2416" lon="3.90068">
        <ele>994.5</ele>
        <time>2018-06-07T13:09:54Z</time>
      </trkpt>
      <trkpt lat="45.2417" lon="3.90067">
        <ele>994.5</ele>
        <time>2018-06-07T13:10:01Z</time>
      </trkpt>
      <trkpt lat="45.2418" lon="3.90066">
        <ele>994.4</ele>
        <time>2018-06-07T13:10:09Z</time>
      </trkpt>
      <trkpt lat="45.2419" lon="3.90064">
        <ele>994.2</ele>
        <time>2018-06-07T13:10:17Z</time>
      </trkpt>
      <trkpt lat="45.242" lon="3.90062">
        <ele>994.1</ele>
        <time>2018-06-07T13:10:24Z</time>
      </trkpt>
      <trkpt lat="45.2421" lon="3.90061">
        <ele>993.9</ele>
        <time>2018-06-07T13:10:32Z</time>
      </trkpt>
      <trkpt lat="45.24219" lon="3.90059">
        <ele>993.8</ele>
        <time>2018-06-07T13:10:39Z</time>
      </trkpt>
      <trkpt lat="45.24229" lon="3.9006">
        <ele>993.6</ele>
        <time>2018-06-07T13:10:46Z</time>
      </trkpt>
      <trkpt lat="45.24239" lon="3.90061">
        <ele>993.3</ele>
        <time>2018-06-07T13:10:53Z</time>
      </trkpt>
      <trkpt lat="45.24248" lon="3.90062">
        <ele>992.9</ele>
        <time>2018-06-07T13:11:00Z</time>
      </trkpt>
      <trkpt lat="45.24258" lon="3.90062">
        <ele>992.6</ele>
        <time>2018-06-07T13:11:08Z</time>
      </trkpt>
      <trkpt lat="45.24268" lon="3.90061">
        <ele>992.2</ele>
        <time>2018-06-07T13:11:15Z</time>
      </trkpt>
      <trkpt lat="45.24278" lon="3.90061">
        <ele>991.9</ele>
        <time>2018-06-07T13:11:22Z</time>
      </trkpt>
      <trkpt lat="45.24288" lon="3.90061">
        <ele>991.7</ele>
        <time>2018-06-07T13:11:29Z</time>
      </trkpt>
      <trkpt lat="45.24298" lon="3.90059">
        <ele>991.6</ele>
        <time>2018-06-07T13:11:37Z</time>
      </trkpt>
      <trkpt lat="45.24307" lon="3.90056">
        <ele>991.5</ele>
        <time>2018-06-07T13:11:45Z</time>
      </trkpt>
      <trkpt lat="45.24317" lon="3.90052">
        <ele>991.4</ele>
        <time>2018-06-07T13:11:52Z</time>
      </trkpt>
      <trkpt lat="45.24326" lon="3.90048">
        <ele>991.4</ele>
        <time>2018-06-07T13:11:57Z</time>
      </trkpt>
      <trkpt lat="45.24336" lon="3.90047">
        <ele>991.4</ele>
        <time>2018-06-07T13:12:05Z</time>
      </trkpt>
      <trkpt lat="45.24346" lon="3.90047">
        <ele>991.5</ele>
        <time>2018-06-07T13:12:15Z</time>
      </trkpt>
      <trkpt lat="45.24355" lon="3.90045">
        <ele>991.8</ele>
        <time>2018-06-07T13:12:24Z</time>
      </trkpt>
      <trkpt lat="45.24365" lon="3.90044">
        <ele>992.1</ele>
        <time>2018-06-07T13:12:32Z</time>
      </trkpt>
      <trkpt lat="45.24374" lon="3.90044">
        <ele>992.4</ele>
        <time>2018-06-07T13:12:40Z</time>
      </trkpt>
      <trkpt lat="45.24383" lon="3.90044">
        <ele>992.6</ele>
        <time>2018-06-07T13:12:47Z</time>
      </trkpt>
      <trkpt lat="45.24393" lon="3.90046">
        <ele>993.1</ele>
        <time>2018-06-07T13:12:56Z</time>
      </trkpt>
      <trkpt lat="45.24402" lon="3.90046">
        <ele>993.5</ele>
        <time>2018-06-07T13:13:04Z</time>
      </trkpt>
      <trkpt lat="45.24412" lon="3.90049">
        <ele>993.9</ele>
        <time>2018-06-07T13:13:11Z</time>
      </trkpt>
      <trkpt lat="45.24421" lon="3.90051">
        <ele>994.2</ele>
        <time>2018-06-07T13:13:17Z</time>
      </trkpt>
      <trkpt lat="45.2443" lon="3.90055">
        <ele>994.4</ele>
        <time>2018-06-07T13:13:24Z</time>
      </trkpt>
      <trkpt lat="45.2444" lon="3.90061">
        <ele>994.6</ele>
        <time>2018-06-07T13:13:31Z</time>
      </trkpt>
      <trkpt lat="45.24449" lon="3.90065">
        <ele>995</ele>
        <time>2018-06-07T13:13:39Z</time>
      </trkpt>
      <trkpt lat="45.24457" lon="3.90071">
        <ele>995.2</ele>
        <time>2018-06-07T13:13:46Z</time>
      </trkpt>
      <trkpt lat="45.24466" lon="3.90076">
        <ele>995.5</ele>
        <time>2018-06-07T13:13:53Z</time>
      </trkpt>
      <trkpt lat="45.24474" lon="3.90083">
        <ele>995.7</ele>
        <time>2018-06-07T13:14:00Z</time>
      </trkpt>
      <trkpt lat="45.24483" lon="3.90085">
        <ele>995.8</ele>
        <time>2018-06-07T13:14:07Z</time>
      </trkpt>
      <trkpt lat="45.24492" lon="3.90089">
        <ele>995.9</ele>
        <time>2018-06-07T13:14:15Z</time>
      </trkpt>
      <trkpt lat="45.24501" lon="3.90092">
        <ele>996</ele>
        <time>2018-06-07T13:14:22Z</time>
      </trkpt>
      <trkpt lat="45.24511" lon="3.90093">
        <ele>996</ele>
        <time>2018-06-07T13:14:29Z</time>
      </trkpt>
      <trkpt lat="45.24521" lon="3.90093">
        <ele>996</ele>
        <time>2018-06-07T13:14:36Z</time>
      </trkpt>
      <trkpt lat="45.24531" lon="3.9009">
        <ele>996</ele>
        <time>2018-06-07T13:14:44Z</time>
      </trkpt>
      <trkpt lat="45.2454" lon="3.90088">
        <ele>996.2</ele>
        <time>2018-06-07T13:14:52Z</time>
      </trkpt>
      <trkpt lat="45.2455" lon="3.90085">
        <ele>996.3</ele>
        <time>2018-06-07T13:15:00Z</time>
      </trkpt>
      <trkpt lat="45.2456" lon="3.90083">
        <ele>996.5</ele>
        <time>2018-06-07T13:15:09Z</time>
      </trkpt>
      <trkpt lat="45.2457" lon="3.90084">
        <ele>997</ele>
        <time>2018-06-07T13:15:18Z</time>
      </trkpt>
      <trkpt lat="45.2458" lon="3.90087">
        <ele>997.3</ele>
        <time>2018-06-07T13:15:27Z</time>
      </trkpt>
      <trkpt lat="45.24589" lon="3.90089">
        <ele>997.9</ele>
        <time>2018-06-07T13:15:36Z</time>
      </trkpt>
      <trkpt lat="45.24598" lon="3.90091">
        <ele>998.4</ele>
        <time>2018-06-07T13:15:43Z</time>
      </trkpt>
      <trkpt lat="45.24607" lon="3.90094">
        <ele>999</ele>
        <time>2018-06-07T13:15:51Z</time>
      </trkpt>
      <trkpt lat="45.24617" lon="3.90097">
        <ele>999.5</ele>
        <time>2018-06-07T13:15:58Z</time>
      </trkpt>
      <trkpt lat="45.24626" lon="3.901">
        <ele>1000.2</ele>
        <time>2018-06-07T13:16:06Z</time>
      </trkpt>
      <trkpt lat="45.24635" lon="3.90104">
        <ele>1000.8</ele>
        <time>2018-06-07T13:16:13Z</time>
      </trkpt>
      <trkpt lat="45.24644" lon="3.90105">
        <ele>1001.5</ele>
        <time>2018-06-07T13:16:23Z</time>
      </trkpt>
      <trkpt lat="45.24652" lon="3.9011">
        <ele>1002.1</ele>
        <time>2018-06-07T13:16:31Z</time>
      </trkpt>
      <trkpt lat="45.24662" lon="3.90108">
        <ele>1002.4</ele>
        <time>2018-06-07T13:16:36Z</time>
      </trkpt>
      <trkpt lat="45.24672" lon="3.90103">
        <ele>1002.7</ele>
        <time>2018-06-07T13:16:42Z</time>
      </trkpt>
      <trkpt lat="45.24678" lon="3.90092">
        <ele>1002.9</ele>
        <time>2018-06-07T13:16:49Z</time>
      </trkpt>
      <trkpt lat="45.24684" lon="3.90081">
        <ele>1003.3</ele>
        <time>2018-06-07T13:16:57Z</time>
      </trkpt>
      <trkpt lat="45.24689" lon="3.90071">
        <ele>1003.8</ele>
        <time>2018-06-07T13:17:04Z</time>
      </trkpt>
      <trkpt lat="45.24694" lon="3.90059">
        <ele>1004.2</ele>
        <time>2018-06-07T13:17:12Z</time>
      </trkpt>
      <trkpt lat="45.24699" lon="3.90048">
        <ele>1004.5</ele>
        <time>2018-06-07T13:17:19Z</time>
      </trkpt>
      <trkpt lat="45.24705" lon="3.90036">
        <ele>1005</ele>
        <time>2018-06-07T13:17:27Z</time>
      </trkpt>
      <trkpt lat="45.24708" lon="3.90022">
        <ele>1005.3</ele>
        <time>2018-06-07T13:17:35Z</time>
      </trkpt>
      <trkpt lat="45.24712" lon="3.90011">
        <ele>1005.6</ele>
        <time>2018-06-07T13:17:42Z</time>
      </trkpt>
      <trkpt lat="45.24716" lon="3.89998">
        <ele>1005.9</ele>
        <time>2018-06-07T13:17:50Z</time>
      </trkpt>
      <trkpt lat="45.2472" lon="3.89984">
        <ele>1006.2</ele>
        <time>2018-06-07T13:17:58Z</time>
      </trkpt>
      <trkpt lat="45.24728" lon="3.89976">
        <ele>1006.5</ele>
        <time>2018-06-07T13:18:06Z</time>
      </trkpt>
      <trkpt lat="45.24736" lon="3.8997">
        <ele>1006.7</ele>
        <time>2018-06-07T13:18:14Z</time>
      </trkpt>
      <trkpt lat="45.24735" lon="3.89956">
        <ele>1006.7</ele>
        <time>2018-06-07T13:18:19Z</time>
      </trkpt>
      <trkpt lat="45.24744" lon="3.89951">
        <ele>1007.4</ele>
        <time>2018-06-07T13:18:34Z</time>
      </trkpt>
      <trkpt lat="45.24745" lon="3.89939">
        <ele>1007.6</ele>
        <time>2018-06-07T13:18:44Z</time>
      </trkpt>
    </trkseg>
  </trk>
</gpx>